[[{"header":{"parameterUnit":"m.s-1","parameterCategory":1,"la1":30.6,"la2":29.2853,"lo1":-89.7004,"lo2":-87.6739,"dy":0.0162,"dx":0.0183,"nx":112,"ny":82,"refTime":"2025-07-04T12:00:00:Z","depth":0,"parameterNumber":2,"parameterNumberName":"U-component_of_WINDS"},"data":[0.0,0.0,0.0,0.0,0.0,0.0,0.0,0.0,0.0,0.0,0.0,0.0,0.0,0.0,0.0,0.0,0.0,0.0,0.0,0.0,0.0,0.0,0.0,0.0,0.0,0.0,0.0,0.0,0.0,0.0,0.0,0.0,0.0,0.0,0.0,0.0,0.0,0.0,0.0,0.0,0.0,0.0,0.0,0.0,0.0,0.0,0.0,0.0,0.0,0.0,0.0,0.0,0.0,0.0,0.0,0.0,0.0,0.0,0.0,0.0,0.0,0.0,0.0,0.0,0.0,0.0,0.0,0.0,0.0,0.0,0.0,0.0,0.0,0.0,0.0,0.0,0.0,0.0,0.0,0.0,0.0,0.0,0.0,0.0,0.0,0.0,0.0,0.0,0.0,0.0,0.0,1.0296,1.196,1.3257,1.4045,1.5,1.4679,1.2646,0.0,0.0,0.0,0.0,0.0,0.0,0.0,0.0,0.0,0.0,0.0,0.0,0.0,0.0,0.0,0.0,0.0,0.0,0.0,0.0,0.0,0.0,0.0,0.0,0.0,0.0,0.0,0.0,0.0,0.0,0.0,0.0,0.0,0.0,0.0,0.0,0.0,0.0,0.0,0.0,0.0,0.0,0.0,0.0,0.0,0.0,0.0,0.0,0.0,0.0,0.0,0.0,0.0,0.0,0.0,0.0,0.0,0.0,0.0,0.0,0.0,0.0,0.0,0.0,0.0,0.0,0.0,0.0,0.0,0.0,0.0,0.0,0.0,0.0,0.0,0.0,0.0,0.0,0.0,0.0,0.0,0.0,0.0,0.0,0.0,0.0,0.0,0.0,0.0,0.0,0.0,0.0,0.0,0.0,0.0,0.0,0.0,0.0,0.0,0.0,0.0,0.0,0.0,0.0,0.9413,1.1513,1.2568,1.3441,1.4148,1.4594,1.4189,1.2681,0.0,0.0,0.0,0.0,0.0,0.0,0.0,0.0,0.0,0.0,0.0,0.0,0.0,0.0,0.0,0.0,0.0,0.0,0.0,0.0,0.0,0.0,0.0,0.0,0.0,0.0,0.0,0.0,0.0,0.0,0.0,0.0,0.0,0.0,0.0,0.0,0.0,0.0,0.0,0.0,0.0,0.0,0.0,0.0,0.0,0.0,0.0,0.0,0.0,0.0,0.0,0.0,0.0,0.0,0.0,0.0,0.0,0.0,0.0,0.0,0.0,0.0,0.0,0.0,0.0,0.0,0.0,0.0,0.0,0.0,0.0,0.0,0.0,0.0,0.0,0.0,0.0,0.0,0.0,0.0,0.0,0.0,0.0,0.0,0.0,0.0,0.0,0.0,0.0,0.0,0.0,0.0,0.0,0.0,0.0,0.0,0.0,0.0,0.0,0.0,0.0,0.0,0.0,0.9344,1.0478,1.2392,1.3016,1.3622,1.4347,1.5036,1.4595,1.2663,1.331,0.0,0.0,0.0,0.0,0.0,0.0,0.0,0.0,0.0,0.0,0.0,0.0,0.0,0.0,0.0,0.0,0.0,0.0,0.0,0.0,0.0,0.0,0.0,0.0,0.0,0.0,0.0,0.0,0.0,0.0,0.0,0.0,0.0,0.0,0.0,0.0,0.0,0.0,0.0,0.0,0.0,0.0,0.0,0.0,0.0,0.0,0.0,0.0,0.0,0.0,0.0,0.0,0.0,0.0,0.0,0.0,0.0,0.0,0.0,0.0,0.0,0.0,0.0,0.0,0.0,0.0,0.0,0.0,0.0,0.0,0.0,0.0,0.0,0.0,0.0,0.0,0.0,0.0,0.0,0.0,0.0,0.0,0.0,0.0,0.0,0.0,0.0,0.0,0.0,0.0,0.0,0.0,0.0,0.0,0.0,0.0,0.0,0.0,0.0,0.0,0.0,0.0,1.059,1.1482,1.3105,1.3378,1.3769,1.4571,1.5108,1.4563,1.2636,1.3034,0.0,0.0,0.0,0.0,0.0,0.0,0.0,0.0,0.0,0.0,0.0,0.0,0.0,0.0,0.0,0.0,0.0,0.0,0.0,0.0,0.0,0.0,0.0,0.0,0.0,0.0,0.0,0.0,0.0,0.0,0.0,0.0,0.0,0.0,0.0,0.0,0.0,0.0,0.0,0.0,0.0,0.0,0.0,0.0,0.0,0.0,0.0,0.0,0.0,0.0,0.0,0.0,0.0,0.0,0.0,0.0,0.0,0.0,0.0,0.0,0.0,0.0,0.0,0.0,0.0,0.0,0.0,0.0,0.0,0.0,0.0,0.0,0.0,0.0,0.0,0.0,0.0,0.0,0.0,0.0,0.0,0.0,0.0,0.0,0.0,0.0,0.0,0.0,0.0,0.0,0.0,0.0,0.0,0.0,0.0,0.0,0.0,0.0,0.0,0.0,0.0,0.0,1.1075,1.2236,1.3624,1.3661,1.3908,1.4732,1.4037,1.3296,1.2638,1.2014,0.0,0.0,0.0,0.0,0.0,0.0,0.0,0.0,0.0,0.0,0.0,0.0,0.0,0.0,0.0,0.0,0.0,0.0,0.0,0.0,0.0,0.0,0.0,0.0,0.0,0.0,0.0,0.0,0.0,0.0,0.0,0.0,0.0,0.0,0.0,0.0,0.0,0.0,0.0,0.0,0.0,0.0,0.0,0.0,0.0,0.0,0.0,0.0,0.0,0.0,0.0,0.0,0.0,0.0,0.0,0.0,0.0,0.0,0.0,0.0,0.0,0.0,0.0,0.0,0.0,0.0,0.0,0.0,0.0,0.0,0.0,0.0,0.0,0.0,0.0,0.0,0.0,0.0,0.0,0.0,0.0,0.0,0.0,0.0,0.0,0.0,0.0,0.0,0.0,0.0,0.0,0.0,0.0,0.0,0.0,0.0,0.0,0.0,0.0,0.0,0.0,0.0,1.1156,1.2451,0.0,1.4248,1.4617,1.5315,1.4871,1.4062,1.2858,0.0,0.0,0.0,0.0,0.0,0.0,0.0,0.0,0.0,0.0,0.0,0.0,0.0,0.0,0.0,0.0,0.0,0.0,0.0,0.0,0.0,0.0,0.0,0.0,0.0,0.0,0.0,0.0,0.0,0.0,0.0,0.0,0.0,0.0,0.0,0.0,0.0,0.0,0.0,0.0,0.0,0.0,0.0,0.0,0.0,0.0,0.0,0.0,0.0,0.0,0.0,0.0,0.0,0.0,0.0,0.0,0.0,0.0,0.0,0.0,0.0,0.0,0.0,0.0,0.0,0.0,0.0,0.0,0.0,0.0,0.0,0.0,0.0,0.0,0.0,0.0,0.0,0.0,0.0,0.0,0.0,0.0,0.0,0.0,0.0,0.0,0.0,0.0,0.0,0.0,0.0,0.0,0.0,0.0,0.0,0.0,0.0,0.0,0.0,0.0,0.0,0.0,1.0169,1.1376,1.274,0.0,1.4637,1.5034,1.5623,1.4972,1.4058,1.2938,0.0,0.0,0.0,0.0,0.0,0.0,0.0,0.0,0.0,0.0,0.0,0.0,0.0,0.0,0.0,0.0,0.0,0.0,0.0,0.0,0.0,0.0,0.0,0.0,0.0,0.0,0.0,0.0,0.0,0.0,0.0,0.0,0.0,0.0,0.0,0.0,0.0,0.0,0.0,0.0,0.0,0.0,0.0,0.0,0.0,0.0,0.0,0.0,0.0,0.0,0.0,0.0,0.0,0.0,0.0,0.0,0.0,0.0,0.0,0.0,0.0,0.0,0.0,0.0,0.0,0.0,0.0,0.0,0.0,0.0,0.0,0.0,0.0,0.0,0.0,0.0,0.0,0.0,0.0,0.0,0.0,0.0,0.0,0.0,0.0,0.0,0.0,0.0,0.0,0.0,0.0,0.0,0.0,0.0,0.0,0.0,0.0,0.0,0.0,0.0,0.0,0.0,1.0644,1.1927,1.3197,1.4464,1.4718,1.5027,1.5565,1.3963,1.2896,0.0,0.0,0.0,0.0,0.0,0.0,0.0,0.0,0.0,0.0,0.0,0.0,0.0,0.0,0.0,0.0,0.0,0.0,0.0,0.0,0.0,0.0,0.0,0.0,0.0,0.0,0.0,0.0,0.0,0.0,0.0,0.0,0.0,0.0,0.0,0.0,0.0,0.0,0.0,0.0,0.0,0.0,0.0,0.0,0.0,0.0,0.0,0.0,0.0,0.0,0.0,0.0,0.0,0.0,0.0,0.0,0.0,0.0,0.0,0.0,0.0,0.0,0.0,0.0,0.0,0.0,0.0,0.0,0.0,0.0,0.0,0.0,0.0,0.0,0.0,0.0,0.0,0.0,0.0,0.0,0.0,0.0,0.0,0.0,0.0,0.0,0.0,0.0,0.0,0.0,0.0,0.0,0.0,0.0,0.0,0.0,0.0,0.0,0.0,0.0,0.0,0.0,0.0,1.0542,1.2262,1.3765,1.4847,1.5448,1.5917,1.6278,1.5177,1.4088,1.3217,0.0,0.0,0.0,0.0,0.0,0.0,0.0,0.0,0.0,0.0,0.0,0.0,0.0,0.0,0.0,0.0,0.0,0.0,0.0,0.0,0.0,0.0,0.0,0.0,0.0,0.0,0.0,0.0,0.0,0.0,0.0,0.0,0.0,0.0,0.0,0.0,0.0,0.0,0.0,0.0,0.0,0.0,0.0,0.0,0.0,0.0,0.0,0.0,0.0,0.0,0.0,0.0,0.0,0.0,0.0,0.0,0.0,0.0,0.0,0.0,0.0,0.0,0.0,0.0,0.0,0.0,0.0,0.0,0.0,0.0,0.0,0.0,0.0,0.0,0.0,0.0,0.0,0.0,0.0,0.0,0.0,0.0,0.0,0.0,0.0,0.0,0.0,0.0,0.0,0.0,0.0,0.0,0.0,0.0,0.0,0.0,0.0,0.0,0.0,0.0,0.0,0.0,1.1026,1.2806,1.4359,1.5497,1.605,1.6474,1.6712,1.6034,1.5067,1.3818,0.0,0.0,0.0,0.0,0.0,0.0,0.0,0.0,0.0,0.0,0.0,0.0,0.0,0.0,0.0,0.0,0.0,0.0,0.0,0.0,0.0,0.0,0.0,0.0,0.0,0.0,0.0,0.0,0.0,0.0,0.0,0.0,0.0,0.0,0.0,0.0,0.0,0.0,0.0,0.0,0.0,0.0,0.0,0.0,0.0,0.0,0.0,0.0,0.0,0.0,0.0,0.0,0.0,0.0,0.0,0.0,0.0,0.0,0.0,0.0,0.0,0.0,0.0,0.0,0.0,0.0,0.0,0.0,0.0,0.0,0.0,0.0,0.0,0.0,0.0,0.0,0.0,0.0,0.0,0.0,0.0,0.0,0.0,0.0,0.0,0.0,0.0,0.0,0.0,0.0,0.0,0.0,0.0,0.0,0.0,0.0,0.0,0.0,0.0,0.0,0.0,0.0,1.183,1.3404,1.4921,1.625,1.6543,1.6712,1.6918,1.6634,1.5883,1.453,0.0,0.0,0.0,0.0,0.0,0.0,0.0,0.0,0.0,0.0,0.0,0.0,0.0,0.0,0.0,0.0,0.0,0.0,0.0,0.0,0.0,0.0,0.0,0.0,0.0,0.0,0.0,0.0,0.0,0.0,0.0,0.0,0.0,0.0,0.0,0.0,0.0,0.0,0.0,0.0,0.0,0.0,0.0,0.0,0.0,0.0,0.0,0.0,0.0,0.0,0.0,0.0,0.0,0.0,0.0,0.0,0.0,0.0,0.0,0.0,0.697,0.0,0.0,0.0,0.0,0.0,0.0,0.0,0.0,0.0,0.0,0.0,0.0,0.0,0.0,0.0,0.0,0.0,0.0,0.0,0.0,0.0,0.0,0.0,0.0,0.0,0.0,0.0,0.0,0.0,0.0,0.0,0.0,0.0,0.0,0.0,0.0,0.0,0.0,0.0,0.0,0.0,1.1769,1.3404,1.4921,1.625,1.672,1.7018,1.728,1.6953,1.6166,1.4882,0.0,0.0,0.0,0.0,0.0,0.0,0.0,0.0,0.0,0.0,0.0,0.0,0.0,0.0,0.0,0.0,0.0,0.0,0.0,0.0,0.0,0.0,0.0,0.0,0.0,0.0,0.0,0.0,0.0,0.0,0.0,0.0,0.0,0.0,0.0,0.0,0.0,0.0,0.0,0.0,0.0,0.0,0.0,0.0,0.0,0.0,0.0,0.0,0.0,0.0,0.0,0.0,0.0,0.0,0.0,0.0,0.0,0.0,0.0,0.0,0.0,0.925,0.0,0.0,0.0,0.0,0.0,0.0,0.0,0.0,0.0,0.0,0.0,0.0,0.0,0.0,0.0,0.0,0.0,0.0,0.0,0.0,0.0,0.0,0.0,0.0,0.0,0.0,0.0,0.0,0.0,0.0,0.0,0.0,0.0,0.0,0.0,0.0,0.0,0.0,0.0,0.0,1.2143,1.4058,1.5687,1.6769,1.7108,1.7345,1.7566,1.7479,1.7058,1.6202,1.525,0.0,0.0,0.0,0.0,0.0,0.0,0.0,0.0,0.0,0.0,0.0,0.0,0.0,0.0,0.0,0.0,0.0,0.0,0.0,0.0,0.0,0.0,0.0,0.0,0.0,0.0,0.0,0.0,0.0,0.0,0.0,0.0,0.0,0.0,0.0,0.0,0.0,0.0,0.0,0.0,0.0,0.0,0.0,0.0,0.0,0.0,0.0,0.0,0.0,0.0,0.0,0.0,0.0,1.5204,1.1021,0.7283,0.7617,0.857,1.0074,1.0571,1.2058,1.4027,0.0,0.0,0.0,0.0,0.0,0.0,0.0,0.0,0.0,0.0,0.0,0.0,0.0,0.0,0.0,0.0,0.0,0.0,0.0,0.0,0.0,0.0,0.0,0.0,0.0,1.7233,1.704,0.0,0.0,0.0,0.0,0.0,0.0,0.0,0.0,0.0,0.0,0.0,0.0,1.2889,1.4935,1.6615,1.7415,1.7552,1.7683,1.7892,1.8095,1.8012,1.7568,1.6511,1.5536,0.0,0.0,0.0,0.0,0.0,0.0,0.0,0.0,0.0,0.0,0.0,0.0,0.0,0.0,0.0,0.0,0.0,0.0,0.0,0.0,0.0,0.0,0.0,0.0,0.0,0.0,0.0,0.0,0.0,0.0,0.0,0.0,0.8221,0.8758,0.0,0.0,0.0,0.0,0.0,0.0,0.0,0.0,0.0,0.0,0.0,0.0,0.0,0.0,1.0313,1.9088,2.3937,2.4686,1.9905,1.4833,0.9706,1.0638,1.1182,1.143,1.1508,0.0,1.4537,1.4694,0.0,0.0,0.0,0.0,0.0,0.0,0.0,0.0,0.0,0.0,0.0,0.0,0.0,0.0,0.0,0.0,0.0,0.0,0.0,0.0,0.0,0.0,1.9902,1.9469,1.9859,2.0051,0.0,1.6631,1.4374,1.3609,0.0,0.0,0.0,0.0,0.0,0.0,0.0,0.0,1.4046,1.5668,1.7042,1.7829,1.7971,1.8137,1.8385,1.8545,1.8378,1.7796,1.7796,1.7169,1.5692,1.4705,0.0,0.0,0.0,0.0,0.0,0.0,0.0,0.0,0.0,0.0,0.0,0.0,0.0,0.0,0.0,0.0,0.0,0.0,0.0,0.0,0.0,0.0,0.0,0.0,0.0,0.0,0.0,0.0,0.0,0.6937,0.8473,0.9389,0.9413,0.9157,0.0,0.0,0.0,0.0,0.0,0.0,0.0,0.0,0.0,1.0249,1.1925,1.175,0.9478,2.0259,2.5697,2.5642,2.0809,1.5775,1.0788,1.1415,1.1773,1.2053,1.4445,1.5676,1.627,1.8892,1.9021,1.7273,0.0,0.0,0.0,0.0,0.0,1.4711,1.6487,1.9568,0.0,0.0,0.0,0.0,0.0,0.0,0.0,0.0,0.0,0.0,0.0,0.0,0.0,2.1289,2.1905,2.2366,2.209,2.0483,1.8291,0.0,1.5195,1.4523,1.219,0.0,0.0,0.0,0.0,0.0,1.5003,1.6447,1.7586,1.8013,1.809,1.8211,1.8485,1.8554,1.8591,1.8594,1.8261,1.7821,1.7231,1.6035,1.4822,0.0,0.0,0.0,0.0,0.0,0.0,0.0,0.0,0.0,0.0,0.0,0.0,0.0,0.0,0.0,0.0,0.0,0.0,0.0,0.0,0.0,0.0,0.0,0.0,0.0,0.0,0.0,0.0,0.7671,0.9004,0.9707,1.0202,1.0288,0.0,0.0,0.0,0.0,0.0,0.0,1.1403,1.0329,1.0016,1.0689,1.2258,1.1663,0.8583,1.9961,2.5697,2.5633,1.9559,1.4784,1.1322,1.1628,1.3002,1.5151,1.7668,1.8775,1.9053,2.2107,2.2238,2.0264,1.8416,1.7062,1.6326,1.784,1.9129,2.0543,2.3382,2.3723,2.2885,2.2808,0.0,1.8487,1.8897,0.0,0.0,0.0,0.0,1.8857,2.0308,2.1182,2.1884,2.2623,2.3259,2.37,2.37,2.3232,2.1744,0.0,1.7942,1.7414,1.4495,0.0,0.0,0.0,0.0,1.649,1.6695,1.796,1.8777,1.8659,1.8633,1.8623,1.8638,1.8658,1.8834,1.9177,1.8709,1.8474,1.8623,1.7272,1.6038,1.5026,0.0,0.0,0.0,0.0,0.0,0.0,0.0,0.0,0.0,0.0,0.0,0.0,0.0,0.0,0.0,0.0,0.0,0.0,0.0,0.0,0.0,0.0,0.0,0.0,0.0,0.0,0.0,0.0,0.0,0.9908,1.1435,0.0,0.0,0.0,0.0,1.2082,1.1534,1.1684,1.2728,1.2079,1.1228,1.0261,1.2848,1.219,0.8005,1.9752,2.5697,2.5585,1.616,1.1513,1.1322,1.1823,1.6055,2.28,2.0581,2.0997,2.3144,2.2522,2.2781,2.3542,2.3222,2.3057,2.3079,2.3814,2.3943,2.3757,2.3961,2.3777,2.3415,2.316,2.1717,2.0156,2.0565,2.0223,0.0,0.0,2.0929,2.2165,2.2267,2.2928,2.357,2.3637,2.3673,2.37,2.37,2.3673,2.3275,0.0,2.0696,1.9648,1.9195,0.0,1.8107,1.8331,1.9005,1.9539,1.9744,2.0687,2.1006,2.0182,2.0083,1.9795,1.9038,1.9086,1.9168,1.9193,1.9407,1.9513,1.9527,1.8664,1.7439,1.5871,1.494,0.0,0.0,0.0,0.0,0.0,0.0,0.0,0.0,0.0,0.0,0.0,0.0,0.0,0.0,0.0,0.0,0.0,0.0,0.0,0.0,0.0,0.0,0.0,0.0,0.0,0.0,0.0,0.0,1.035,1.1348,0.0,0.0,1.2019,1.259,1.1796,1.333,1.3873,1.2882,1.2237,1.1395,1.0405,1.0483,0.9749,0.8212,1.2244,1.81,2.5576,1.5899,1.1473,1.1909,1.5399,1.8501,2.1037,2.0685,2.1053,2.1913,2.2238,2.2863,2.3616,2.3673,2.3738,2.3831,2.3998,2.4027,2.3996,2.3896,2.3611,2.3286,2.3135,2.2691,2.221,2.2373,2.2309,2.2215,2.2215,2.2682,2.3177,2.3234,2.3514,2.3765,2.375,2.3771,2.3771,2.3771,2.3771,2.366,2.3277,2.2315,2.1196,2.0025,1.9983,1.9974,1.9582,2.0114,2.0583,2.0746,2.1085,2.1227,2.0995,2.0969,2.068,1.9962,1.9949,1.9789,1.9366,1.8926,1.8726,1.8766,1.7968,1.7012,1.5917,1.5089,1.3707,0.0,0.0,0.0,0.0,0.0,0.0,0.0,0.0,0.0,0.0,0.0,0.0,0.0,0.0,0.0,0.0,0.0,0.0,0.0,0.0,0.0,0.0,0.0,0.0,0.0,0.0,1.0085,1.0416,1.1346,1.164,1.0835,1.2294,1.3033,1.232,1.3953,1.4257,1.2716,1.1773,1.0898,1.014,0.8915,0.8215,0.8215,0.8008,1.3876,2.5587,1.919,1.6066,1.6068,1.9436,2.0742,2.0385,2.1108,2.1586,2.1885,2.2328,2.2898,2.3508,2.366,2.3759,2.3831,2.3774,2.3816,2.3896,2.3795,2.3558,2.3286,2.3256,2.3298,2.3369,2.3369,2.3439,2.3494,2.3494,2.3539,2.3616,2.3678,2.3752,2.3807,2.3804,2.3795,2.3795,2.3795,2.3795,2.3795,2.3795,2.3337,2.2589,2.147,2.1709,2.1898,2.1417,2.1778,2.2091,2.2177,2.2236,2.2186,2.1971,2.1934,2.1534,2.0554,2.0453,2.0147,1.9436,1.8923,1.8675,1.8748,1.7937,1.7121,1.6316,1.5229,1.4254,1.3409,0.0,0.0,0.0,0.0,0.0,0.0,0.0,0.0,0.0,0.0,0.0,0.0,0.0,0.0,0.0,0.0,0.0,0.0,0.0,0.0,0.0,0.0,0.0,0.8185,0.9967,1.0874,1.0064,1.1527,1.2331,1.1655,1.237,1.3082,1.3637,1.3202,1.2681,1.2256,1.0835,0.9803,0.9381,0.8412,0.7901,0.7901,0.7901,1.3656,2.505,2.5492,2.4923,2.3471,2.3547,2.2875,2.1687,2.2062,2.2678,2.3421,2.2771,2.2898,2.3494,2.3494,2.3508,2.3522,2.3646,2.3692,2.3692,2.3701,2.3598,2.3494,2.3494,2.3494,2.3494,2.3494,2.3494,2.3494,2.3494,2.3539,2.3616,2.3678,2.3752,2.3807,2.3804,2.3795,2.3795,2.3795,2.3795,2.3795,2.3795,2.3795,2.3795,2.3816,2.3917,2.3996,2.4005,2.4125,0.0,2.4113,2.4275,2.4044,2.3133,2.3041,2.2405,2.0814,2.0604,2.023,1.9497,1.9451,1.9481,1.9555,1.8725,1.7896,1.7124,1.5477,1.5038,1.585,0.0,0.0,0.0,0.0,0.0,0.0,0.0,0.0,0.0,0.0,0.0,0.0,0.0,0.0,0.0,0.0,0.0,0.0,0.0,0.0,0.0,0.0,0.7756,0.828,0.9621,1.0293,0.9574,1.0218,1.0439,0.9665,1.0822,1.1478,1.1219,1.2255,1.2157,1.0438,1.0104,0.9499,0.8362,0.8055,0.7901,0.7901,0.7901,0.9543,1.2861,2.1559,2.472,2.2979,2.4338,2.4232,2.2966,2.2734,2.2685,2.2762,2.2583,2.2898,2.3494,2.3494,2.3558,2.3646,2.368,2.3692,2.368,2.3585,2.3522,2.3494,2.3494,2.3494,2.3494,2.3494,2.3494,2.3494,2.3494,2.3539,2.3616,2.3678,2.3752,2.3807,2.3804,2.3795,2.3795,2.3795,2.3795,2.3795,2.3795,2.3795,2.3816,2.3926,2.3946,2.3976,2.4122,2.4142,0.0,2.4094,2.4161,2.4099,2.3888,2.3879,2.3483,2.2556,2.1935,2.1232,2.0403,1.9267,1.8637,1.8664,1.7875,1.7325,1.7105,1.607,1.599,0.0,0.0,0.0,0.0,0.0,0.0,0.0,0.0,0.0,0.0,0.0,0.0,0.0,0.0,0.0,0.0,0.0,0.0,0.0,0.0,0.0,0.0,0.7305,0.7726,0.8003,0.8773,0.9159,0.8743,0.8892,0.8964,0.8725,0.94,0.9802,0.9762,1.0633,1.0679,0.9514,0.9291,0.8981,0.8477,0.862,0.8986,0.9596,1.1234,1.2496,1.3438,2.1745,2.5222,2.4382,2.5344,2.5287,0.0,2.3936,2.3458,2.3001,2.293,2.3146,0.0,0.0,0.0,0.0,0.0,2.362,2.3607,2.353,2.3494,2.3494,2.3494,2.3494,2.3494,2.3494,2.3494,2.3494,2.3494,2.3539,2.3585,2.3687,2.373,2.3765,2.3783,2.3795,2.3795,2.3795,2.3795,2.3795,2.3795,2.3795,0.0,2.3946,2.3926,2.3946,2.4094,2.4103,2.4113,2.4143,2.4162,2.42,2.4275,2.4303,2.4025,2.3256,2.2747,0.0,0.0,0.0,1.9513,1.8836,1.802,0.0,0.0,0.0,0.0,0.0,0.0,0.0,0.0,1.9001,1.9343,0.0,0.0,0.0,0.0,0.0,0.0,0.0,0.0,0.0,0.0,0.0,0.0,0.0,0.0,0.0,0.0,0.7026,0.7331,0.7309,0.7491,0.7626,0.7709,0.7652,0.7774,0.8306,0.8134,0.8293,0.8942,0.8939,0.8952,0.9151,0.0,0.0,0.0,0.0,1.0621,1.2091,1.5703,1.8684,2.0926,2.4043,2.5965,2.6747,2.639,2.6057,2.5727,2.5223,2.4503,2.3701,2.3558,2.3494,2.3494,2.3494,2.3494,2.3494,2.3494,2.3494,2.3494,2.3494,0.0,0.0,2.3494,2.3494,2.3494,2.3494,2.3494,2.3494,2.3494,2.3494,2.353,2.3665,2.37,2.3712,2.3774,2.3795,2.3795,2.3795,2.3795,2.3795,2.3795,2.3795,2.3816,2.3876,2.3887,2.3926,2.3996,2.4065,2.4124,2.4192,2.4257,2.4312,2.4385,0.0,0.0,2.3385,2.3175,2.2779,2.2079,2.1948,2.126,1.9842,1.9096,1.905,1.9768,1.9857,2.0714,2.2364,2.3159,2.3316,2.2852,2.0575,2.0773,0.0,0.0,0.0,0.0,0.0,0.0,0.0,0.0,0.0,0.0,0.0,0.0,0.0,0.0,0.0,0.62,0.635,0.6439,0.6313,0.5481,0.5383,0.6563,0.6743,0.675,0.6691,0.706,0.7433,0.7812,0.8718,0.9203,0.9067,0.9622,0.0,0.9429,1.0401,1.168,1.3238,1.5099,1.7669,2.0934,0.0,0.0,2.7788,2.6804,2.6241,2.5986,2.5355,2.4569,2.3701,2.3558,2.3494,2.3494,2.3494,2.3494,2.3494,2.3494,2.3494,2.3494,2.3494,2.3494,2.3494,2.3494,2.3494,2.3494,2.3494,2.3494,0.0,2.3494,2.3494,2.353,2.3665,2.37,2.3712,2.3774,2.3795,2.3795,2.3795,2.3795,2.3795,2.3795,2.3795,2.3795,2.3825,2.3867,2.3946,2.4065,2.4094,2.4124,2.4192,2.421,2.4247,2.4312,2.433,2.4247,2.4026,2.3391,2.2948,2.2802,2.2234,2.1791,2.1526,2.1374,2.1365,2.1513,2.1643,2.2265,2.3411,2.3684,2.4141,2.4764,2.4163,2.3927,0.0,0.0,0.0,0.0,0.0,0.0,0.0,0.0,0.0,0.0,0.0,0.3994,0.0,0.0,0.4764,0.4801,0.4832,0.4707,0.4419,0.3836,0.3895,0.5046,0.5431,0.5542,0.5542,0.6147,0.6748,0.7187,0.7987,0.8529,0.8775,0.9163,0.9918,1.1014,1.1535,1.2948,1.5547,1.7057,1.9142,2.1889,2.3922,2.5999,2.7979,2.7409,2.6969,2.659,2.5696,2.4799,2.393,2.381,2.3656,2.3517,2.3571,2.3558,2.3494,2.3494,2.3494,2.3494,2.3494,2.3494,2.3494,2.3494,2.3494,2.3494,2.3494,2.3494,2.3494,2.3494,2.3494,2.353,2.3665,2.37,2.3712,2.3774,2.3795,2.3795,2.3795,2.3795,2.3795,2.3795,2.3795,2.3795,2.3795,2.3825,2.3887,2.3987,2.4025,2.4075,2.4134,2.4182,2.421,2.4247,2.4284,2.4266,2.421,2.3833,2.3603,2.3649,2.2936,2.2534,2.2599,2.221,2.2191,2.259,2.2776,2.3319,2.4299,2.4436,2.4779,2.5293,2.5273,2.512,0.0,0.0,0.0,0.0,0.0,0.0,0.0,0.0,0.4505,0.4218,0.3656,0.3307,0.3666,0.3526,0.334,0.3279,0.3264,0.3106,0.2669,0.251,0.2789,0.3674,0.4171,0.4501,0.4718,0.5443,0.6166,0.682,0.73,0.7907,0.8705,0.8978,1.0105,1.2372,1.2805,1.4407,1.7383,1.9211,2.1046,2.2938,2.4767,2.6474,2.7958,2.7925,2.7782,2.7467,2.6117,2.5039,2.4192,2.4066,2.381,2.3558,2.3667,2.362,2.3494,2.3494,2.3494,2.3494,2.3494,2.3494,2.3494,2.3494,2.3624,2.3717,2.3717,2.3717,2.3717,2.3717,2.361,2.3539,2.3643,2.3678,2.3721,2.3792,2.3804,2.3795,2.3795,2.3795,2.3795,2.3795,2.3795,2.3795,2.3795,2.3795,2.3816,2.3896,2.3967,2.4016,2.4094,2.4162,2.4201,2.4201,2.4257,2.4257,2.4201,2.42,2.4228,2.4294,2.3685,2.3377,2.3444,2.2822,2.2785,2.3435,2.3646,2.412,2.4902,2.5024,2.5171,2.5293,2.537,2.5446,0.3775,0.4326,0.0,0.5085,0.4868,0.4758,0.0,0.0,0.4489,0.4082,0.3723,0.3315,0.282,0.2693,0.2539,0.2381,0.2334,0.234,0.2286,0.1787,0.1842,0.2894,0.3729,0.4233,0.4286,0.5119,0.5946,0.6588,0.7393,0.8246,0.9155,1.0757,1.1674,1.1874,1.4279,1.6052,1.7038,1.935,2.1503,2.3357,2.4812,2.645,2.8161,2.8037,2.8289,2.8685,2.6582,2.5121,2.4183,2.4067,2.3876,2.368,2.3692,2.362,2.3494,2.3494,2.3494,2.3494,2.3494,2.3494,2.3494,2.3494,2.3989,2.4569,2.4569,2.4569,2.4569,2.4569,2.4061,2.3517,2.3585,2.3674,2.3721,2.3786,2.3801,2.3795,2.3795,2.3795,2.3795,2.3795,2.3795,2.3795,2.3795,2.3795,2.3816,2.3896,2.3967,2.4016,2.4094,2.4161,2.4209,2.4209,2.4218,2.4209,2.4209,2.4199,2.4228,2.4294,2.4211,2.4219,2.436,2.4276,2.4267,2.4351,2.4498,2.468,2.4902,2.5024,2.5171,2.5293,2.5369,2.5444,-0.3787,0.0,0.0,0.0,0.3878,0.6018,0.5396,0.4496,0.3483,0.2696,0.1262,0.0108,-0.0162,-0.0492,-0.0609,0.0,-0.0222,-0.0167,0.0782,0.0559,0.0671,0.1732,0.2955,0.3843,0.4338,0.5281,0.6,0.6433,0.734,0.8413,0.9617,1.0915,1.2226,1.3654,1.5519,1.705,1.8226,2.107,2.3008,2.4004,2.6322,2.7932,2.8903,2.8838,2.8326,2.7401,2.5839,2.4804,2.4191,2.4275,2.4134,2.3867,2.3867,2.406,2.4239,2.37,2.3811,2.4204,2.4204,2.4489,2.4846,2.4846,2.5078,2.5345,2.5345,2.5203,2.4962,2.4589,2.4192,2.3813,2.3457,2.3535,2.373,2.3774,2.381,2.3804,2.381,2.3792,2.3804,2.381,2.3792,2.3795,2.3795,2.3795,2.3816,2.3846,2.3896,2.3946,2.3976,2.4045,2.4094,2.4142,2.418,2.4199,2.4199,2.4199,2.4219,2.4238,2.4284,2.433,2.4447,2.4482,2.45,2.45,2.4638,2.4764,2.4902,2.5024,2.5191,2.5361,2.5397,2.5415,-0.9233,0.0,0.0,-0.3058,-0.0242,0.2794,0.2844,0.1438,0.0299,0.0731,-0.1282,-0.3097,-0.3059,-0.3242,0.0,-0.2384,-0.2496,-0.2223,-0.0949,-0.0727,-0.0224,0.1063,0.2343,0.3564,0.4611,0.5445,0.6166,0.6704,0.7509,0.8594,0.9944,1.1114,1.2663,1.4723,1.6305,1.7833,1.9374,2.2281,2.4096,2.475,2.7379,2.8892,2.9375,2.935,2.8437,2.6815,2.5731,2.4931,2.4405,2.451,2.4348,2.4047,2.4007,2.4363,2.482,2.4089,2.4337,2.5006,2.5006,2.5354,2.58,2.58,2.5952,2.6131,2.6131,2.5967,2.5614,2.4813,2.4479,2.4152,2.3393,2.3412,2.3687,2.3752,2.3798,2.3801,2.3798,2.3801,2.3804,2.3798,2.3792,2.3795,2.3795,2.3795,2.3795,2.3795,2.3846,2.3876,2.3896,2.3967,2.4045,2.4094,2.417,2.4199,2.4199,2.4199,2.42,2.4192,2.4257,2.4339,2.4394,2.4456,2.45,2.45,2.4599,2.4719,2.4902,2.5,2.5169,2.5398,2.5396,2.5394,0.0,0.0,-0.7611,-0.8688,-0.8766,-0.7494,-0.331,-0.4845,-0.5992,-0.1794,-0.3303,-0.5318,-0.5138,-0.4595,-0.413,-0.413,-0.3754,-0.3268,-0.2725,-0.1949,-0.0723,0.1332,0.2283,0.3399,0.0,0.562,0.6332,0.7563,0.7995,0.8746,1.0042,1.1882,1.3239,1.3913,1.6568,1.8619,2.0041,2.2276,2.4109,2.5504,2.7342,2.8604,2.9308,2.9239,2.8779,2.7985,2.6918,2.5852,2.4872,2.4747,2.45,2.4173,2.4047,2.4363,2.4883,2.473,2.5131,2.5774,2.5774,2.5783,2.58,2.58,2.6327,2.6951,2.6951,2.696,2.673,2.5667,2.5038,2.4435,2.3371,2.336,2.3607,2.3687,2.3752,2.3807,2.3804,2.3795,2.3795,2.3795,2.3795,2.3795,2.3795,2.3795,2.3795,2.3795,2.3795,2.3825,2.3896,2.4025,2.4094,2.4094,2.417,2.4199,2.4199,2.4199,2.42,2.4192,2.4257,2.4339,2.4394,2.4456,2.45,2.45,2.449,2.4645,2.4902,2.4904,2.5072,2.5398,2.5404,2.5401,0.0,0.0,-1.1192,-1.2288,-1.0035,-0.7291,-0.6444,-0.7736,-0.8805,-0.7825,-0.8519,-0.9274,-0.9178,-0.8478,-0.7526,-0.6388,-0.6235,-0.5653,-0.3917,-0.3103,-0.1885,0.0276,0.1442,0.0,0.0,0.0,0.0,0.6912,0.7949,0.9275,1.1083,1.2637,1.4132,1.5612,1.7559,1.8885,1.9569,2.2305,2.4007,2.4741,2.731,2.9013,2.9882,2.9408,2.88,2.8043,2.7007,2.5964,2.4953,2.4766,2.4587,2.4366,2.4086,2.4744,2.5796,2.5524,2.6264,2.7326,2.6782,2.6951,2.7406,2.7406,2.7594,2.7808,2.7808,2.7644,2.7291,2.6451,2.5531,2.4697,2.4059,2.362,2.3389,2.3647,2.373,2.3752,2.3798,2.3798,2.3798,2.3798,2.3792,2.3795,2.3795,2.3795,2.3753,2.362,2.371,2.3816,2.3816,2.3765,2.3795,2.4016,2.3937,2.3967,2.417,2.4199,2.419,2.42,2.4257,2.4312,2.4339,2.4438,2.45,2.45,2.4532,2.4682,2.4902,2.499,2.5157,2.5397,2.5394,2.5709,0.0,-1.923,-1.6447,-1.7442,-1.5239,-1.2477,-1.12,-1.2446,-1.3317,-1.1378,-1.1606,-1.2064,-1.1674,-1.0382,-0.9178,-0.8694,-0.8247,-0.7435,-0.5875,-0.4886,-0.3415,-0.0828,0.0498,0.0,0.0,0.0,0.0,0.6534,0.804,0.9661,1.1348,1.2874,1.4456,1.6203,1.7835,1.8909,1.9426,2.2105,2.4091,2.5381,2.7629,2.9195,3.0068,2.9472,2.8774,2.7977,2.7075,2.6068,2.5058,2.4845,2.4858,2.4961,2.4624,2.5433,2.6736,2.6453,2.7129,2.8147,2.7611,2.7772,2.8191,2.8053,2.809,2.8191,2.8062,2.795,2.7697,2.6838,2.6137,2.5404,2.4383,2.3934,2.3712,2.3552,2.358,2.3687,2.3774,2.3804,2.3795,2.3798,2.3689,2.3649,2.3689,2.3615,2.3513,2.3371,2.3468,2.3593,2.3676,2.3584,2.3588,2.3795,2.364,2.3619,2.3867,2.3976,2.4025,2.4054,2.4219,2.4294,2.4294,2.4438,2.45,2.45,2.4541,2.4667,2.4865,2.5,2.5166,2.5369,2.5712,2.6162,-2.2527,-2.2712,-2.291,-2.3605,-2.3759,-2.2464,-1.7491,-1.8756,-1.9126,-1.2654,-1.2701,-1.3568,0.0,0.0,-0.9288,-1.0817,-0.9727,-0.8569,-0.8316,-0.7178,-0.5139,0.0,0.0,0.0,0.0,0.0,0.0,0.6458,0.0,0.9772,1.0895,1.2685,1.4269,1.5573,1.733,1.8666,1.9578,2.176,2.428,2.7268,2.8207,2.91,2.9874,2.9455,2.879,2.7926,2.7194,2.6266,2.5255,2.5049,2.5333,2.5869,2.5579,2.6344,2.7597,2.7375,2.7688,2.8209,2.8209,2.8191,2.8154,2.7827,2.7931,2.8126,2.7827,2.7931,2.7966,2.6947,2.6818,2.6499,2.4485,2.4295,2.4426,2.3492,2.3448,2.3629,2.3752,2.3774,2.3765,2.3783,2.3522,2.3341,2.3486,2.3277,2.3075,2.3075,2.3075,2.3182,2.3449,2.3459,2.3468,2.3468,2.3291,2.3221,2.3291,2.3544,2.3723,2.3795,2.4096,2.4294,2.4294,2.4438,2.45,2.45,2.45,2.4596,2.4799,2.4942,2.5103,2.5322,2.6253,2.6721,-2.2363,-2.2832,-2.3195,-2.333,-2.3271,-2.2851,-2.1458,-2.0832,-1.9866,-1.7421,-1.536,-1.3641,0.0,0.0,0.0,-1.0945,-1.0619,0.0,-0.9862,-0.792,0.0,0.0,0.0,-0.0279,0.1714,0.3452,0.0,0.0,0.8116,1.0154,1.1581,1.2883,1.4146,1.5391,1.6662,1.7705,1.8428,2.1405,2.4173,2.6733,2.7718,2.8726,2.9763,2.9987,2.9664,2.8899,2.8105,2.7191,2.6221,2.5964,2.5878,2.5935,2.6245,2.6933,2.7719,2.7405,2.779,2.8406,2.8264,2.8191,2.8191,2.809,2.7959,2.7864,2.8025,2.7959,2.7811,2.7813,2.7084,2.6295,2.6206,2.5068,2.4025,2.4322,2.3945,2.353,2.3504,2.3417,2.3403,2.3553,2.3508,2.3454,2.3495,2.3118,2.2799,2.2799,2.2799,2.2893,2.3173,2.3035,2.2984,2.3174,2.3056,2.3056,2.3268,2.3414,2.3566,2.3795,2.3978,2.4134,2.4284,2.4438,2.45,2.45,2.4558,2.4613,2.4729,2.4958,2.5126,2.5252,2.6244,2.7058,-2.3065,-2.3478,-2.3719,-2.3655,-2.3593,-2.3307,-2.2267,-2.0975,-1.9454,-1.7516,-1.4943,0.0,0.0,0.0,0.0,0.0,0.0,0.0,-1.1344,-0.9735,-0.8044,0.0,-0.4462,0.0,-0.063,0.1847,0.3822,0.0,0.7882,1.0064,1.1167,1.2998,1.4396,1.5175,1.6674,1.8226,1.9713,2.2219,2.4477,2.6502,2.7474,2.85,2.9635,3.0068,2.967,2.8618,0.0,2.7354,2.6136,2.6275,2.6409,2.6584,2.7196,2.7829,2.8336,2.806,2.818,2.8475,2.8255,2.8191,2.8191,2.8025,2.795,2.7893,2.7777,2.7844,2.7931,2.7959,2.7518,2.6865,2.6283,2.5384,2.4506,2.4001,2.367,2.3462,2.3333,2.3245,2.3164,2.304,2.3091,2.3093,2.296,2.2703,2.2533,2.2533,2.2533,2.2579,2.2747,2.2729,2.2773,2.29,2.2747,2.273,2.2925,2.308,2.3257,2.3468,2.3741,2.3958,2.4153,2.4294,2.4411,2.45,2.4541,2.4599,2.467,2.4869,2.5193,2.5655,2.6667,2.7614,-2.4054,-2.4238,-2.4266,-2.422,-2.4155,-2.3566,-2.1479,-2.0114,-1.8417,-1.5338,0.0,0.0,-1.0784,0.0,-0.9998,-1.1664,0.0,-1.2084,-1.2616,-1.1756,-1.0505,-0.8861,-0.6744,-0.4687,-0.2903,0.0057,0.2566,0.4219,0.738,0.9554,1.0327,1.2911,1.4578,1.5138,1.7033,1.9185,2.1562,2.31,2.4621,2.6155,2.7134,2.8221,2.9363,2.9743,2.9219,2.7978,0.0,0.0,2.5734,2.6394,2.6938,2.7432,2.8248,2.8809,2.9147,2.8878,2.8718,2.8552,2.8291,2.8218,2.8173,2.7856,2.7922,2.8034,2.743,2.7651,2.7996,2.771,2.7836,2.7649,2.5836,2.5524,2.5251,2.3493,2.3267,2.3383,2.3182,2.3149,2.3009,2.2476,2.2519,2.257,2.2302,2.2282,2.2282,2.231,2.231,2.231,2.231,2.2506,2.2641,2.2641,2.2441,2.2358,2.2487,2.2712,2.2935,2.3086,2.3436,2.3744,2.3946,2.4115,2.4275,2.4456,2.4482,2.4524,2.4582,2.4727,2.5201,2.6029,2.7169,2.8095,-2.4201,-2.4218,-2.4228,-2.4275,-2.3704,-2.2868,-2.1797,-1.9762,0.0,0.0,0.0,-1.0726,-0.9614,-0.9933,0.0,-1.1448,0.0,0.0,0.0,0.0,-1.132,0.0,0.0,0.0,0.0,0.0,0.0,0.0,0.0,0.8133,1.0231,1.161,1.3588,1.6201,1.7234,1.8491,1.9986,2.1367,2.2799,2.4303,2.577,2.7221,2.8602,2.8886,2.8998,2.8886,0.0,0.0,2.67,2.7317,2.7603,2.7742,2.8936,2.9439,2.9455,2.8975,2.8887,2.8929,2.8389,2.8309,2.8397,2.82,2.7959,2.7769,2.7642,2.7491,2.7369,2.7307,2.7338,2.7339,2.725,2.6161,2.5049,2.4952,2.4015,2.3111,2.2902,2.291,2.2833,2.2404,2.2376,2.2483,2.2526,2.2349,2.2234,2.2282,2.231,2.231,2.231,2.2338,2.2358,2.2358,2.2394,2.2405,2.2479,2.2579,2.2782,2.3086,2.3265,2.3491,2.3744,2.4039,2.422,2.4257,2.442,2.45,2.4517,2.4654,2.4793,2.5001,2.6793,2.7698,-2.4591,-2.4536,-2.4519,-2.4591,-2.3878,-2.2611,-2.0564,0.0,0.0,0.0,0.0,-0.963,-0.8873,0.0,0.0,0.0,0.0,0.0,0.0,0.0,0.0,0.0,0.0,0.0,0.0,0.0,0.0,0.0,0.0,0.6597,0.8941,1.1115,1.3343,1.5749,1.7134,1.8287,1.9246,2.0971,2.2399,2.3618,2.5257,2.6588,2.7586,2.8284,2.8316,2.7813,2.7105,0.0,2.6312,2.7444,2.7822,2.7842,2.921,2.9689,2.9542,2.8989,2.8863,2.8863,2.838,2.8255,2.8327,2.8282,2.8127,2.7961,2.7751,2.7603,2.7452,2.7276,2.7013,2.6726,2.6356,2.5528,2.4664,2.4112,2.3293,2.266,2.2738,2.2677,2.2589,2.2392,2.24,2.2428,2.2309,2.2248,2.2205,2.2225,2.2282,2.231,2.231,2.231,2.231,2.231,2.2338,2.2394,2.2432,2.2515,2.2641,2.2842,2.3001,2.3209,2.3468,2.3717,2.3941,2.4192,2.4293,2.4393,2.45,2.4596,2.4864,2.5304,2.6777,2.769,-2.4892,-2.4851,-2.4823,-2.4888,-2.4025,-2.236,-1.9318,-1.7054,0.0,0.0,0.0,-0.8842,-0.8506,0.0,0.0,0.0,0.0,0.0,0.0,0.0,0.0,0.0,0.0,0.0,0.0,0.0,0.0,0.0,0.0,0.0,0.8192,1.1044,1.3375,1.5148,1.7025,1.8211,1.8668,2.0712,2.215,2.2989,2.4579,2.5737,2.6507,2.7379,2.7324,2.6564,2.6527,0.0,0.0,2.7153,2.7647,2.7641,2.9136,2.9585,2.9354,2.904,2.8883,2.8815,2.8406,2.8255,2.8255,2.83,2.83,2.8237,2.7847,2.776,2.7692,2.7244,2.6784,2.6214,2.5345,2.4829,2.4185,2.299,2.2492,2.2366,2.2545,2.2517,2.2417,2.2307,2.2371,2.2343,2.2027,2.2069,2.214,2.2177,2.2217,2.2245,2.2209,2.2245,2.2254,2.2209,2.2254,2.2338,2.2377,2.246,2.2533,2.2587,2.279,2.301,2.3248,2.3401,2.3705,2.4154,2.4192,2.4303,2.45,2.4549,2.4916,2.5559,2.6747,2.7657,-2.4906,-2.4902,-2.4892,-2.4902,-2.3636,-2.1755,-1.9259,0.0,0.0,0.0,-0.9833,-0.8986,-0.8644,0.0,0.0,0.0,0.0,0.0,0.0,0.0,0.0,0.0,0.0,0.0,0.0,0.0,0.0,0.0,0.0,0.0,0.9477,1.152,1.3483,1.5423,1.7128,1.798,1.7998,1.9991,2.1163,2.1513,2.2879,2.4216,2.5445,2.5671,2.6004,2.6395,2.5791,0.0,0.0,2.6555,2.6903,2.7031,2.8508,2.893,2.8735,2.9129,2.9191,2.9021,2.8619,2.8475,2.8449,2.8353,2.83,2.8246,2.7904,2.7789,2.7654,2.6939,2.6433,2.61,2.5954,2.4887,2.3673,2.2902,2.2669,2.2581,2.2311,2.2465,2.2509,2.1957,2.2056,2.2153,2.1949,2.1928,2.2003,2.2168,2.2098,2.1978,2.1848,2.2065,2.2111,2.1886,2.2115,2.2338,2.2377,2.246,2.2533,2.2587,2.279,2.2961,2.3102,2.3359,2.3662,2.4007,2.4144,2.4303,2.45,2.4517,2.4579,2.4755,2.6427,2.7271,-2.429,-2.471,-2.5034,-2.5122,-2.3738,-2.1592,-1.8697,0.0,0.0,-1.0711,-0.9598,-0.9104,-0.8724,-0.8589,0.0,0.0,0.0,0.0,0.0,0.0,0.0,0.0,0.0,0.0,0.0,0.0,0.0,0.0,0.0,0.0,0.8558,1.0453,1.2025,1.3099,1.5232,1.6575,1.6988,1.8807,2.0048,2.0775,2.2333,2.3315,2.3827,2.4983,2.5445,2.5381,2.5389,0.0,0.0,2.7021,2.7584,2.7731,2.9159,2.9656,2.9545,2.9373,2.9279,2.916,2.8676,2.8211,2.7895,2.8253,2.8047,2.7768,2.8058,2.8017,2.7694,2.6882,2.6153,2.5495,2.5033,2.4155,2.3293,2.3022,2.266,2.2429,2.2492,2.2456,2.232,2.2104,2.2124,2.2116,2.189,2.1861,2.1928,2.2011,2.2077,2.2115,2.2036,2.216,2.2225,2.2115,2.2217,2.231,2.2338,2.2432,2.2515,2.2533,2.2685,2.2833,2.2961,2.3157,2.3436,2.3867,2.4018,2.421,2.45,2.45,2.4507,2.4579,2.6333,2.7161,-2.3805,-2.4438,-2.4816,-2.4907,-2.35,-2.1257,0.0,0.0,-1.3637,-1.0312,-0.9453,-0.917,-0.8754,-0.8418,-0.842,0.0,0.0,0.0,0.0,0.0,0.0,0.0,0.0,0.0,0.0,0.0,0.0,0.0,0.0,0.0,0.0,0.9363,1.0657,1.1462,1.3948,1.5516,1.5929,1.7911,1.931,2.0131,2.1687,2.2485,2.2683,2.4295,2.4866,2.4644,0.0,0.0,0.0,2.6825,2.7343,2.7478,2.8711,2.9149,2.9056,2.8894,2.8877,2.8849,2.8215,2.7716,2.7414,2.7698,2.7403,2.7033,2.7585,2.7906,2.784,2.6859,2.5815,2.4777,2.3964,2.343,2.3086,2.3003,2.266,2.2402,2.2519,2.2429,2.2292,2.2124,2.2144,2.2116,2.1869,2.1869,2.1928,2.1974,2.2086,2.2131,2.2103,2.2197,2.2254,2.2152,2.2245,2.231,2.231,2.2432,2.2515,2.2515,2.2641,2.2764,2.2885,2.2986,2.3277,2.3795,2.3887,2.4134,2.45,2.45,2.4517,2.4562,2.6308,2.7389,-2.3645,-2.4104,-2.4091,-2.4034,-2.27,-2.0536,0.0,-1.5065,-1.3029,-1.0268,-0.9481,-0.9153,-0.8686,-0.8382,-0.8305,-0.8656,0.0,0.0,0.0,0.0,0.0,0.0,0.0,0.0,0.0,0.0,0.0,0.0,0.0,0.0,0.0,0.8445,0.9692,1.1166,1.385,1.52,1.4902,1.7552,1.9051,1.9419,2.0701,2.164,2.2248,2.3385,2.4098,0.0,0.0,0.0,0.0,2.5526,2.5571,2.5707,2.652,2.6668,2.6532,2.7395,2.7884,2.7995,2.7111,2.7037,2.719,2.6549,2.6184,2.6033,2.6175,2.7231,2.8147,2.695,2.5437,2.399,2.2989,2.2902,2.3028,2.2782,2.2695,2.2599,2.2284,2.2456,2.2536,2.1928,2.2019,2.2144,2.194,2.189,2.1966,2.2168,2.2098,2.194,2.1819,2.2036,2.2111,2.1827,2.2115,2.231,2.231,2.2432,2.2515,2.2515,2.2641,2.2764,2.2885,2.2885,2.3206,2.3795,2.3795,2.4028,2.45,2.45,2.4524,2.4636,2.6316,2.806,-1.9556,-2.0266,-2.0534,-1.9919,-1.9349,-1.8206,-1.54,-1.4333,-1.3157,-1.0406,-0.9697,-0.9421,-0.8894,-0.8514,-0.8821,-1.0487,-1.0719,0.0,0.0,0.0,0.0,0.0,0.0,0.0,0.0,0.0,0.0,0.0,0.0,0.0,0.0,0.7862,0.9318,1.1011,1.2347,1.3793,1.5316,1.6248,1.7558,1.9207,2.0153,2.095,2.1624,2.2911,0.0,0.0,0.0,0.0,0.0,2.6116,2.6425,2.6571,2.7372,2.7661,2.764,2.7682,2.7752,2.7732,2.7095,2.6646,2.6349,2.6319,2.5954,2.5612,2.6055,2.6471,2.6568,2.5581,2.4537,2.3646,2.3342,2.3184,2.3086,2.3003,2.2833,2.2607,2.2275,2.2284,2.2237,2.1869,2.1869,2.192,2.184,2.184,2.1848,2.1924,2.1936,2.194,2.1949,2.2086,2.2177,2.2152,2.2245,2.231,2.231,2.2386,2.2432,2.2432,2.2569,2.2659,2.2685,2.291,2.3173,2.3446,2.364,2.3919,2.4293,2.4293,2.494,2.6181,2.6712,2.7876,0.0,-1.7762,-1.799,-1.7486,-1.7097,-1.6276,-1.4047,-1.3293,-1.2457,-1.0368,-0.9506,-0.901,-0.8597,-0.813,-0.8221,-0.9494,-1.0102,0.0,0.0,0.0,0.0,0.0,0.0,0.0,0.0,0.0,0.0,0.0,0.0,0.0,0.0,0.7058,0.8314,1.0246,1.1436,1.2959,1.4931,1.5448,1.6612,1.8447,1.9279,2.0125,2.0958,2.2184,0.0,0.0,0.0,0.0,0.0,2.5893,2.6213,2.6353,2.6929,2.718,2.7193,2.6927,2.7005,2.714,2.6407,2.6022,2.5822,2.5608,2.5219,2.491,2.5176,2.542,2.547,2.4861,2.4132,2.3471,2.3369,2.316,2.2944,2.2944,2.2712,2.2492,2.2402,2.2284,2.2144,2.199,2.1869,2.1819,2.184,2.184,2.1848,2.1869,2.192,2.194,2.199,2.2115,2.2214,2.2262,2.2282,2.231,2.231,2.2386,2.2432,2.2432,2.256,2.2632,2.2632,2.2833,2.3051,2.3221,2.3491,2.3934,2.4585,2.5004,2.5958,2.7362,2.7362,2.8136,0.0,-1.6151,-1.6155,-1.6155,-1.5589,-1.4609,-1.2992,-1.2037,0.0,-1.0207,-0.9116,-0.8265,-0.8027,-0.7535,-0.7073,-0.6812,-0.8135,0.0,0.0,0.0,0.0,0.0,0.0,0.0,0.0,0.0,0.0,0.0,0.0,0.0,0.0,0.6143,0.6993,0.9068,1.0826,1.2503,1.395,1.4998,1.6071,1.7216,1.8145,1.914,2.0219,2.1271,0.0,0.0,0.0,0.0,0.0,2.501,2.5188,2.5314,2.5517,2.5601,2.559,2.5455,2.5851,2.6283,2.5278,2.5286,2.5611,2.4623,2.4229,2.4069,2.3789,2.4244,2.4815,2.4662,2.4088,2.3439,2.3184,2.2918,2.2721,2.2695,2.2456,2.2311,2.2581,2.2411,2.2192,2.2192,2.199,2.1819,2.192,2.192,2.192,2.199,2.199,2.1998,2.2027,2.2115,2.2214,2.2214,2.2254,2.231,2.231,2.2405,2.2487,2.2487,2.2614,2.2685,2.2712,2.2729,2.2875,2.3117,2.3468,2.416,2.5221,2.6346,2.7316,2.8095,2.8095,2.8669,-1.1572,0.0,-1.2583,-1.1877,-1.2087,-1.2177,0.0,-1.1173,-1.1227,0.0,0.0,0.0,-0.8928,-0.8748,-0.9044,0.0,0.0,0.0,0.0,0.0,0.0,0.0,0.0,0.0,0.0,0.0,0.0,0.0,0.0,0.0,0.0,0.5932,0.6897,0.8435,0.9065,1.0519,1.2835,1.3285,1.4471,1.6451,1.7122,1.7998,1.9119,2.0663,0.0,0.0,0.0,0.0,2.4448,2.4905,2.5149,2.525,2.5497,2.5632,2.5673,2.5577,2.5663,2.5746,2.5349,2.5271,2.5238,2.4596,2.4364,2.4265,2.3948,2.4021,2.4154,2.3853,2.3659,2.3494,2.3415,2.3208,2.2944,2.2756,2.2642,2.2473,2.2084,2.2096,2.2192,2.2192,2.199,2.1869,2.2096,2.1969,2.1848,2.1911,2.1911,2.1995,2.2115,2.2168,2.2205,2.2254,2.2282,2.231,2.231,2.2338,2.2338,2.2338,2.2479,2.2632,2.2833,2.3052,2.3253,2.3468,2.4457,2.5093,2.5358,2.6394,2.7316,2.8095,2.8095,2.8621,-1.03,-1.1228,-1.2068,-1.1571,-1.1803,-1.2026,-1.1552,0.0,0.0,0.0,0.0,0.0,0.0,0.0,0.0,0.0,0.0,0.0,0.0,0.0,0.0,0.0,0.0,0.0,0.0,0.0,0.0,0.0,0.0,0.0,0.0,0.5338,0.6199,0.7871,0.8184,0.9647,1.2445,1.2478,1.3554,1.5684,1.6071,1.6931,1.8177,1.9481,2.0647,0.0,0.0,0.0,2.4063,2.4464,2.4793,2.504,2.5284,2.549,2.5645,2.5537,2.5574,2.5608,2.5377,2.5176,2.4968,2.4684,2.4489,2.4355,2.4116,2.4027,2.3946,2.3673,2.3558,2.3462,2.3336,2.3217,2.2994,2.2572,2.2465,2.2375,2.2047,2.199,2.2039,2.2172,2.199,2.1869,2.2019,2.194,2.1869,2.1949,2.1949,2.1986,2.2098,2.216,2.2205,2.2262,2.2282,2.231,2.231,2.231,2.2338,2.2386,2.2506,2.2703,2.2969,2.3003,2.3182,2.3491,2.5023,2.5885,2.6045,2.7366,2.8233,2.871,2.871,2.8983,-1.0605,-1.1953,-1.3191,-1.2791,-1.2837,-1.2982,-1.29,0.0,0.0,0.0,0.0,0.0,0.0,0.0,0.0,0.0,0.0,0.0,0.0,0.0,0.0,0.0,0.0,0.0,0.0,0.0,0.0,0.0,0.0,0.0,0.0,0.4684,0.5391,0.7354,0.7649,0.9172,1.2006,1.1931,1.2845,1.467,1.5011,1.5855,1.7203,1.8152,1.9506,0.0,0.0,0.0,2.3539,2.3929,2.4355,2.478,2.5008,2.5291,2.5539,2.5465,2.5542,2.5644,2.5399,2.5131,2.4875,2.4818,2.4678,2.4474,2.4275,2.4135,2.3998,2.3756,2.3598,2.3439,2.3217,2.3135,2.2969,2.2456,2.2311,2.2284,2.2237,2.2056,2.1957,2.2209,2.2027,2.1869,2.1978,2.1969,2.1998,2.2036,2.2064,2.2076,2.2056,2.2135,2.2234,2.2254,2.2338,2.2358,2.2358,2.2358,2.2413,2.2479,2.2614,2.2816,2.3086,2.2902,2.2993,2.3423,2.5303,2.6454,2.6766,2.8463,2.9335,2.9407,2.9407,2.9429,-1.2034,-1.3692,-1.4477,-1.2271,-1.2821,-1.3711,-1.2975,0.0,0.0,0.0,0.0,0.0,0.0,0.0,0.0,0.0,0.0,0.0,0.0,0.0,0.0,0.0,0.0,0.0,0.0,0.0,0.0,0.0,0.0,0.0,0.0,0.4631,0.5338,0.6851,0.7227,0.8178,0.9858,1.0889,1.1877,1.2802,1.3548,1.4527,1.5772,1.7377,1.8484,0.0,0.0,2.2356,2.2693,2.3694,2.429,2.4573,2.4951,2.5197,2.5355,2.5512,2.5593,2.5586,2.5438,2.5354,2.5255,2.4914,2.4892,2.4898,2.4426,2.422,2.4118,2.386,2.3651,2.3494,2.3439,2.3265,2.3086,2.2969,2.2799,2.2589,2.2417,2.2335,2.2343,2.2434,2.2186,2.2064,2.236,2.2364,2.2292,2.218,2.2371,2.2445,2.2293,2.2274,2.2358,2.2614,2.2641,2.2632,2.2632,2.2685,2.2659,2.2515,2.2506,2.2712,2.3086,2.3218,2.3355,2.3468,2.5335,2.637,2.6545,2.8393,2.9335,2.9407,2.9407,2.9429,-1.124,-1.2699,-1.3804,-1.3001,-1.4111,-1.5423,-1.5527,0.0,0.0,0.0,0.0,0.0,0.0,0.0,0.0,0.0,0.0,0.0,0.0,0.0,0.0,0.0,0.0,0.0,0.0,0.0,0.0,0.0,0.0,0.0,0.0,0.0,0.5228,0.6637,0.702,0.7613,0.8461,0.9766,1.0927,1.1994,1.3077,1.3998,1.4801,1.6437,1.7584,1.8399,0.0,2.1264,2.2248,2.2896,2.3566,2.4227,2.4618,2.4954,2.5224,2.5541,2.5633,2.5594,2.5526,2.546,2.5354,2.5099,2.4987,2.4892,2.4639,2.4408,2.4174,2.401,2.3795,2.3562,2.3351,2.338,2.3376,2.2975,2.2968,2.2943,2.2695,2.2501,2.2411,2.2446,2.2189,2.2064,2.2302,2.2417,2.25,2.247,2.2579,2.2624,2.2533,2.2386,2.2338,2.246,2.2605,2.2712,2.2712,2.285,2.2841,2.2587,2.2703,2.2919,2.3086,2.3459,2.3891,2.4368,2.578,2.6801,2.7382,2.8667,2.9335,2.9407,2.9407,2.9418,-1.0776,-1.1815,-1.3013,-1.3966,0.0,-1.6301,-1.7786,0.0,0.0,0.0,0.0,0.0,0.0,0.0,0.0,0.0,0.0,0.0,0.0,0.0,0.0,0.0,0.0,0.0,0.0,0.0,0.0,0.0,0.0,0.0,0.0,0.0,0.5064,0.6261,0.681,0.7297,0.767,0.8935,1.0111,1.1266,1.2487,1.3379,1.4113,1.5469,1.6732,1.786,1.8912,2.0309,2.1811,2.224,2.2976,2.39,2.4334,2.4768,2.5195,2.5532,2.564,2.5625,2.5613,2.5527,2.5427,2.5284,2.5099,2.4898,2.4823,2.4572,2.4292,2.4174,2.3981,2.3723,2.3286,2.3385,2.3477,2.3038,2.3056,2.3146,2.3047,2.284,2.2634,2.2421,2.2265,2.2215,2.2225,2.2535,2.2782,2.2712,2.2808,2.285,2.2799,2.2597,2.2525,2.258,2.2756,2.2884,2.2867,2.3023,2.3014,2.2756,2.2985,2.3157,2.3157,2.3571,2.4166,2.4998,2.6066,2.7078,2.8017,2.8882,2.9335,2.9407,2.9407,2.9407,-1.2196,-1.2659,-1.3087,-1.4698,0.0,0.0,-1.8116,0.0,0.0,0.0,0.0,0.0,0.0,0.0,0.0,0.0,0.0,0.0,0.0,0.0,0.0,0.0,0.0,0.0,0.0,0.0,0.0,0.0,0.0,0.0,0.0,0.0,0.0,0.5389,0.648,0.7249,0.7518,0.8781,0.9714,1.0316,1.1011,1.215,1.3663,1.4614,1.5787,1.7246,1.8754,2.0054,2.1236,2.205,2.2917,2.3768,2.4291,2.4816,2.5308,2.5456,2.5593,2.5684,2.5625,2.559,2.5559,2.5427,2.5329,2.5206,2.4898,2.4738,2.4606,2.4369,2.4229,2.4057,2.358,2.3221,2.3089,2.3517,2.3233,2.2981,2.3508,2.3625,2.3357,2.247,2.2526,2.2659,2.2358,2.2918,2.3262,2.2782,2.3118,2.3348,2.31,2.3051,2.3131,2.3387,2.3423,2.3432,2.3346,2.3245,2.3165,2.315,2.323,2.3323,2.3378,2.3423,2.3826,2.4707,2.5778,2.6785,2.7719,2.879,2.9335,2.9407,2.9407,2.9407,-1.1075,-1.1958,-1.2959,-1.4059,0.0,0.0,0.0,0.0,0.0,0.0,0.0,0.0,0.0,0.0,0.0,0.0,0.0,0.0,0.0,0.0,0.0,0.0,0.0,0.0,0.0,0.0,0.0,0.0,0.0,0.0,0.0,0.0,0.0,0.5177,0.6428,0.7028,0.6915,0.8249,0.9197,0.9814,1.0665,1.1819,1.319,1.4106,1.5134,1.6262,1.7626,1.8754,1.9767,2.0932,2.1897,2.2758,2.4017,2.4733,2.5075,2.5299,2.5486,2.5634,2.561,2.5627,2.5632,2.5463,2.5379,2.5319,2.5111,2.4975,2.4842,2.461,2.4403,2.4183,2.389,2.3732,2.3673,2.3691,2.3558,2.3401,2.3339,2.3553,2.3655,2.3312,2.3107,2.2968,2.2943,2.296,2.3044,2.319,2.3253,2.3292,2.3227,2.3164,2.314,2.3242,2.3286,2.3446,2.3744,2.3723,2.3735,2.3825,2.3535,2.3423,2.3593,2.3628,2.4384,2.5987,2.6445,2.7359,2.8759,2.9156,2.9386,2.9407,2.9407,2.9407,-1.0682,-1.1654,-1.2858,0.0,0.0,0.0,0.0,0.0,0.0,0.0,0.0,0.0,0.0,0.0,0.0,0.0,0.0,0.0,0.0,0.0,0.0,0.0,0.0,0.0,0.0,0.0,0.0,0.0,0.0,0.0,0.0,0.0,0.0,0.0,0.6428,0.7023,0.6696,0.7931,0.8939,0.9666,1.0167,1.1187,1.2573,1.3558,1.4505,1.5419,1.6756,1.7887,1.889,2.0146,2.1365,2.2599,2.3913,2.4595,2.4869,2.5139,2.5383,2.5568,2.5593,2.5633,2.5653,2.5531,2.5483,2.5447,2.5303,2.5203,2.5082,2.4875,2.465,2.4448,2.4345,2.4106,2.388,2.3756,2.3771,2.3701,2.3391,2.3513,2.3719,2.3795,2.3549,2.3344,2.3441,2.3227,2.3109,2.3286,2.3371,2.3422,2.345,2.3391,2.3344,2.3376,2.3464,2.3662,2.4025,2.4065,2.4094,2.419,2.3867,2.3701,2.3843,2.3905,2.4597,2.6012,2.6747,2.7732,2.8998,2.9277,2.9407,2.9407,2.9407,2.9409,-1.1496,-1.2035,0.0,0.0,0.0,0.0,0.0,0.0,0.0,0.0,0.0,0.0,0.0,0.0,0.0,0.0,0.0,0.0,0.0,0.0,0.0,0.0,0.0,0.0,0.0,0.0,0.0,0.0,0.0,0.0,0.0,0.0,0.0,0.0,0.6532,0.7179,0.6907,0.788,0.889,0.9814,0.9413,1.0083,1.1719,1.2956,1.3954,1.4869,1.6342,1.7673,1.8845,1.9882,2.1573,2.3557,2.409,2.4456,2.4732,2.5003,2.5274,2.5515,2.5566,2.5605,2.5605,2.5684,2.5652,2.5579,2.5443,2.5405,2.5354,2.5163,2.4952,2.4837,2.4977,2.4265,2.3558,2.3753,2.3795,2.3795,2.3795,2.3629,2.3558,2.3762,2.3795,2.3795,2.3795,2.3795,2.3593,2.3003,2.3422,2.3795,2.3795,2.3795,2.3846,2.3996,2.4122,2.4199,2.4199,2.4199,2.4199,2.4199,2.4199,2.4199,2.4199,2.4199,2.4266,2.4394,2.6495,2.7766,2.8104,2.8989,2.9407,2.9407,2.9407,2.9471,-1.0534,0.0,0.0,0.0,0.0,0.0,0.0,0.0,0.0,0.0,0.0,0.0,0.0,0.0,0.0,0.0,0.0,0.0,0.0,0.0,0.0,0.0,0.0,0.0,0.0,0.0,0.0,0.0,0.0,0.0,0.0,0.0,0.0,0.0,0.6532,0.7179,0.6907,0.788,0.8788,0.9514,0.9312,1.0083,1.1719,1.2956,1.3788,1.4402,1.6058,1.7063,1.7693,1.9629,2.1541,2.3265,2.3773,2.4164,2.452,2.4785,2.5093,2.5356,2.5379,2.5508,2.5674,2.5644,2.5649,2.5654,2.5571,2.547,2.5389,2.5329,2.5195,2.5068,2.5008,2.4783,2.4433,2.393,2.3795,2.3795,2.3795,2.3762,2.3728,2.3795,2.3795,2.3795,2.3795,2.3795,2.3753,2.3549,2.3553,2.3712,2.4034,2.3926,2.3896,2.4122,2.4294,2.4412,2.4412,2.4284,2.4266,2.4394,2.4284,2.4199,2.4199,2.4199,2.4247,2.4339,2.5782,2.736,2.9026,2.9277,2.9407,2.9407,2.9407,2.9471,-1.1415,0.0,0.0,0.0,0.0,0.0,0.0,0.0,0.0,0.0,0.0,0.0,0.0,0.0,0.0,0.0,0.0,0.0,0.0,0.0,0.0,0.0,0.0,0.0,0.0,0.0,0.0,0.0,0.0,0.0,0.0,0.0,0.0,0.0,0.6701,0.7238,0.6966,0.82,0.9047,0.9462,0.9562,1.0375,1.1846,1.2946,1.3747,1.4337,1.6039,1.7168,1.791,1.9733,2.1482,2.3035,2.3441,2.3897,2.434,2.45,2.4828,2.5188,2.5276,2.5407,2.5554,2.5623,2.5674,2.5693,2.565,2.5554,2.5464,2.5444,2.5386,2.5293,2.5219,2.5098,2.4875,2.4389,2.4031,2.3795,2.3795,2.4059,2.4183,2.3869,2.3795,2.3795,2.3795,2.3795,2.3795,2.3795,2.3694,2.3725,2.3996,2.3996,2.4016,2.417,2.4376,2.4599,2.4799,2.4504,2.4376,2.45,2.4394,2.4321,2.4321,2.4247,2.4266,2.4375,2.6451,2.7951,2.8808,2.9226,2.9481,2.9559,2.9502,2.9598,0.0,0.0,0.0,0.0,0.0,0.0,0.0,0.0,0.0,0.0,0.0,0.0,0.0,0.0,0.0,0.0,0.0,0.0,0.0,0.0,0.0,0.0,0.0,0.0,0.0,0.0,0.0,0.0,0.0,0.0,0.0,0.0,0.0,0.585,0.6871,0.7354,0.7136,0.862,0.9465,0.0,1.0012,1.0864,1.2115,1.2936,1.3794,1.4732,1.6238,1.7639,1.8907,2.0014,2.1319,2.2695,2.3093,2.3626,2.4155,2.4163,2.4504,2.5,2.5178,2.5266,2.5326,2.5583,2.5673,2.5693,2.5693,2.5654,2.5602,2.5539,2.5515,2.5501,2.5501,2.5262,2.504,2.501,2.4441,2.389,2.3816,2.4424,2.4783,2.4059,2.3921,2.3901,2.3807,2.3795,2.3795,2.3795,2.3795,2.3795,2.3795,2.4016,2.417,2.4199,2.442,2.4755,2.5263,2.4813,2.45,2.45,2.45,2.45,2.45,2.4321,2.4303,2.45,2.7949,2.9194,2.8124,2.9074,2.9645,2.9816,2.9689,2.9789,0.0,0.0,0.0,0.0,0.0,0.0,0.0,0.0,0.0,0.0,0.0,0.0,0.0,0.0,0.0,0.0,0.0,0.0,0.0,0.0,0.0,0.0,0.0,0.0,0.0,0.0,0.0,0.0,0.0,0.0,0.0,0.0,0.0,0.595,0.6645,0.7182,0.7563,0.8679,0.9465,0.0,1.0115,1.1116,1.2812,1.3137,1.416,1.5712,1.6618,1.7369,1.8121,1.9516,2.0735,2.1769,2.2486,2.3212,2.3883,2.3886,2.4263,2.4761,2.4808,2.5004,2.5228,2.5294,2.5453,2.5615,2.5615,2.5654,2.5683,2.5657,2.5586,2.5501,2.5501,2.5451,2.5322,2.5057,2.4875,2.4575,2.395,2.4424,2.495,2.4783,2.4837,2.4653,2.3941,2.3795,2.3795,2.3795,2.3795,2.3795,2.3795,2.3846,2.3976,2.417,2.4713,2.5115,2.5293,2.4813,2.45,2.45,2.45,2.45,2.45,2.4465,2.4465,2.45,2.8034,2.9823,2.9779,2.9855,2.9895,2.9874,2.9903,2.9985,0.0,0.0,0.0,0.0,0.0,0.0,0.0,0.0,0.0,0.0,0.0,0.0,0.0,0.0,0.0,0.0,0.0,0.0,0.0,0.0,0.0,0.0,0.0,0.0,0.0,0.0,0.0,0.0,0.0,0.0,0.0,0.557,0.5677,0.5668,0.6369,0.7069,0.7709,0.8879,0.9718,1.0182,1.0732,1.1769,1.3288,1.3977,1.4858,1.5938,1.6631,1.7361,1.8092,1.9038,2.0226,2.1469,2.1786,2.2557,2.3482,2.3644,2.3937,2.4316,2.4601,2.4816,2.4983,2.5149,2.5286,2.5433,2.5517,2.5618,2.5701,2.5701,2.5648,2.5593,2.5593,2.5547,2.5459,2.5282,2.5122,2.4884,2.4467,2.4704,2.5014,2.5079,2.5154,2.5019,2.4474,2.4422,2.4446,2.438,2.4372,2.4372,2.4372,2.4439,2.4498,2.4564,2.4949,2.5214,2.525,2.5038,2.4879,2.4879,2.4879,2.4879,2.4879,2.4945,2.4902,2.4736,2.814,3.0025,3.0302,3.027,3.0203,3.0136,3.018,3.0244,0.0,0.0,0.0,0.0,0.0,0.0,0.0,0.0,0.0,0.0,0.0,0.0,0.0,0.0,0.0,0.0,0.0,0.0,0.0,0.0,0.0,0.0,0.0,0.0,0.0,0.0,0.0,0.0,0.0,0.0,0.5452,0.546,0.542,0.5336,0.6046,0.6851,0.7809,0.9072,0.9925,1.0399,1.1405,1.2433,1.3479,1.4542,1.5328,1.5832,1.6558,1.7353,1.814,1.8603,1.974,2.1199,2.1152,2.1883,2.3045,2.3314,2.3583,2.3866,2.4377,2.4626,2.4752,2.5046,2.5168,2.5253,2.5418,2.5542,2.5636,2.5664,2.5681,2.5703,2.5703,2.5621,2.5526,2.5531,2.5327,2.5111,2.5091,2.5095,2.5107,2.5189,2.5203,2.5193,2.513,2.516,2.5166,2.5053,2.5027,2.5027,2.5027,2.5117,2.512,2.5014,2.5104,2.5168,2.5201,2.525,2.5293,2.5293,2.5322,2.5332,2.5332,2.5441,2.538,2.5127,2.8341,3.0128,3.0352,3.0458,3.0494,3.047,3.0472,3.0519,0.0,0.0,0.0,0.0,0.0,0.0,0.0,0.0,0.0,0.0,0.0,0.0,0.0,0.0,0.0,0.0,0.0,0.0,0.0,0.0,0.0,0.0,0.0,0.0,0.0,0.0,0.0,0.0,0.0,0.0,0.4887,0.4895,0.5126,0.5559,0.5673,0.6537,0.8312,0.8977,0.9655,1.0399,1.1669,1.2452,1.2909,1.3658,1.4674,1.5832,1.6558,1.7073,1.7414,1.8345,1.9229,2.0088,2.0571,2.1543,2.2669,2.2643,2.3139,2.3806,2.3877,2.43,2.4789,2.4837,2.5058,2.5284,2.5322,2.5332,2.5379,2.5493,2.5613,2.5703,2.5703,2.5689,2.5674,2.5672,2.5644,2.5574,2.5456,2.5424,2.5398,2.5225,2.525,2.535,2.5568,2.5377,2.5189,2.5177,2.5168,2.5168,2.5168,2.5092,2.5014,2.5,2.5023,2.5079,2.5189,2.5212,2.5238,2.5303,2.5406,2.5476,2.5476,2.5493,2.5529,2.5611,2.8829,3.052,3.0559,3.0579,3.0637,3.0755,3.0749,3.0691,0.0,0.0,0.0,0.0,0.0,0.0,0.0,0.0,0.0,0.0,0.0,0.0,0.0,0.0,0.0,0.0,0.0,0.0,0.0,0.0,0.0,0.0,0.0,0.0,0.0,0.0,0.0,0.0,0.0,0.4089,0.4296,0.4153,0.4277,0.4809,0.519,0.6352,0.8193,0.8718,0.9847,1.1534,1.2264,1.2905,1.3367,1.3568,1.4433,1.5726,1.6225,1.6886,1.7618,1.7988,1.8569,1.9287,1.994,2.0767,2.1661,2.2325,2.2771,2.313,2.3538,2.3888,2.4174,2.4512,2.4729,2.4847,2.4847,2.5068,2.5332,2.5468,2.5534,2.5595,2.5595,2.5586,2.561,2.568,2.5697,2.5677,2.5623,2.5603,2.5587,2.5502,2.5357,2.534,2.5644,2.5586,2.5476,2.5476,2.5476,2.541,2.5227,2.5249,2.5282,2.5282,2.5282,2.5153,2.4827,2.4807,2.5012,2.5492,2.558,2.5609,2.5613,2.5615,2.5637,2.5694,2.7124,2.8801,3.0714,3.0714,3.0721,3.0741,3.0778,3.0751,0.0,0.0,0.0,0.0,0.0,0.0,0.0,0.0,0.0,0.0,0.0,0.0,0.0,0.0,0.0,0.0,0.0,0.0,0.0,0.0,0.0,0.0,0.0,0.0,0.0,0.0,0.0,0.0,0.0,0.3601,0.3791,0.3558,0.3621,0.4115,0.4892,0.6164,0.8026,0.8888,1.0305,1.2311,1.2608,1.3055,1.3615,1.3615,1.4195,1.5309,1.584,1.6733,1.7754,1.7666,1.8073,1.8837,1.9367,2.0016,2.0734,2.1786,2.2271,2.246,2.3071,2.3529,2.3896,2.4348,2.45,2.45,2.45,2.4784,2.5115,2.5213,2.5274,2.5313,2.5415,2.545,2.5468,2.5566,2.5601,2.5605,2.5665,2.5692,2.57,2.5703,2.5504,2.541,2.5661,2.5697,2.5697,2.5697,2.5701,2.561,2.5356,2.5432,2.5493,2.545,2.5424,2.5221,2.4723,2.4719,2.5019,2.5665,2.5697,2.5699,2.5703,2.5697,2.6101,2.6952,2.6917,2.8178,3.0801,3.0769,3.0742,3.0731,3.0765,3.0749,0.0,0.0,0.0,0.0,0.0,0.0,0.0,0.0,0.0,0.0,0.0,0.0,0.0,0.0,0.0,0.0,0.0,0.0,0.0,0.0,0.0,0.0,0.0,0.0,0.0,0.0,0.0,0.0,0.0,0.2276,0.3552,0.3376,0.3435,0.3908,0.48,0.6131,0.7803,0.9817,1.12,1.2012,1.2206,1.2559,1.3059,1.342,1.3873,1.4435,1.5608,1.6593,1.7434,1.7482,1.7994,1.8722,1.8948,1.9476,2.0203,2.0862,2.1483,2.2069,2.2364,2.3348,2.4456,2.45,2.45,2.45,2.45,2.4524,2.4532,2.4549,2.4645,2.4828,2.5202,2.5313,2.5313,2.5313,2.5322,2.5367,2.5564,2.5662,2.57,2.5703,2.5693,2.5681,2.5695,2.5697,2.5697,2.5697,2.57,2.5691,2.5683,2.5574,2.545,2.5313,2.525,2.5191,2.5177,2.5332,2.5517,2.5692,2.5703,2.5703,2.5703,2.5697,2.7189,3.0383,3.025,3.0369,3.0796,3.0665,3.0665,3.0792,3.0732,3.07,0.0,0.0,0.0,0.0,0.0,0.0,0.0,0.0,0.0,0.0,0.0,0.0,0.0,0.0,0.0,0.0,0.0,0.0,0.0,0.0,0.0,0.0,0.0,0.0,0.0,0.0,0.0,0.0,0.0,0.0,0.2413,0.2464,0.2831,0.3606,0.4572,0.5959,0.7859,0.9764,1.1024,1.1702,1.2435,1.3007,1.3367,1.3515,1.3889,1.4392,1.5192,1.6151,1.7131,1.7269,1.7544,1.7994,1.8752,1.9134,1.9367,2.0585,2.1267,2.1609,2.1919,2.2361,2.2686,2.2285,2.2785,2.3602,2.3602,2.4028,2.4366,2.3774,2.4078,2.4606,2.4749,2.4784,2.4746,2.462,2.4919,2.526,2.5332,2.55,2.5637,2.5639,2.5673,2.5697,2.5697,2.5697,2.5701,2.5701,2.5703,2.5702,2.5699,2.5662,2.558,2.544,2.5217,2.4808,2.4155,2.5043,2.5648,2.5703,2.5701,2.5676,2.5638,2.5638,2.7225,3.0629,3.0417,3.0352,3.0535,3.0612,3.0578,3.0424,3.0433,3.0432,0.0,0.0,0.0,0.0,0.0,0.0,0.0,0.0,0.0,0.0,0.0,0.0,0.0,0.0,0.0,0.0,0.0,0.0,0.0,0.0,0.0,0.0,0.0,0.0,0.0,0.0,0.0,0.0,0.0,0.0,0.2363,0.2232,0.2705,0.4053,0.4956,0.6266,0.7938,0.9361,1.0497,1.1358,1.213,1.2773,1.3238,1.3515,1.3795,1.403,1.4846,1.5688,1.657,1.6886,1.7102,1.7332,1.8461,1.8797,1.879,2.0154,2.0722,2.0877,2.1324,2.1471,2.1471,2.1432,2.2124,2.297,2.297,2.3413,2.3777,2.3253,2.3535,2.4008,2.393,2.3901,2.3939,2.4142,2.4459,2.4732,2.4732,2.5187,2.5595,2.557,2.5616,2.5661,2.5638,2.5627,2.5622,2.5571,2.5641,2.5703,2.5702,2.5699,2.5669,2.5579,2.5233,2.3631,2.0243,2.3089,2.5236,2.5612,2.5592,2.5546,2.5507,2.55,2.7133,3.0605,3.0394,3.024,3.0194,3.0404,3.0424,3.0268,3.0283,3.0294,0.0,0.0,0.0,0.0,0.0,0.0,0.0,0.0,0.0,0.0,0.0,0.0,0.0,0.0,0.0,0.0,0.0,0.0,0.0,0.0,0.0,0.0,0.0,0.0,0.0,0.0,0.0,0.0,0.0,0.0891,0.3383,0.2674,0.3111,0.5219,0.6055,0.6997,0.8084,0.875,0.9736,1.0971,1.1273,1.1777,1.2524,1.3404,1.3584,1.3261,1.4536,1.5283,1.5635,1.6367,1.6674,1.6795,1.8014,1.8507,1.8616,1.95,1.9854,1.9983,2.0595,2.0794,2.1007,2.2234,2.265,2.265,2.2685,2.2712,2.2764,2.2977,2.3061,2.3036,2.2764,2.2712,2.2935,2.3915,2.3955,2.3765,2.3786,2.4729,2.5528,2.5492,2.5527,2.5554,2.5474,2.5468,2.5415,2.5293,2.5506,2.5683,2.5671,2.5668,2.5674,2.5666,2.5257,2.1785,1.3867,1.9677,2.4226,2.5359,2.5322,2.5264,2.5273,2.5369,2.7036,3.0501,3.0455,3.0203,2.9816,3.0002,3.019,3.0385,3.0309,3.0247,-0.7432,0.0,0.0,0.0,0.0,0.0,0.0,0.0,0.0,0.0,0.0,0.0,0.0,0.0,0.0,0.0,0.0,0.0,0.0,0.0,0.0,0.0,0.0,0.0,0.0,0.0,0.0,0.0,0.0,0.0623,0.1334,0.2839,0.4123,0.5048,0.5946,0.6773,0.7421,0.8482,0.9582,1.0667,1.1468,1.2196,1.288,1.3213,1.3409,1.3515,1.417,1.468,1.5175,1.5994,1.6436,1.6637,1.7544,1.8226,1.8777,1.969,1.9998,2.0061,2.0595,2.0794,2.086,2.1214,2.1339,2.1485,2.2417,2.2712,2.2526,2.1672,2.2096,2.2782,2.2712,2.2712,2.2729,2.2816,2.2782,2.2909,2.3628,2.4063,2.4409,2.4846,2.4855,2.4799,2.4775,2.466,2.454,2.45,2.5019,2.5308,2.5011,2.4981,2.4977,2.4981,2.4867,2.3405,1.9995,2.1542,2.2923,2.3442,2.3941,2.4299,2.451,2.6937,2.8733,2.9715,2.9928,3.0064,3.0098,3.0147,3.0109,2.9954,2.9902,2.9865,0.0,0.0,0.0,0.0,0.0,0.0,0.0,-0.725,0.0,0.0,0.0,0.0,0.0,0.0,0.0,0.0,0.0,0.0,0.0,0.0,0.0,0.0,0.0,0.0,0.0,0.0,0.0,-0.1114,-0.0312,0.0623,0.1733,0.337,0.4611,0.5265,0.5844,0.6404,0.6992,0.7695,0.8633,0.98,1.0503,1.1355,1.2321,1.2503,1.2779,1.303,1.3552,1.3972,1.4346,1.5451,1.607,1.6503,1.7537,1.814,1.8563,1.9435,1.9884,2.0088,2.0365,2.0595,2.0794,2.0794,2.0794,2.095,2.1697,2.1903,2.1874,2.1658,2.1748,2.1903,2.1903,2.1807,2.1815,2.22,2.231,2.2415,2.2856,2.2972,2.3171,2.3886,2.3981,2.4008,2.433,2.4293,2.4199,2.4199,2.448,2.4591,2.4345,2.4319,2.4319,2.4319,2.4426,2.3905,2.2415,2.1932,2.1915,2.2506,2.3149,2.3728,2.417,2.7449,2.8644,2.7381,2.8978,2.9884,3.0028,3.0099,2.999,2.9754,2.9719,2.9256,0.0,0.0,0.0,0.0,0.0,0.0,-0.6194,-0.4755,0.0,0.0,0.0,0.0,0.0,0.0,0.0,0.0,0.0,0.0,0.0,0.0,0.0,0.0,0.0,0.0,0.0,-0.3185,-0.2377,-0.1181,-0.0616,0.0839,0.3471,0.4094,0.4748,0.561,0.5712,0.6056,0.668,0.6764,0.7496,0.881,0.9093,1.0002,1.1363,1.1629,1.1963,1.2349,1.2977,1.3357,1.3689,1.4932,1.5738,1.6355,1.7605,1.8094,1.8152,1.8884,1.953,2.0038,1.999,2.0296,2.0761,2.0761,2.0794,2.0794,2.0761,2.0761,2.1007,2.2169,2.1637,2.0728,2.0728,2.0628,2.0786,2.1835,2.2049,2.1982,2.1827,2.173,2.192,2.2686,2.2969,2.3262,2.3924,2.4014,2.3985,2.3985,2.3783,2.3671,2.3795,2.3744,2.3732,2.3732,2.3935,2.3589,2.2405,2.1456,2.1269,2.2086,2.2642,2.3277,2.3965,2.6772,2.7055,2.4404,2.7912,2.9782,2.9833,2.9898,2.9841,2.9701,2.9626,2.8546,0.0,0.0,0.0,0.0,0.0,0.0,0.0,-0.8116,0.0,0.0,0.0,0.0,0.0,0.0,0.0,0.0,0.0,0.0,0.0,0.0,0.0,0.0,0.0,0.0,0.0,-0.2636,-0.245,-0.2205,-0.0619,0.1367,0.3737,0.4272,0.479,0.5351,0.5752,0.6187,0.6683,0.7294,0.7994,0.8806,0.9412,1.0343,1.164,1.1578,1.2077,1.3021,1.3271,1.3967,1.4937,1.5254,1.549,1.5768,1.665,1.7352,1.7894,1.8288,1.8902,1.9631,1.9726,2.0045,2.0433,2.061,2.0636,2.0636,2.0561,2.0561,2.0654,2.1063,2.0811,2.0399,2.0399,2.1135,2.17,2.0877,2.0429,2.0506,2.1562,2.1386,2.1039,2.1206,2.2068,2.2833,2.2969,2.2807,2.2659,2.2659,2.2642,2.2892,2.3701,2.3477,2.3247,2.3247,2.3286,2.3044,2.2358,2.1857,2.1456,2.1111,2.1705,2.2243,2.2659,2.3484,2.374,2.338,2.7808,3.0113,3.0113,2.9718,2.9588,2.9701,2.9084,2.8066,0.0,0.0,0.0,-1.2158,0.0,0.0,0.0,0.0,0.0,0.0,0.0,0.0,0.0,0.0,0.0,0.0,0.0,0.0,0.0,0.0,0.0,0.0,0.0,0.0,0.0,-0.258,-0.2225,-0.1518,-0.0317,0.1338,0.3544,0.4173,0.4815,0.548,0.5735,0.6062,0.6526,0.6933,0.7465,0.8098,0.8993,0.9878,1.0807,1.1269,1.1851,1.2534,1.316,1.381,1.4503,1.5164,1.5496,1.5635,1.6625,1.7173,1.7449,1.8007,1.8511,1.8968,1.9207,1.9645,2.012,2.0216,2.0368,2.0494,2.0452,2.0426,2.0433,2.0535,2.0433,2.0304,2.0304,2.0786,2.1095,2.0212,1.9833,1.9846,2.0348,2.02,2.0058,2.046,2.1079,2.1491,2.1491,2.1936,2.231,2.231,2.231,2.247,2.2984,2.2704,2.2455,2.2455,2.2144,2.1849,2.157,2.1386,2.1103,2.0595,2.0885,2.1501,2.2451,2.2764,2.3068,2.3431,2.7507,2.9672,2.9789,2.8966,2.8597,2.8691,2.7993,2.6877,0.0,0.0,0.0,0.0,0.0,-1.0709,0.0,0.0,0.0,0.0,0.0,0.0,0.0,0.0,0.0,0.0,0.0,0.0,0.0,0.0,0.0,0.0,0.0,0.0,0.0,-0.2664,-0.192,-0.0459,0.0038,0.1177,0.3224,0.3953,0.4704,0.555,0.5586,0.5885,0.6407,0.6526,0.6862,0.7412,0.8454,0.93,0.9998,1.088,1.1551,1.2046,1.2921,1.3491,1.3899,1.4937,1.5501,1.5812,1.674,1.7034,1.7034,1.7686,1.8108,1.8348,1.8588,1.9103,1.9679,1.9722,2.0035,2.0342,2.0315,2.0289,2.0277,2.0304,2.0304,2.0365,2.0628,2.0426,2.0088,1.9797,1.9646,1.9508,1.9176,1.9213,1.9501,2.0158,2.0501,2.0587,2.0339,2.1417,2.2282,2.2209,2.2254,2.2282,2.2209,2.1961,2.1691,2.1424,2.1158,2.095,2.0827,2.0794,2.0695,2.0399,2.0407,2.1103,2.2632,2.3044,2.3408,2.3795,2.6624,2.8094,2.811,2.7817,2.7692,2.7692,2.7004,2.5908,0.0,0.0,0.0,0.0,-1.3205,0.0,0.0,0.0,0.0,0.0,0.0,0.0,0.0,0.0,0.0,0.0,0.0,0.0,0.0,0.0,0.0,0.0,0.0,0.0,0.0,0.0,-0.1876,-0.0326,0.0,0.1018,0.3026,0.3714,0.4348,0.506,0.5251,0.5696,0.6386,0.6696,0.7076,0.7482,0.8344,0.9238,1.0163,1.0644,1.1528,1.267,1.2812,1.3503,1.4606,1.4749,1.5311,1.6144,1.6275,1.6515,1.6837,1.6921,1.7414,1.8028,1.7861,1.8291,1.8959,1.9117,1.9639,2.0108,2.0061,2.0076,2.0154,2.0277,2.0304,2.0553,2.1768,2.0942,1.9762,1.9726,1.9435,1.9139,1.9101,1.9654,2.0193,2.027,2.1261,2.1708,2.0494,2.1417,2.2209,2.1886,2.2115,2.218,2.1894,2.1819,2.1323,2.0085,2.1007,2.1448,2.0852,2.0794,2.0794,2.0736,2.0728,2.1331,2.2659,2.3368,2.3753,2.3795,2.4421,2.4313,2.3458,2.6302,2.7692,2.7692,2.7004,2.621,0.0,0.0,0.0,0.0,0.0,0.0,0.0,0.0,-0.6056,0.0,0.0,0.0,0.0,0.0,0.0,0.0,0.0,0.0,0.0,0.0,0.0,0.0,0.0,0.0,0.0,0.0,0.0,0.0,0.0,0.0795,0.255,0.3708,0.4457,0.4632,0.532,0.5841,0.6155,0.6771,0.7231,0.7523,0.8304,0.9039,0.9695,1.0458,1.1283,1.2192,1.2824,1.3598,1.4479,1.4806,1.5277,1.583,1.5925,1.6132,1.6374,1.6546,1.6788,1.7021,1.7028,1.7551,1.8316,1.899,1.9391,1.9637,1.9912,2.0005,2.0076,2.0243,2.0304,2.0553,2.17,2.1462,2.0804,2.0436,1.9703,1.8988,1.8489,1.9413,2.0304,2.0304,2.0571,2.0607,2.0038,2.1111,2.1953,2.1819,2.1915,2.1953,2.1819,2.1789,2.1158,1.9522,2.0481,2.1111,2.0819,2.0794,2.0794,2.0794,2.1166,2.1845,2.2885,2.3491,2.3867,2.4025,2.4142,2.378,2.2944,2.6135,2.7297,2.654,2.6796,2.6479,-1.506,0.0,0.0,0.0,0.0,0.0,0.0,0.0,0.0,0.0,0.0,0.0,0.0,0.0,0.0,0.0,0.0,0.0,0.0,0.0,0.0,0.0,0.0,0.0,0.0,0.0,0.0,0.0,0.0,0.0,0.2346,0.3626,0.4324,0.4279,0.5261,0.5879,0.5991,0.6747,0.7269,0.7572,0.8271,0.876,0.9079,1.0043,1.074,1.1344,1.2495,1.3445,1.4149,1.4755,1.5187,1.5513,1.5564,1.5647,1.5768,1.6126,1.6157,1.6139,1.6219,1.687,1.7854,1.8748,1.9095,1.9266,1.9762,1.9919,1.9955,2.0088,2.0123,2.0376,2.1501,2.1661,2.1386,2.0925,1.9917,1.8874,1.8069,1.8815,1.9631,1.9631,1.9675,1.9682,1.9682,2.054,2.1221,2.1221,2.1554,2.1789,2.1789,2.1789,2.1118,1.9303,1.9846,2.0334,2.0334,2.0613,2.0885,2.1079,2.154,2.2121,2.2859,2.3203,2.3518,2.3771,2.378,2.3531,2.3045,2.552,2.6243,2.5403,2.655,2.6615,0.0,0.0,0.0,-1.3045,0.0,0.0,0.0,0.0,0.0037,0.0,0.0,0.0,0.0,0.0,0.0,0.0,0.0,0.0,0.0,0.0,0.0,0.0,0.0,0.0,0.0,0.0,0.0,0.0,0.0,0.0,0.2635,0.3278,0.3756,0.399,0.4877,0.5541,0.5988,0.6667,0.7238,0.7715,0.8167,0.8398,0.8362,0.9226,0.9817,1.0223,1.1699,1.2796,1.3603,1.436,1.5034,1.5463,1.5244,1.5108,1.5147,1.5418,1.5546,1.5629,1.5635,1.641,1.7511,1.8128,1.869,1.9169,1.9574,1.9726,1.9726,1.9726,1.9726,2.005,2.1432,2.1324,2.0827,2.0794,1.9917,1.8874,1.8069,1.7956,1.7996,1.7996,1.8898,1.9682,1.9682,1.9754,1.9754,1.9754,2.0942,2.1789,2.1789,2.1789,2.1118,1.9303,1.9139,1.9131,1.9131,2.0162,2.1071,2.173,2.1789,2.1953,2.2302,2.233,2.2479,2.2729,2.2756,2.2808,2.2919,2.379,2.4337,2.4566,2.6307,2.6564,0.0,0.0,-1.4876,-1.2629,0.0,0.0,0.0,0.0,0.0,0.0,0.0,0.0,0.0,0.0,0.0,0.0,0.0,0.0,0.0,0.0,0.0,0.0,0.0,0.0,0.0,0.0,0.0,0.0,0.0,0.0,0.0,0.3775,0.4066,0.4314,0.5258,0.5873,0.6148,0.7034,0.7541,0.7715,0.7784,0.8099,0.865,0.8937,0.9519,1.0335,1.1055,1.1956,1.2967,1.352,1.4153,1.4783,1.5017,1.4875,1.4547,1.5057,1.5238,1.5283,1.5463,1.5832,1.6379,1.7256,1.7679,1.8068,1.9332,1.9682,1.9682,1.9682,1.9682,1.9747,1.9949,1.9851,1.966,1.966,1.8959,1.8221,1.7963,1.7882,1.7801,1.7502,1.7754,1.8054,1.8054,1.8983,1.9682,1.9682,2.012,2.0413,2.0413,2.0193,1.978,1.9169,1.9354,1.9508,1.9508,1.9854,2.0162,2.0413,2.0663,2.1261,2.2254,2.1456,2.1127,2.1454,2.189,2.2084,2.2031,2.3173,2.3646,2.3545,2.4559,2.5071,-1.5178,-1.4629,0.0,-1.1618,-0.9267,0.0,-0.2284,0.0,0.0,0.0,0.0,0.0,0.0,0.0,0.0,0.0,0.0,0.0,0.0,0.0,0.0,0.0,0.0,0.0,0.0,0.0,-0.12,0.1653,0.0,0.0,0.0,0.0,0.4106,0.4298,0.5411,0.6051,0.6193,0.7186,0.767,0.7621,0.7697,0.8024,0.8504,0.8793,0.9294,0.9962,1.0799,1.16,1.2336,1.3181,1.3821,1.4321,1.4721,1.4599,1.4269,1.4743,1.484,1.4748,1.5096,1.522,1.5484,1.6723,1.7157,1.7393,1.8479,1.8824,1.8914,1.9347,1.9508,1.9435,1.9176,1.8532,1.804,1.8553,1.8268,1.7882,1.7882,1.7882,1.7754,1.7282,1.7199,1.7199,1.7199,1.8094,1.902,1.9603,1.9682,1.9646,1.9508,1.9398,1.925,1.9101,1.9464,1.9682,1.9682,1.9682,1.9682,1.9682,2.0088,2.0687,2.154,2.0745,2.0527,2.0974,2.1409,2.1645,2.1726,2.2394,2.2626,2.2454,2.2859,2.3254]},{"header":{"parameterUnit":"m.s-1","parameterCategory":1,"la1":30.6,"la2":29.2853,"lo1":-89.7004,"lo2":-87.6739,"dy":0.0162,"dx":0.0183,"nx":112,"ny":82,"refTime":"2025-07-04T12:00:00:Z","depth":0,"parameterNumber":3,"parameterNumberName":"V-component_of_WINDS"},"data":[0.0,0.0,0.0,0.0,0.0,0.0,0.0,0.0,0.0,0.0,0.0,0.0,0.0,0.0,0.0,0.0,0.0,0.0,0.0,0.0,0.0,0.0,0.0,0.0,0.0,0.0,0.0,0.0,0.0,0.0,0.0,0.0,0.0,0.0,0.0,0.0,0.0,0.0,0.0,0.0,0.0,0.0,0.0,0.0,0.0,0.0,0.0,0.0,0.0,0.0,0.0,0.0,0.0,0.0,0.0,0.0,0.0,0.0,0.0,0.0,0.0,0.0,0.0,0.0,0.0,0.0,0.0,0.0,0.0,0.0,0.0,0.0,0.0,0.0,0.0,0.0,0.0,0.0,0.0,0.0,0.0,0.0,0.0,0.0,0.0,0.0,0.0,0.0,0.0,0.0,0.0,-1.3358,-1.4969,-1.566,-1.493,-1.3566,-1.1572,-0.8773,0.0,0.0,0.0,0.0,0.0,0.0,0.0,0.0,0.0,0.0,0.0,0.0,0.0,0.0,0.0,0.0,0.0,0.0,0.0,0.0,0.0,0.0,0.0,0.0,0.0,0.0,0.0,0.0,0.0,0.0,0.0,0.0,0.0,0.0,0.0,0.0,0.0,0.0,0.0,0.0,0.0,0.0,0.0,0.0,0.0,0.0,0.0,0.0,0.0,0.0,0.0,0.0,0.0,0.0,0.0,0.0,0.0,0.0,0.0,0.0,0.0,0.0,0.0,0.0,0.0,0.0,0.0,0.0,0.0,0.0,0.0,0.0,0.0,0.0,0.0,0.0,0.0,0.0,0.0,0.0,0.0,0.0,0.0,0.0,0.0,0.0,0.0,0.0,0.0,0.0,0.0,0.0,0.0,0.0,0.0,0.0,0.0,0.0,0.0,0.0,0.0,0.0,0.0,0.0,-1.2102,-1.4539,-1.5382,-1.5463,-1.4779,-1.3141,-1.1136,-0.8756,0.0,0.0,0.0,0.0,0.0,0.0,0.0,0.0,0.0,0.0,0.0,0.0,0.0,0.0,0.0,0.0,0.0,0.0,0.0,0.0,0.0,0.0,0.0,0.0,0.0,0.0,0.0,0.0,0.0,0.0,0.0,0.0,0.0,0.0,0.0,0.0,0.0,0.0,0.0,0.0,0.0,0.0,0.0,0.0,0.0,0.0,0.0,0.0,0.0,0.0,0.0,0.0,0.0,0.0,0.0,0.0,0.0,0.0,0.0,0.0,0.0,0.0,0.0,0.0,0.0,0.0,0.0,0.0,0.0,0.0,0.0,0.0,0.0,0.0,0.0,0.0,0.0,0.0,0.0,0.0,0.0,0.0,0.0,0.0,0.0,0.0,0.0,0.0,0.0,0.0,0.0,0.0,0.0,0.0,0.0,0.0,0.0,0.0,0.0,0.0,0.0,0.0,0.0,-1.1747,-1.294,-1.5235,-1.5581,-1.533,-1.4599,-1.3128,-1.125,-0.8867,-0.7531,0.0,0.0,0.0,0.0,0.0,0.0,0.0,0.0,0.0,0.0,0.0,0.0,0.0,0.0,0.0,0.0,0.0,0.0,0.0,0.0,0.0,0.0,0.0,0.0,0.0,0.0,0.0,0.0,0.0,0.0,0.0,0.0,0.0,0.0,0.0,0.0,0.0,0.0,0.0,0.0,0.0,0.0,0.0,0.0,0.0,0.0,0.0,0.0,0.0,0.0,0.0,0.0,0.0,0.0,0.0,0.0,0.0,0.0,0.0,0.0,0.0,0.0,0.0,0.0,0.0,0.0,0.0,0.0,0.0,0.0,0.0,0.0,0.0,0.0,0.0,0.0,0.0,0.0,0.0,0.0,0.0,0.0,0.0,0.0,0.0,0.0,0.0,0.0,0.0,0.0,0.0,0.0,0.0,0.0,0.0,0.0,0.0,0.0,0.0,0.0,0.0,0.0,-1.2962,-1.3745,-1.5481,-1.5595,-1.5225,-1.4445,-1.3075,-1.1276,-0.8889,-0.7225,0.0,0.0,0.0,0.0,0.0,0.0,0.0,0.0,0.0,0.0,0.0,0.0,0.0,0.0,0.0,0.0,0.0,0.0,0.0,0.0,0.0,0.0,0.0,0.0,0.0,0.0,0.0,0.0,0.0,0.0,0.0,0.0,0.0,0.0,0.0,0.0,0.0,0.0,0.0,0.0,0.0,0.0,0.0,0.0,0.0,0.0,0.0,0.0,0.0,0.0,0.0,0.0,0.0,0.0,0.0,0.0,0.0,0.0,0.0,0.0,0.0,0.0,0.0,0.0,0.0,0.0,0.0,0.0,0.0,0.0,0.0,0.0,0.0,0.0,0.0,0.0,0.0,0.0,0.0,0.0,0.0,0.0,0.0,0.0,0.0,0.0,0.0,0.0,0.0,0.0,0.0,0.0,0.0,0.0,0.0,0.0,0.0,0.0,0.0,0.0,0.0,0.0,-1.2797,-1.4014,-1.5197,-1.5374,-1.5111,-1.4351,-1.2694,-1.0767,-0.8646,-0.6728,0.0,0.0,0.0,0.0,0.0,0.0,0.0,0.0,0.0,0.0,0.0,0.0,0.0,0.0,0.0,0.0,0.0,0.0,0.0,0.0,0.0,0.0,0.0,0.0,0.0,0.0,0.0,0.0,0.0,0.0,0.0,0.0,0.0,0.0,0.0,0.0,0.0,0.0,0.0,0.0,0.0,0.0,0.0,0.0,0.0,0.0,0.0,0.0,0.0,0.0,0.0,0.0,0.0,0.0,0.0,0.0,0.0,0.0,0.0,0.0,0.0,0.0,0.0,0.0,0.0,0.0,0.0,0.0,0.0,0.0,0.0,0.0,0.0,0.0,0.0,0.0,0.0,0.0,0.0,0.0,0.0,0.0,0.0,0.0,0.0,0.0,0.0,0.0,0.0,0.0,0.0,0.0,0.0,0.0,0.0,0.0,0.0,0.0,0.0,0.0,0.0,0.0,-1.2069,-1.3064,0.0,-1.4818,-1.4427,-1.3669,-1.2313,-1.0596,-0.8511,0.0,0.0,0.0,0.0,0.0,0.0,0.0,0.0,0.0,0.0,0.0,0.0,0.0,0.0,0.0,0.0,0.0,0.0,0.0,0.0,0.0,0.0,0.0,0.0,0.0,0.0,0.0,0.0,0.0,0.0,0.0,0.0,0.0,0.0,0.0,0.0,0.0,0.0,0.0,0.0,0.0,0.0,0.0,0.0,0.0,0.0,0.0,0.0,0.0,0.0,0.0,0.0,0.0,0.0,0.0,0.0,0.0,0.0,0.0,0.0,0.0,0.0,0.0,0.0,0.0,0.0,0.0,0.0,0.0,0.0,0.0,0.0,0.0,0.0,0.0,0.0,0.0,0.0,0.0,0.0,0.0,0.0,0.0,0.0,0.0,0.0,0.0,0.0,0.0,0.0,0.0,0.0,0.0,0.0,0.0,0.0,0.0,0.0,0.0,0.0,0.0,0.0,-1.1146,-1.1781,-1.2685,0.0,-1.4447,-1.402,-1.3285,-1.1909,-1.0307,-0.8442,0.0,0.0,0.0,0.0,0.0,0.0,0.0,0.0,0.0,0.0,0.0,0.0,0.0,0.0,0.0,0.0,0.0,0.0,0.0,0.0,0.0,0.0,0.0,0.0,0.0,0.0,0.0,0.0,0.0,0.0,0.0,0.0,0.0,0.0,0.0,0.0,0.0,0.0,0.0,0.0,0.0,0.0,0.0,0.0,0.0,0.0,0.0,0.0,0.0,0.0,0.0,0.0,0.0,0.0,0.0,0.0,0.0,0.0,0.0,0.0,0.0,0.0,0.0,0.0,0.0,0.0,0.0,0.0,0.0,0.0,0.0,0.0,0.0,0.0,0.0,0.0,0.0,0.0,0.0,0.0,0.0,0.0,0.0,0.0,0.0,0.0,0.0,0.0,0.0,0.0,0.0,0.0,0.0,0.0,0.0,0.0,0.0,0.0,0.0,0.0,0.0,0.0,-1.0831,-1.1979,-1.314,-1.4276,-1.4337,-1.4013,-1.3353,-1.151,-0.9806,0.0,0.0,0.0,0.0,0.0,0.0,0.0,0.0,0.0,0.0,0.0,0.0,0.0,0.0,0.0,0.0,0.0,0.0,0.0,0.0,0.0,0.0,0.0,0.0,0.0,0.0,0.0,0.0,0.0,0.0,0.0,0.0,0.0,0.0,0.0,0.0,0.0,0.0,0.0,0.0,0.0,0.0,0.0,0.0,0.0,0.0,0.0,0.0,0.0,0.0,0.0,0.0,0.0,0.0,0.0,0.0,0.0,0.0,0.0,0.0,0.0,0.0,0.0,0.0,0.0,0.0,0.0,0.0,0.0,0.0,0.0,0.0,0.0,0.0,0.0,0.0,0.0,0.0,0.0,0.0,0.0,0.0,0.0,0.0,0.0,0.0,0.0,0.0,0.0,0.0,0.0,0.0,0.0,0.0,0.0,0.0,0.0,0.0,0.0,0.0,0.0,0.0,0.0,-1.0821,-1.1636,-1.2558,-1.3905,-1.3488,-1.2947,-1.249,-1.0876,-0.9325,-0.7981,0.0,0.0,0.0,0.0,0.0,0.0,0.0,0.0,0.0,0.0,0.0,0.0,0.0,0.0,0.0,0.0,0.0,0.0,0.0,0.0,0.0,0.0,0.0,0.0,0.0,0.0,0.0,0.0,0.0,0.0,0.0,0.0,0.0,0.0,0.0,0.0,0.0,0.0,0.0,0.0,0.0,0.0,0.0,0.0,0.0,0.0,0.0,0.0,0.0,0.0,0.0,0.0,0.0,0.0,0.0,0.0,0.0,0.0,0.0,0.0,0.0,0.0,0.0,0.0,0.0,0.0,0.0,0.0,0.0,0.0,0.0,0.0,0.0,0.0,0.0,0.0,0.0,0.0,0.0,0.0,0.0,0.0,0.0,0.0,0.0,0.0,0.0,0.0,0.0,0.0,0.0,0.0,0.0,0.0,0.0,0.0,0.0,0.0,0.0,0.0,0.0,0.0,-1.0327,-1.1034,-1.1889,-1.3177,-1.2766,-1.2246,-1.192,-1.0613,-0.9279,-0.8058,0.0,0.0,0.0,0.0,0.0,0.0,0.0,0.0,0.0,0.0,0.0,0.0,0.0,0.0,0.0,0.0,0.0,0.0,0.0,0.0,0.0,0.0,0.0,0.0,0.0,0.0,0.0,0.0,0.0,0.0,0.0,0.0,0.0,0.0,0.0,0.0,0.0,0.0,0.0,0.0,0.0,0.0,0.0,0.0,0.0,0.0,0.0,0.0,0.0,0.0,0.0,0.0,0.0,0.0,0.0,0.0,0.0,0.0,0.0,0.0,0.0,0.0,0.0,0.0,0.0,0.0,0.0,0.0,0.0,0.0,0.0,0.0,0.0,0.0,0.0,0.0,0.0,0.0,0.0,0.0,0.0,0.0,0.0,0.0,0.0,0.0,0.0,0.0,0.0,0.0,0.0,0.0,0.0,0.0,0.0,0.0,0.0,0.0,0.0,0.0,0.0,0.0,-0.9537,-1.0332,-1.1193,-1.2301,-1.2186,-1.192,-1.1573,-1.0495,-0.9402,-0.8389,0.0,0.0,0.0,0.0,0.0,0.0,0.0,0.0,0.0,0.0,0.0,0.0,0.0,0.0,0.0,0.0,0.0,0.0,0.0,0.0,0.0,0.0,0.0,0.0,0.0,0.0,0.0,0.0,0.0,0.0,0.0,0.0,0.0,0.0,0.0,0.0,0.0,0.0,0.0,0.0,0.0,0.0,0.0,0.0,0.0,0.0,0.0,0.0,0.0,0.0,0.0,0.0,0.0,0.0,0.0,0.0,0.0,0.0,0.0,0.0,-1.1716,0.0,0.0,0.0,0.0,0.0,0.0,0.0,0.0,0.0,0.0,0.0,0.0,0.0,0.0,0.0,0.0,0.0,0.0,0.0,0.0,0.0,0.0,0.0,0.0,0.0,0.0,0.0,0.0,0.0,0.0,0.0,0.0,0.0,0.0,0.0,0.0,0.0,0.0,0.0,0.0,0.0,-0.9488,-1.0332,-1.1193,-1.2301,-1.1926,-1.1479,-1.1062,-1.0086,-0.9007,-0.783,0.0,0.0,0.0,0.0,0.0,0.0,0.0,0.0,0.0,0.0,0.0,0.0,0.0,0.0,0.0,0.0,0.0,0.0,0.0,0.0,0.0,0.0,0.0,0.0,0.0,0.0,0.0,0.0,0.0,0.0,0.0,0.0,0.0,0.0,0.0,0.0,0.0,0.0,0.0,0.0,0.0,0.0,0.0,0.0,0.0,0.0,0.0,0.0,0.0,0.0,0.0,0.0,0.0,0.0,0.0,0.0,0.0,0.0,0.0,0.0,0.0,-1.2055,0.0,0.0,0.0,0.0,0.0,0.0,0.0,0.0,0.0,0.0,0.0,0.0,0.0,0.0,0.0,0.0,0.0,0.0,0.0,0.0,0.0,0.0,0.0,0.0,0.0,0.0,0.0,0.0,0.0,0.0,0.0,0.0,0.0,0.0,0.0,0.0,0.0,0.0,0.0,0.0,-0.9151,-1.0074,-1.0933,-1.1687,-1.1431,-1.105,-1.0659,-0.994,-0.9022,-0.7859,-0.6829,0.0,0.0,0.0,0.0,0.0,0.0,0.0,0.0,0.0,0.0,0.0,0.0,0.0,0.0,0.0,0.0,0.0,0.0,0.0,0.0,0.0,0.0,0.0,0.0,0.0,0.0,0.0,0.0,0.0,0.0,0.0,0.0,0.0,0.0,0.0,0.0,0.0,0.0,0.0,0.0,0.0,0.0,0.0,0.0,0.0,0.0,0.0,0.0,0.0,0.0,0.0,0.0,0.0,-1.0255,-1.3794,-1.9223,-1.8735,-1.9135,-1.9987,-1.6435,-1.4307,-1.3138,0.0,0.0,0.0,0.0,0.0,0.0,0.0,0.0,0.0,0.0,0.0,0.0,0.0,0.0,0.0,0.0,0.0,0.0,0.0,0.0,0.0,0.0,0.0,0.0,0.0,-0.8639,-0.8589,0.0,0.0,0.0,0.0,0.0,0.0,0.0,0.0,0.0,0.0,0.0,0.0,-0.8694,-0.9653,-1.0433,-1.0829,-1.0756,-1.052,-1.0123,-0.9672,-0.8981,-0.796,-0.6966,-0.6042,0.0,0.0,0.0,0.0,0.0,0.0,0.0,0.0,0.0,0.0,0.0,0.0,0.0,0.0,0.0,0.0,0.0,0.0,0.0,0.0,0.0,0.0,0.0,0.0,0.0,0.0,0.0,0.0,0.0,0.0,0.0,0.0,0.6747,0.6967,0.0,0.0,0.0,0.0,0.0,0.0,0.0,0.0,0.0,0.0,0.0,0.0,0.0,0.0,0.0766,0.1126,0.0627,-0.0754,-0.7741,-1.4387,-2.058,-2.1692,-2.2305,-2.2432,-2.1874,0.0,-1.4285,-1.1741,0.0,0.0,0.0,0.0,0.0,0.0,0.0,0.0,0.0,0.0,0.0,0.0,0.0,0.0,0.0,0.0,0.0,0.0,0.0,0.0,0.0,0.0,-0.9653,-0.913,-0.9472,-0.9725,0.0,-0.8337,-0.8009,-0.8462,0.0,0.0,0.0,0.0,0.0,0.0,0.0,0.0,-0.844,-0.9092,-0.9642,-0.9934,-0.9859,-0.9593,-0.9217,-0.8846,-0.8279,-0.7462,-0.6831,-0.6164,-0.548,-0.4956,0.0,0.0,0.0,0.0,0.0,0.0,0.0,0.0,0.0,0.0,0.0,0.0,0.0,0.0,0.0,0.0,0.0,0.0,0.0,0.0,0.0,0.0,0.0,0.0,0.0,0.0,0.0,0.0,0.0,0.7472,0.8473,0.774,0.8402,0.8652,0.0,0.0,0.0,0.0,0.0,0.0,0.0,0.0,0.0,1.4569,1.2567,1.2275,1.3986,0.5287,0.0897,0.0783,-0.7267,-1.497,-2.2119,-2.2647,-2.2859,-2.2669,-2.0345,-1.8435,-1.6557,-1.2094,-0.9073,-0.7243,0.0,0.0,0.0,0.0,0.0,-0.7017,-0.734,-0.9491,0.0,0.0,0.0,0.0,0.0,0.0,0.0,0.0,0.0,0.0,0.0,0.0,0.0,-0.9423,-0.9696,-0.9958,-0.9663,-0.912,-0.8675,0.0,-0.8641,-0.8555,-0.7766,0.0,0.0,0.0,0.0,0.0,-0.8662,-0.9305,-0.9748,-0.9679,-0.9619,-0.943,-0.9016,-0.885,-0.8375,-0.7418,-0.701,-0.6486,-0.5807,-0.5288,-0.4852,0.0,0.0,0.0,0.0,0.0,0.0,0.0,0.0,0.0,0.0,0.0,0.0,0.0,0.0,0.0,0.0,0.0,0.0,0.0,0.0,0.0,0.0,0.0,0.0,0.0,0.0,0.0,0.0,0.852,0.9656,0.8702,1.0113,1.0794,0.0,0.0,0.0,0.0,0.0,0.0,1.3352,1.5905,1.7525,1.7878,1.7106,1.9127,2.4238,0.8731,0.0897,0.0783,-0.9329,-1.731,-2.3086,-2.2944,-2.1638,-1.9479,-1.7438,-1.6537,-1.6201,-1.2066,-0.9268,-0.7677,-0.7675,-0.7821,-0.8007,-0.7757,-0.8071,-0.8562,-0.8338,-0.9766,-1.1723,-1.1873,0.0,-0.9933,-0.9525,0.0,0.0,0.0,0.0,-0.8894,-0.8936,-0.9375,-0.9743,-0.9661,-0.9813,-0.9999,-0.9999,-0.9802,-0.9455,0.0,-0.9291,-0.9308,-0.7993,0.0,0.0,0.0,0.0,-0.9188,-0.883,-0.93,-0.9567,-0.9303,-0.929,-0.9133,-0.8741,-0.8651,-0.8238,-0.7458,-0.7042,-0.6633,-0.6141,-0.5654,-0.525,-0.4919,0.0,0.0,0.0,0.0,0.0,0.0,0.0,0.0,0.0,0.0,0.0,0.0,0.0,0.0,0.0,0.0,0.0,0.0,0.0,0.0,0.0,0.0,0.0,0.0,0.0,0.0,0.0,0.0,0.0,0.9951,1.237,0.0,0.0,0.0,0.0,1.3128,1.4371,1.5296,1.5717,1.7908,1.9745,2.1039,2.0461,2.1546,2.4456,0.8794,0.0897,0.0726,-1.5003,-2.2718,-2.3086,-2.2833,-1.847,-1.1306,-1.4953,-1.4363,-1.0977,-1.1975,-1.1234,-0.9511,-1.0097,-1.0326,-1.0155,-0.8492,-0.842,-0.9179,-0.9138,-0.9788,-1.0671,-1.1171,-1.0475,-0.9506,-0.9919,-0.9592,0.0,0.0,-0.9318,-0.9638,-0.9624,-0.9792,-1.0005,-0.9972,-0.9988,-0.9999,-0.9999,-0.9988,-1.0,0.0,-0.9596,-0.9162,-0.9518,0.0,-0.8832,-0.8499,-0.8762,-0.8956,-0.8739,-0.8622,-0.854,-0.8463,-0.8422,-0.825,-0.7983,-0.7663,-0.7454,-0.7416,-0.6777,-0.6435,-0.6392,-0.6109,-0.5708,-0.5195,-0.4962,0.0,0.0,0.0,0.0,0.0,0.0,0.0,0.0,0.0,0.0,0.0,0.0,0.0,0.0,0.0,0.0,0.0,0.0,0.0,0.0,0.0,0.0,0.0,0.0,0.0,0.0,0.0,0.0,1.3734,1.5619,0.0,0.0,1.5593,1.5828,1.6537,1.6985,1.7677,1.8744,2.0366,2.1658,2.2441,2.2739,2.3391,2.4366,1.8854,1.0983,0.0726,-1.542,-2.3011,-2.2756,-1.9978,-1.7103,-1.4391,-1.4959,-1.4402,-1.3037,-1.2454,-1.1399,-1.0146,-0.9988,-0.9832,-0.9629,-0.9152,-0.9103,-0.9211,-0.9413,-1.0083,-1.0858,-1.1221,-1.0884,-1.0416,-1.0552,-1.0343,-1.0007,-1.0007,-1.0039,-1.0078,-0.9922,-0.986,-0.9844,-0.9777,-0.9725,-0.9725,-0.9725,-0.9725,-0.974,-0.9821,-0.9587,-0.9271,-0.9021,-0.916,-0.9155,-0.8719,-0.9061,-0.9326,-0.9129,-0.9059,-0.8901,-0.8696,-0.8632,-0.8408,-0.7863,-0.7708,-0.7498,-0.7096,-0.6702,-0.6357,-0.6143,-0.5882,-0.5569,-0.521,-0.4976,-0.4553,0.0,0.0,0.0,0.0,0.0,0.0,0.0,0.0,0.0,0.0,0.0,0.0,0.0,0.0,0.0,0.0,0.0,0.0,0.0,0.0,0.0,0.0,0.0,0.0,0.0,0.0,1.6061,1.6429,1.8336,1.9278,1.8394,1.8399,1.8699,1.9339,1.9472,1.9987,2.0955,2.2143,2.2976,2.332,2.4003,2.4375,2.4375,2.4465,1.6759,0.1397,-0.9725,-1.6278,-1.8484,-1.5739,-1.4863,-1.5431,-1.4304,-1.3554,-1.3085,-1.2313,-1.1416,-1.0466,-1.0043,-0.9781,-0.9629,-0.9666,-0.9562,-0.9413,-0.9614,-1.0182,-1.0858,-1.0968,-1.0926,-1.0773,-1.0773,-1.062,-1.0522,-1.0522,-1.0419,-1.0269,-1.0051,-0.9899,-0.974,-0.9618,-0.9614,-0.9614,-0.9614,-0.9614,-0.9614,-0.9614,-0.9548,-0.9415,-0.9003,-0.9215,-0.9295,-0.8926,-0.9076,-0.9264,-0.9186,-0.9041,-0.8851,-0.8599,-0.8585,-0.832,-0.7685,-0.7647,-0.7433,-0.693,-0.6654,-0.6385,-0.6137,-0.5915,-0.5645,-0.5341,-0.5022,-0.4735,-0.4552,0.0,0.0,0.0,0.0,0.0,0.0,0.0,0.0,0.0,0.0,0.0,0.0,0.0,0.0,0.0,0.0,0.0,0.0,0.0,0.0,0.0,0.0,0.0,1.4466,1.5951,1.7318,1.788,2.0373,2.1466,1.9985,2.1105,2.1772,2.1406,2.1757,2.2076,2.2225,2.3103,2.3665,2.3815,2.4257,2.45,2.45,2.45,1.74,0.3353,0.1671,-0.3115,-1.0573,-1.0545,-1.1592,-1.3355,-1.2802,-1.1805,-1.0612,-1.1602,-1.1416,-1.0522,-1.0522,-1.0466,-1.0411,-0.9976,-0.9814,-0.9814,-0.9817,-1.0138,-1.0522,-1.0522,-1.0522,-1.0522,-1.0522,-1.0522,-1.0522,-1.0522,-1.0419,-1.0269,-1.0051,-0.9899,-0.974,-0.9618,-0.9614,-0.9614,-0.9614,-0.9614,-0.9614,-0.9614,-0.9614,-0.9614,-0.9562,-0.9361,-0.9211,-0.9215,-0.884,0.0,-0.8956,-0.8537,-0.822,-0.8192,-0.8159,-0.7879,-0.737,-0.7347,-0.7263,-0.6904,-0.665,-0.6471,-0.6401,-0.6175,-0.5945,-0.5605,-0.5141,-0.5068,-0.538,0.0,0.0,0.0,0.0,0.0,0.0,0.0,0.0,0.0,0.0,0.0,0.0,0.0,0.0,0.0,0.0,0.0,0.0,0.0,0.0,0.0,0.0,1.6727,1.6517,1.8287,1.9985,2.1007,2.2291,2.3038,2.2908,2.2688,2.2648,2.2875,2.2338,2.2391,2.3307,2.3517,2.381,2.4284,2.4429,2.45,2.45,2.45,2.2482,1.8367,0.654,-0.3529,-1.1645,-1.1739,-1.1623,-1.1388,-1.2928,-1.2835,-1.1598,-1.1881,-1.1416,-1.0522,-1.0522,-1.0304,-0.9976,-0.9869,-0.9814,-0.9869,-1.0194,-1.0411,-1.0522,-1.0522,-1.0522,-1.0522,-1.0522,-1.0522,-1.0522,-1.0522,-1.0419,-1.0269,-1.0051,-0.9899,-0.974,-0.9618,-0.9614,-0.9614,-0.9614,-0.9614,-0.9614,-0.9614,-0.9614,-0.9562,-0.9364,-0.9312,-0.9263,-0.8959,-0.8906,0.0,-0.9008,-0.8854,-0.8712,-0.8518,-0.8456,-0.8258,-0.7712,-0.7446,-0.7207,-0.6976,-0.6493,-0.6191,-0.6109,-0.5851,-0.5713,-0.5599,-0.5338,-0.508,0.0,0.0,0.0,0.0,0.0,0.0,0.0,0.0,0.0,0.0,0.0,0.0,0.0,0.0,0.0,0.0,0.0,0.0,0.0,0.0,0.0,0.0,1.7966,1.9365,1.9685,2.0793,2.1976,2.3077,2.3626,2.3975,2.4135,2.3712,2.3518,2.3714,2.3197,2.3165,2.3846,2.3892,2.402,2.4275,2.4173,2.4196,2.436,2.2781,2.1427,2.0207,0.7118,-0.3321,-1.1047,-1.0239,-0.9961,0.0,-1.1739,-1.1888,-1.1094,-1.1308,-1.104,0.0,0.0,0.0,0.0,0.0,-1.0087,-1.0142,-1.0415,-1.0522,-1.0522,-1.0522,-1.0522,-1.0522,-1.0522,-1.0522,-1.0522,-1.0522,-1.0419,-1.0316,-1.0054,-0.9951,-0.9844,-0.9669,-0.9614,-0.9614,-0.9614,-0.9614,-0.9614,-0.9614,-0.9614,0.0,-0.9312,-0.9364,-0.9312,-0.9008,-0.9012,-0.8956,-0.8847,-0.8794,-0.8689,-0.8477,-0.8368,-0.8155,-0.7838,-0.7666,0.0,0.0,0.0,-0.6529,-0.6211,-0.5942,0.0,0.0,0.0,0.0,0.0,0.0,0.0,0.0,-0.4562,-0.4067,0.0,0.0,0.0,0.0,0.0,0.0,0.0,0.0,0.0,0.0,0.0,0.0,0.0,0.0,0.0,0.0,2.0406,2.2231,2.3182,2.3226,2.347,2.4264,2.4456,2.4469,2.4293,2.431,2.4256,2.4077,2.4067,2.4104,2.4155,0.0,0.0,0.0,0.0,2.3856,2.3859,2.0558,1.7423,1.4517,0.5772,-0.2043,-0.882,-0.7009,-0.741,-0.9491,-0.9936,-1.0025,-0.9817,-1.0304,-1.0522,-1.0522,-1.0522,-1.0522,-1.0522,-1.0522,-1.0522,-1.0522,-1.0522,0.0,0.0,-1.0522,-1.0522,-1.0522,-1.0522,-1.0522,-1.0522,-1.0522,-1.0522,-1.0415,-1.0106,-0.9999,-0.9943,-0.9666,-0.9614,-0.9614,-0.9614,-0.9614,-0.9614,-0.9614,-0.9614,-0.9562,-0.9465,-0.9409,-0.9364,-0.9211,-0.9057,-0.89,-0.8626,-0.8471,-0.8371,-0.8218,0.0,0.0,-0.7881,-0.7923,-0.7844,-0.7656,-0.7557,-0.7217,-0.6591,-0.6297,-0.6282,-0.6566,-0.6452,-0.6333,-0.6255,-0.6423,-0.5867,-0.4649,-0.442,-0.4038,0.0,0.0,0.0,0.0,0.0,0.0,0.0,0.0,0.0,0.0,0.0,0.0,0.0,0.0,0.0,2.11,2.2328,2.3418,2.4412,2.4722,2.4793,2.471,2.4732,2.476,2.4756,2.4623,2.4503,2.4405,2.4117,2.4292,2.5081,2.4905,0.0,2.5052,2.5267,2.4215,2.1815,2.1365,1.8948,1.4523,0.0,0.0,-0.3658,-0.4666,-0.6239,-0.8318,-0.9229,-0.9678,-0.9817,-1.0304,-1.0522,-1.0522,-1.0522,-1.0522,-1.0522,-1.0522,-1.0522,-1.0522,-1.0522,-1.0522,-1.0522,-1.0522,-1.0522,-1.0522,-1.0522,-1.0522,0.0,-1.0522,-1.0522,-1.0415,-1.0106,-0.9999,-0.9943,-0.9666,-0.9614,-0.9614,-0.9614,-0.9614,-0.9614,-0.9614,-0.9614,-0.9614,-0.9566,-0.9462,-0.9312,-0.9057,-0.9008,-0.89,-0.8626,-0.8573,-0.8527,-0.8371,-0.8318,-0.8349,-0.8449,-0.8226,-0.807,-0.8075,-0.7656,-0.7291,-0.7098,-0.6996,-0.6993,-0.7042,-0.6565,-0.6175,-0.5891,-0.5468,-0.5021,-0.4534,-0.4916,-0.4651,0.0,0.0,0.0,0.0,0.0,0.0,0.0,0.0,0.0,0.0,0.0,1.783,0.0,0.0,2.149,2.2831,2.3752,2.4503,2.5063,2.5287,2.5307,2.5083,2.5013,2.4998,2.4998,2.4887,2.4751,2.4657,2.44,2.4423,2.4781,2.4672,2.4547,2.445,2.4597,2.3973,2.2411,2.1158,1.9058,1.5977,1.0713,0.5585,0.0733,-0.1977,-0.4513,-0.6939,-0.8102,-0.8843,-0.9246,-0.9681,-1.0102,-1.047,-1.0249,-1.0304,-1.0522,-1.0522,-1.0522,-1.0522,-1.0522,-1.0522,-1.0522,-1.0522,-1.0522,-1.0522,-1.0522,-1.0522,-1.0522,-1.0522,-1.0522,-1.0415,-1.0106,-0.9999,-0.9943,-0.9666,-0.9614,-0.9614,-0.9614,-0.9614,-0.9614,-0.9614,-0.9614,-0.9614,-0.9614,-0.9566,-0.9409,-0.9208,-0.9162,-0.9001,-0.8844,-0.8682,-0.8573,-0.8527,-0.8421,-0.8474,-0.8573,-0.8498,-0.8416,-0.8316,-0.7898,-0.7594,-0.7398,-0.727,-0.7264,-0.7394,-0.6801,-0.6357,-0.6002,-0.5417,-0.4873,-0.4517,-0.4684,-0.4542,0.0,0.0,0.0,0.0,0.0,0.0,0.0,0.0,1.7112,1.8269,1.9256,2.0309,2.1615,2.2578,2.3396,2.4094,2.4796,2.5298,2.5397,2.5482,2.5463,2.534,2.5263,2.5207,2.5147,2.507,2.4963,2.4802,2.4645,2.4518,2.4412,2.4501,2.4396,2.4023,2.4083,2.3859,2.3279,2.0782,1.8702,1.6973,1.1747,0.7404,0.3929,0.0487,-0.2675,-0.5526,-0.712,-0.8075,-0.8567,-0.8998,-0.9681,-1.0304,-0.9925,-1.0087,-1.0522,-1.0522,-1.0522,-1.0522,-1.0522,-1.0522,-1.0522,-1.0522,-1.0518,-1.0621,-1.0621,-1.0621,-1.0621,-1.0621,-1.0573,-1.0419,-1.0158,-1.0051,-0.9947,-0.9673,-0.9618,-0.9614,-0.9614,-0.9614,-0.9614,-0.9614,-0.9614,-0.9614,-0.9614,-0.9614,-0.9562,-0.9413,-0.926,-0.9159,-0.9008,-0.8794,-0.8629,-0.8629,-0.853,-0.853,-0.8629,-0.8748,-0.8699,-0.8424,-0.8213,-0.7936,-0.7674,-0.747,-0.7458,-0.7671,-0.706,-0.6576,-0.6209,-0.5605,-0.5007,-0.4517,-0.4245,-0.4144,1.2744,1.3719,0.0,1.6377,1.6433,1.7013,0.0,0.0,2.0041,2.1759,2.2863,2.3587,2.3828,2.4589,2.5214,2.5308,2.5401,2.5469,2.5484,2.5553,2.5539,2.5402,2.5332,2.5293,2.5274,2.5158,2.5006,2.4804,2.4566,2.4643,2.5153,2.5341,2.5469,2.5463,2.576,2.4718,2.2205,2.0932,1.861,1.5314,1.1768,0.8276,0.4839,0.1961,-0.1111,-0.4223,-0.6813,-0.8041,-0.8386,-0.8939,-0.9465,-0.9869,-0.9814,-1.0087,-1.0522,-1.0522,-1.0522,-1.0522,-1.0522,-1.0522,-1.0522,-1.0522,-1.0681,-1.0939,-1.0939,-1.0939,-1.0939,-1.0939,-1.0713,-1.047,-1.0316,-1.011,-0.9947,-0.9792,-0.9677,-0.9614,-0.9614,-0.9614,-0.9614,-0.9614,-0.9614,-0.9614,-0.9614,-0.9614,-0.9562,-0.9413,-0.926,-0.9159,-0.9008,-0.8854,-0.8752,-0.8752,-0.8755,-0.8752,-0.8752,-0.8808,-0.8699,-0.8424,-0.8396,-0.8221,-0.7856,-0.7829,-0.7826,-0.7853,-0.7315,-0.6786,-0.6209,-0.5605,-0.5007,-0.4517,-0.4189,-0.3973,1.1317,0.0,0.0,0.0,1.8444,2.0482,2.1441,2.1857,2.2308,2.3213,2.4078,2.4687,2.4716,2.5054,2.5364,0.0,2.5468,2.5478,2.5603,2.5638,2.5636,2.5576,2.5444,2.5335,2.5245,2.5115,2.4993,2.4875,2.4582,2.4607,2.5053,2.4954,2.5068,2.5412,2.5079,2.4351,2.3223,2.0706,1.8466,1.6574,1.2065,0.8807,0.6606,0.3095,-0.0494,-0.4095,-0.6323,-0.7583,-0.8212,-0.8359,-0.8844,-0.9462,-0.9462,-0.9843,-1.0477,-1.049,-1.0601,-1.0776,-1.0776,-1.0903,-1.1062,-1.1062,-1.1165,-1.1285,-1.1285,-1.1552,-1.1839,-1.1531,-1.141,-1.1231,-1.0814,-1.0356,-0.9951,-0.9847,-0.9681,-0.9618,-0.9681,-0.9673,-0.9618,-0.9681,-0.9673,-0.9614,-0.9614,-0.9614,-0.9562,-0.9514,-0.9413,-0.9312,-0.9263,-0.911,-0.9008,-0.8906,-0.886,-0.8808,-0.8808,-0.8808,-0.8695,-0.8524,-0.8421,-0.8318,-0.8062,-0.7955,-0.7901,-0.7901,-0.7357,-0.681,-0.6209,-0.5605,-0.4954,-0.4301,-0.4079,-0.3968,1.0255,0.0,0.0,1.5731,1.8524,2.1223,2.1246,2.1935,2.2859,2.3934,2.4459,2.4778,2.4911,2.5045,0.0,2.5337,2.5346,2.5411,2.5588,2.5634,2.5643,2.5622,2.5498,2.5356,2.5187,2.508,2.4963,2.4803,2.4755,2.4783,2.4925,2.4962,2.5124,2.5374,2.4634,2.41,2.3819,2.0596,1.8406,1.733,1.2477,0.9457,0.794,0.3604,-0.0186,-0.3411,-0.5293,-0.668,-0.752,-0.761,-0.8206,-0.905,-0.9155,-0.972,-1.0408,-1.06,-1.0836,-1.1134,-1.1134,-1.1289,-1.1487,-1.1487,-1.1555,-1.1634,-1.1634,-1.1971,-1.2286,-1.2035,-1.1807,-1.1585,-1.1158,-1.0608,-1.0054,-0.9899,-0.9736,-0.9677,-0.9736,-0.9677,-0.9618,-0.9736,-0.9673,-0.9614,-0.9614,-0.9614,-0.9614,-0.9614,-0.9514,-0.9465,-0.9413,-0.926,-0.911,-0.9008,-0.8857,-0.8808,-0.8808,-0.8808,-0.8748,-0.8626,-0.8471,-0.8321,-0.8221,-0.8005,-0.7901,-0.7901,-0.7521,-0.6972,-0.6209,-0.5714,-0.5064,-0.4193,-0.4022,-0.3909,0.0,0.0,1.4091,1.4603,1.5495,1.7134,2.0605,2.078,2.1069,2.4142,2.4268,2.3988,2.4436,2.4793,2.5013,2.5013,2.5121,2.5248,2.5391,2.5472,2.5478,2.5424,2.5454,2.5389,0.0,2.5091,2.4931,2.4545,2.5167,2.5402,2.5012,2.5922,2.6266,2.5893,2.515,2.4265,2.3157,2.0773,1.8583,1.6563,1.3041,1.0411,0.8473,0.3202,-0.0063,-0.1712,-0.3604,-0.5084,-0.6086,-0.6689,-0.7608,-0.8679,-0.905,-0.972,-1.0434,-1.0817,-1.1189,-1.1475,-1.1475,-1.1479,-1.1487,-1.1487,-1.1721,-1.1999,-1.1999,-1.2003,-1.2041,-1.2243,-1.1676,-1.1071,-1.1273,-1.0769,-1.0265,-1.0054,-0.9899,-0.974,-0.9618,-0.9614,-0.9614,-0.9614,-0.9614,-0.9614,-0.9614,-0.9614,-0.9614,-0.9614,-0.9614,-0.9566,-0.9413,-0.9162,-0.9008,-0.9008,-0.8857,-0.8808,-0.8808,-0.8808,-0.8748,-0.8626,-0.8471,-0.8321,-0.8221,-0.8005,-0.7901,-0.7901,-0.7898,-0.73,-0.6209,-0.6036,-0.5386,-0.4193,-0.391,-0.3796,0.0,0.0,1.3517,1.3889,1.5827,1.8046,1.9541,2.0022,2.0493,2.1647,2.1908,2.1981,2.2159,2.2676,2.3163,2.3432,2.4109,2.4733,2.5087,2.5269,2.536,2.534,2.5389,0.0,0.0,0.0,0.0,2.4716,2.5212,2.5484,2.5338,2.591,2.6164,2.5983,2.496,2.4171,2.3634,2.08,1.8841,1.7648,1.288,0.9078,0.6147,0.2896,0.0691,-0.0857,-0.3376,-0.4812,-0.5475,-0.6578,-0.7458,-0.8212,-0.8945,-0.9685,-1.0422,-1.1098,-1.1694,-1.2166,-1.1924,-1.1999,-1.2202,-1.2202,-1.2285,-1.2381,-1.2381,-1.2671,-1.2944,-1.2687,-1.2591,-1.2381,-1.1799,-1.1203,-1.0659,-1.0098,-0.9951,-0.9899,-0.9736,-0.9736,-0.9736,-0.9736,-0.9673,-0.9614,-0.9614,-0.9614,-0.9718,-1.0087,-0.9821,-0.9562,-0.9562,-0.9662,-0.9614,-0.9159,-0.9309,-0.926,-0.8857,-0.8808,-0.8804,-0.8748,-0.853,-0.8371,-0.8321,-0.8058,-0.7901,-0.7901,-0.7735,-0.7136,-0.6209,-0.5884,-0.5175,-0.4079,-0.3909,-0.3785,0.0,0.9798,1.1786,1.2156,1.3782,1.5756,1.7412,1.7858,1.8329,1.9806,2.0002,1.998,2.0323,2.0598,2.1108,2.207,2.2813,2.3582,2.4471,2.4846,2.5091,2.5279,2.5337,0.0,0.0,0.0,0.0,2.4818,2.5501,2.5841,2.5638,2.6251,2.6487,2.6183,2.5004,2.4202,2.3776,2.1069,1.8653,1.6483,1.2301,0.8717,0.5709,0.3488,0.176,0.0305,-0.225,-0.3896,-0.4871,-0.6195,-0.7128,-0.787,-0.878,-0.9636,-1.0464,-1.1161,-1.1937,-1.2532,-1.2293,-1.2365,-1.2625,-1.2858,-1.2801,-1.2625,-1.2862,-1.3033,-1.3137,-1.2873,-1.2819,-1.2735,-1.2223,-1.1544,-1.0869,-1.0486,-1.0253,-1.0054,-0.9847,-0.9799,-0.9795,-0.9736,-0.9873,-0.9917,-0.9873,-1.0024,-1.0285,-1.0651,-1.0387,-1.0075,-0.9928,-1.0072,-1.0012,-0.9614,-0.9913,-0.9965,-0.9462,-0.9263,-0.9162,-0.9113,-0.8636,-0.8424,-0.8424,-0.8058,-0.7901,-0.7901,-0.7738,-0.719,-0.6315,-0.5887,-0.5177,-0.4189,-0.39,-0.3793,0.876,0.9061,0.9198,0.9717,0.9781,1.0655,1.4354,1.4457,1.4809,1.8498,1.8394,1.7924,0.0,0.0,1.8939,2.0891,2.1345,2.2035,2.3649,2.4233,2.4706,0.0,0.0,0.0,0.0,0.0,0.0,2.4969,0.0,2.6487,2.5982,2.6895,2.712,2.6438,2.5215,2.4217,2.3435,2.1383,1.8049,1.3373,1.1468,0.9385,0.7172,0.4863,0.3089,0.1708,-0.0415,-0.2414,-0.4283,-0.5496,-0.6611,-0.7601,-0.8621,-0.9653,-1.0594,-1.113,-1.1824,-1.256,-1.256,-1.2625,-1.2683,-1.3273,-1.3099,-1.2744,-1.3273,-1.3099,-1.2671,-1.2781,-1.2434,-1.2146,-1.2476,-1.185,-1.1067,-1.1017,-1.0624,-1.0213,-0.9899,-0.9847,-0.9844,-0.9669,-1.0167,-1.0576,-1.0395,-1.0854,-1.1255,-1.1255,-1.1255,-1.1057,-1.0502,-1.0383,-1.0265,-1.0265,-1.0614,-1.0767,-1.0614,-1.0115,-0.9766,-0.9614,-0.889,-0.8424,-0.8424,-0.8058,-0.7901,-0.7901,-0.7901,-0.7461,-0.6645,-0.6046,-0.5336,-0.4522,-0.4041,-0.3815,0.9092,0.9868,1.0448,1.0694,1.0913,1.1269,1.2326,1.2954,1.3526,1.4424,1.4386,1.425,0.0,0.0,0.0,1.8215,2.0729,0.0,2.3376,2.4196,0.0,0.0,0.0,2.5536,2.6155,2.6219,0.0,0.0,2.6755,2.6626,2.6634,2.6562,2.6189,2.5489,2.3907,2.2763,2.2157,1.996,1.7402,1.4515,1.2486,1.0243,0.7697,0.5287,0.3445,0.1957,-0.0061,-0.2021,-0.386,-0.5223,-0.6452,-0.7621,-0.8845,-0.9604,-1.0157,-1.1003,-1.1582,-1.2058,-1.2436,-1.2625,-1.2625,-1.2801,-1.3038,-1.3216,-1.292,-1.3038,-1.3191,-1.2749,-1.2991,-1.3182,-1.236,-1.2226,-1.2044,-1.1084,-1.0661,-1.0415,-1.0403,-1.0549,-1.0604,-1.0241,-1.0344,-1.0442,-1.0399,-1.1213,-1.1868,-1.1868,-1.1868,-1.1665,-1.1053,-1.136,-1.1397,-1.0868,-1.1183,-1.1183,-1.0665,-1.0364,-1.0064,-0.9614,-0.9204,-0.8844,-0.8421,-0.8058,-0.7901,-0.7901,-0.7684,-0.7408,-0.6974,-0.5934,-0.5226,-0.4794,-0.4098,-0.3803,0.8912,0.9486,0.9825,0.998,1.0075,1.0195,1.0502,1.1036,1.1459,1.1594,1.1518,0.0,0.0,0.0,0.0,0.0,0.0,0.0,2.2628,2.3503,2.4041,0.0,2.4678,0.0,2.6242,2.641,2.677,0.0,2.7262,2.7098,2.7127,2.6799,2.6376,2.589,2.4374,2.2913,2.1607,1.9571,1.7379,1.4994,1.3104,1.094,0.8358,0.6117,0.4368,0.2945,0.0,-0.1254,-0.292,-0.4574,-0.6036,-0.7373,-0.8444,-0.9312,-1.0174,-1.0912,-1.1457,-1.1868,-1.2432,-1.2625,-1.2625,-1.292,-1.3033,-1.3155,-1.3398,-1.3281,-1.3099,-1.3038,-1.3126,-1.3175,-1.2607,-1.2312,-1.2019,-1.1448,-1.0912,-1.0569,-1.0757,-1.0901,-1.1049,-1.1238,-1.12,-1.1263,-1.151,-1.2071,-1.2426,-1.2426,-1.2426,-1.2323,-1.1968,-1.2022,-1.1918,-1.1543,-1.1904,-1.1959,-1.1493,-1.1133,-1.0783,-1.0387,-0.9773,-0.9256,-0.8791,-0.8424,-0.8109,-0.7901,-0.7738,-0.7521,-0.7249,-0.6258,-0.5701,-0.5512,-0.4822,-0.4559,0.8577,0.8643,0.8474,0.8577,0.8495,0.8519,0.9007,0.9061,0.9132,0.9584,0.0,0.0,1.01,0.0,1.2971,1.5763,0.0,1.9338,2.1742,2.2582,2.3051,2.3387,2.4114,2.4984,2.5981,2.624,2.6654,2.7412,2.7544,2.7551,2.7437,2.7069,2.671,2.6352,2.5134,2.3481,2.1375,1.9642,1.7481,1.4873,1.3381,1.133,0.8837,0.7004,0.5415,0.3994,0.0,0.0,-0.1856,-0.3827,-0.5481,-0.6839,-0.7768,-0.8945,-1.0107,-1.0797,-1.124,-1.1681,-1.2375,-1.2564,-1.2617,-1.3212,-1.3094,-1.2924,-1.4052,-1.3636,-1.2981,-1.3515,-1.3277,-1.2893,-1.3093,-1.2449,-1.1775,-1.197,-1.1285,-1.0718,-1.1057,-1.1103,-1.1347,-1.2267,-1.229,-1.2318,-1.2876,-1.2929,-1.2929,-1.2881,-1.2881,-1.2881,-1.2881,-1.2475,-1.2229,-1.2229,-1.2632,-1.2779,-1.2529,-1.2013,-1.156,-1.1322,-1.0435,-0.9714,-0.9312,-0.8837,-0.8418,-0.8005,-0.7955,-0.7791,-0.7574,-0.6799,-0.6459,-0.6369,-0.5713,-0.5525,0.8629,0.8755,0.8699,0.8477,0.8394,0.8267,0.8095,0.7785,0.0,0.0,0.0,0.7167,0.7648,0.9634,0.0,1.3888,0.0,0.0,0.0,0.0,2.2705,0.0,0.0,0.0,0.0,0.0,0.0,0.0,0.0,2.7239,2.7546,2.6387,2.5026,2.3573,2.2767,2.1746,2.0517,1.8987,1.6948,1.4387,1.3202,1.1067,0.8134,0.6935,0.5375,0.3611,0.0,0.0,-0.1224,-0.3415,-0.4743,-0.5644,-0.7618,-0.8581,-0.9005,-1.0475,-1.08,-1.0744,-1.2123,-1.2309,-1.2054,-1.2556,-1.3038,-1.3394,-1.3631,-1.3932,-1.4172,-1.4291,-1.4231,-1.408,-1.3586,-1.3186,-1.2832,-1.2373,-1.1713,-1.1272,-1.1669,-1.161,-1.1697,-1.2418,-1.2467,-1.2335,-1.2358,-1.2774,-1.3032,-1.2929,-1.2881,-1.2881,-1.2881,-1.2832,-1.2779,-1.2779,-1.2735,-1.2676,-1.2524,-1.2323,-1.1923,-1.1322,-1.0787,-1.0214,-0.9714,-0.8988,-0.8577,-0.8471,-0.8112,-0.7901,-0.7848,-0.7128,-0.6817,-0.6758,-0.6063,-0.5761,0.7343,0.756,0.7613,0.7343,0.7471,0.7456,0.6484,0.0,0.0,0.0,0.0,0.5815,0.6329,0.0,0.0,0.0,0.0,0.0,0.0,0.0,0.0,0.0,0.0,0.0,0.0,0.0,0.0,0.0,0.0,2.6958,2.7314,2.6027,2.4703,2.3349,2.2229,2.1317,2.0549,1.88,1.6879,1.4687,1.3714,1.1492,0.8303,0.7447,0.5954,0.3909,0.267,0.0,-0.0574,-0.2401,-0.391,-0.5286,-0.7215,-0.8164,-0.8681,-1.0408,-1.0863,-1.0863,-1.212,-1.2432,-1.2243,-1.2371,-1.267,-1.2964,-1.3385,-1.3687,-1.3988,-1.435,-1.4137,-1.3691,-1.3429,-1.2728,-1.2096,-1.2154,-1.2125,-1.2049,-1.1963,-1.2058,-1.2201,-1.254,-1.2545,-1.2496,-1.2686,-1.291,-1.308,-1.3027,-1.2929,-1.2881,-1.2881,-1.2881,-1.2881,-1.2881,-1.2832,-1.2735,-1.2627,-1.248,-1.2229,-1.1828,-1.1405,-1.0884,-1.0265,-0.9703,-0.919,-0.8626,-0.8365,-0.8162,-0.7901,-0.7461,-0.7247,-0.7376,-0.68,-0.6648,0.6206,0.6369,0.6477,0.6263,0.655,0.6517,0.5176,0.4971,0.0,0.0,0.0,0.4977,0.5657,0.0,0.0,0.0,0.0,0.0,0.0,0.0,0.0,0.0,0.0,0.0,0.0,0.0,0.0,0.0,0.0,0.0,2.6589,2.5706,2.4763,2.3778,2.2288,2.1228,2.0643,1.8649,1.6691,1.4787,1.4048,1.1933,0.8677,0.811,0.6623,0.4386,0.3198,0.0,0.0,-0.1364,-0.3028,-0.4812,-0.6326,-0.7445,-0.8417,-0.9999,-1.0727,-1.0989,-1.2058,-1.2432,-1.2432,-1.2305,-1.2305,-1.2425,-1.3208,-1.339,-1.3506,-1.441,-1.3943,-1.3213,-1.3405,-1.2379,-1.1471,-1.1904,-1.2339,-1.2526,-1.2241,-1.2353,-1.2554,-1.2749,-1.2657,-1.2706,-1.317,-1.3195,-1.3172,-1.3128,-1.3022,-1.2973,-1.3017,-1.2973,-1.2978,-1.3017,-1.2978,-1.2832,-1.2725,-1.2578,-1.2426,-1.2328,-1.1927,-1.141,-1.0779,-1.0419,-0.9758,-0.8732,-0.8626,-0.8368,-0.7901,-0.7681,-0.7618,-0.7753,-0.748,-0.7411,0.6152,0.6209,0.6206,0.6209,0.6113,0.5778,0.4981,0.0,0.0,0.0,0.4301,0.4628,0.5534,0.0,0.0,0.0,0.0,0.0,0.0,0.0,0.0,0.0,0.0,0.0,0.0,0.0,0.0,0.0,0.0,0.0,2.5013,2.5132,2.4704,2.3636,2.2221,2.1052,2.0077,1.8079,1.602,1.3904,1.3476,1.1746,0.8948,0.8465,0.7089,0.4952,0.3625,0.0,0.0,-0.0637,-0.194,-0.3259,-0.4899,-0.6215,-0.7498,-0.8836,-0.9767,-1.0491,-1.149,-1.1868,-1.193,-1.2182,-1.2305,-1.2428,-1.3086,-1.3329,-1.3563,-1.4932,-1.4577,-1.3732,-1.38,-1.3163,-1.2389,-1.205,-1.2053,-1.2197,-1.2623,-1.2388,-1.2349,-1.3324,-1.3122,-1.2919,-1.3319,-1.3372,-1.3286,-1.3123,-1.3147,-1.3271,-1.352,-1.3258,-1.322,-1.3478,-1.3157,-1.2832,-1.2725,-1.2578,-1.2426,-1.2328,-1.1927,-1.1573,-1.1267,-1.0584,-0.9862,-0.9155,-0.8788,-0.8368,-0.7901,-0.7848,-0.775,-0.7509,-0.764,-0.7563,0.4832,0.5309,0.5607,0.534,0.5535,0.5434,0.4274,0.0,0.0,0.3688,0.3902,0.4391,0.5294,0.607,0.0,0.0,0.0,0.0,0.0,0.0,0.0,0.0,0.0,0.0,0.0,0.0,0.0,0.0,0.0,0.0,2.4506,2.4185,2.3728,2.3153,2.1653,2.0468,1.9716,1.8004,1.638,1.475,1.3888,1.2397,1.0298,0.8908,0.7417,0.5801,0.4306,0.0,0.0,0.0059,-0.1144,-0.2122,-0.4423,-0.563,-0.628,-0.8423,-0.9372,-0.9828,-1.1296,-1.1613,-1.1483,-1.1993,-1.1978,-1.1787,-1.2419,-1.2842,-1.321,-1.3623,-1.3397,-1.299,-1.2755,-1.2241,-1.1804,-1.1604,-1.2049,-1.2433,-1.2339,-1.2384,-1.2628,-1.3021,-1.2967,-1.2962,-1.3415,-1.3462,-1.3372,-1.3291,-1.32,-1.3157,-1.3306,-1.3118,-1.3027,-1.3157,-1.3022,-1.2881,-1.2832,-1.2627,-1.248,-1.2426,-1.2126,-1.1823,-1.1573,-1.1108,-1.0435,-0.9462,-0.9099,-0.8633,-0.7901,-0.7901,-0.7845,-0.775,-0.7925,-0.7917,0.377,0.4419,0.4936,0.4673,0.4941,0.4908,0.0,0.0,0.3432,0.3276,0.3605,0.4227,0.5208,0.5786,0.6608,0.0,0.0,0.0,0.0,0.0,0.0,0.0,0.0,0.0,0.0,0.0,0.0,0.0,0.0,0.0,0.0,2.3769,2.325,2.2864,2.1275,2.0221,1.9847,1.8147,1.6786,1.5728,1.4422,1.3047,1.1495,0.9387,0.7781,0.6546,0.0,0.0,0.0,0.1054,-0.0119,-0.132,-0.3271,-0.4486,-0.5385,-0.7271,-0.8485,-0.9304,-1.0479,-1.0988,-1.1215,-1.1473,-1.1421,-1.1267,-1.1567,-1.2134,-1.2761,-1.2739,-1.2521,-1.2286,-1.2013,-1.1618,-1.1322,-1.1469,-1.2049,-1.2482,-1.229,-1.2433,-1.2677,-1.2967,-1.2914,-1.2962,-1.3467,-1.3467,-1.3372,-1.3334,-1.3205,-1.3167,-1.3215,-1.3075,-1.2978,-1.3113,-1.2973,-1.2881,-1.2881,-1.2627,-1.248,-1.248,-1.2229,-1.1977,-1.1723,-1.1523,-1.0854,-0.9614,-0.9409,-0.8844,-0.7901,-0.7901,-0.7848,-0.7803,-0.8043,-0.8178,0.3323,0.3818,0.4248,0.4454,0.4464,0.4178,0.0,0.3099,0.3038,0.309,0.3474,0.4171,0.5375,0.5924,0.6517,0.7458,0.0,0.0,0.0,0.0,0.0,0.0,0.0,0.0,0.0,0.0,0.0,0.0,0.0,0.0,0.0,2.4183,2.369,2.3021,2.1327,2.0448,2.0606,1.8415,1.7079,1.6585,1.4903,1.3522,1.2396,0.9866,0.8122,0.0,0.0,0.0,0.0,0.2458,0.1116,-0.0898,-0.11,-0.2627,-0.4857,-0.5077,-0.6759,-0.8961,-0.8744,-0.9774,-1.1193,-1.0592,-1.0712,-1.105,-1.0709,-1.1349,-1.2166,-1.2567,-1.2338,-1.1896,-1.1968,-1.1669,-1.1418,-1.1859,-1.2004,-1.2143,-1.2672,-1.2384,-1.23,-1.3372,-1.3165,-1.2914,-1.3314,-1.3415,-1.3329,-1.3123,-1.3147,-1.3314,-1.3568,-1.3306,-1.322,-1.3573,-1.3157,-1.2881,-1.2881,-1.2627,-1.248,-1.248,-1.2229,-1.1977,-1.1723,-1.1723,-1.1006,-0.9614,-0.9614,-0.9044,-0.7901,-0.7901,-0.7791,-0.7532,-0.7983,-0.8112,0.2185,0.2578,0.2932,0.3021,0.2935,0.2721,0.2267,0.2142,0.2202,0.2546,0.2988,0.3687,0.4904,0.5555,0.6647,0.8878,0.9651,0.0,0.0,0.0,0.0,0.0,0.0,0.0,0.0,0.0,0.0,0.0,0.0,0.0,0.0,2.4379,2.3808,2.3085,2.2275,2.1341,2.0325,1.9536,1.8422,1.6993,1.5604,1.4466,1.3512,1.0989,0.0,0.0,0.0,0.0,0.0,0.2745,0.1616,0.0232,-0.0777,-0.1874,-0.3088,-0.4384,-0.5394,-0.6339,-0.7898,-0.8466,-0.8688,-0.9971,-1.0158,-0.996,-1.0461,-1.0965,-1.1414,-1.1523,-1.1247,-1.0964,-1.0947,-1.112,-1.1322,-1.1469,-1.176,-1.2147,-1.2667,-1.2672,-1.2774,-1.3467,-1.3467,-1.3367,-1.3515,-1.3515,-1.352,-1.3435,-1.3377,-1.3314,-1.3319,-1.3205,-1.3128,-1.3113,-1.2973,-1.2881,-1.2881,-1.273,-1.2627,-1.2627,-1.2382,-1.2175,-1.2126,-1.1673,-1.1053,-1.0316,-0.9913,-0.9302,-0.8365,-0.8365,-0.8345,-0.8318,-0.8486,-0.8722,0.0,0.1789,0.2129,0.2147,0.2024,0.1818,0.1538,0.1515,0.1668,0.2086,0.2975,0.3965,0.4914,0.5772,0.696,0.8892,0.967,0.0,0.0,0.0,0.0,0.0,0.0,0.0,0.0,0.0,0.0,0.0,0.0,0.0,0.0,2.4613,2.4146,2.3424,2.2812,2.1891,2.0645,2.0224,1.9279,1.7814,1.6612,1.5513,1.4471,1.217,0.0,0.0,0.0,0.0,0.0,0.3812,0.2755,0.167,0.047,-0.0652,-0.1842,-0.3306,-0.4096,-0.4785,-0.6829,-0.7462,-0.7588,-0.9131,-0.9429,-0.9251,-1.0108,-1.0594,-1.0877,-1.1004,-1.0744,-1.0573,-1.0773,-1.1171,-1.1565,-1.1565,-1.195,-1.2339,-1.2482,-1.2672,-1.2914,-1.3213,-1.3467,-1.3568,-1.3515,-1.3515,-1.352,-1.3467,-1.3367,-1.3314,-1.3213,-1.3157,-1.3085,-1.2983,-1.2929,-1.2881,-1.2881,-1.273,-1.2627,-1.2627,-1.2377,-1.2224,-1.2224,-1.1823,-1.1305,-1.0767,-1.0214,-0.9609,-0.8888,-0.8732,-0.8686,-0.8825,-0.8825,-0.8939,0.0,0.1271,0.1662,0.1662,0.1535,0.131,0.108,0.1133,0.0,0.1662,0.3161,0.4629,0.5389,0.6379,0.7356,0.8154,0.9035,0.0,0.0,0.0,0.0,0.0,0.0,0.0,0.0,0.0,0.0,0.0,0.0,0.0,0.0,2.4868,2.4591,2.3935,2.3085,2.2211,2.1379,2.0548,1.9758,1.8954,1.7831,1.6638,1.5375,1.3356,0.0,0.0,0.0,0.0,0.0,0.5487,0.4385,0.322,0.2345,0.0838,-0.0894,-0.178,-0.2831,-0.4104,-0.5546,-0.6598,-0.7404,-0.812,-0.8521,-0.8879,-0.9732,-1.0166,-1.047,-1.0851,-1.0724,-1.062,-1.112,-1.1615,-1.1954,-1.2004,-1.2384,-1.2623,-1.2197,-1.2486,-1.2812,-1.2812,-1.3213,-1.3568,-1.3367,-1.3367,-1.3367,-1.3213,-1.3213,-1.3218,-1.317,-1.3157,-1.3085,-1.3085,-1.2978,-1.2881,-1.2881,-1.2676,-1.2529,-1.2529,-1.2278,-1.2126,-1.2076,-1.2022,-1.1656,-1.0965,-1.0387,-0.9884,-0.9367,-0.8943,-0.881,-0.9129,-0.9129,-0.8902,-0.0076,0.0,0.0357,0.0415,0.0264,0.0159,0.0,0.0439,0.0711,0.0,0.0,0.0,0.6165,0.6385,0.7422,0.0,0.0,0.0,0.0,0.0,0.0,0.0,0.0,0.0,0.0,0.0,0.0,0.0,0.0,0.0,0.0,2.4949,2.4659,2.4155,2.3926,2.3216,2.2009,2.1786,2.0958,1.9519,1.8603,1.7687,1.6693,1.4536,0.0,0.0,0.0,0.0,0.7068,0.5692,0.4548,0.3549,0.2455,0.1287,0.0168,-0.067,-0.2132,-0.3733,-0.4072,-0.4798,-0.5769,-0.7461,-0.8034,-0.8296,-0.9253,-0.9523,-0.9637,-1.0434,-1.0534,-1.0522,-1.0671,-1.107,-1.1565,-1.1909,-1.2103,-1.2393,-1.3074,-1.3016,-1.2812,-1.2812,-1.3213,-1.3467,-1.3016,-1.3266,-1.352,-1.3362,-1.3362,-1.3281,-1.3157,-1.3123,-1.308,-1.2978,-1.2929,-1.2881,-1.2881,-1.2832,-1.2832,-1.2832,-1.2524,-1.2224,-1.176,-1.1368,-1.0905,-1.0265,-0.9695,-0.9319,-0.9105,-0.8831,-0.881,-0.9129,-0.9129,-0.9024,-0.0247,-0.022,-0.0211,-0.0151,-0.0283,-0.0367,-0.0101,0.0,0.0,0.0,0.0,0.0,0.0,0.0,0.0,0.0,0.0,0.0,0.0,0.0,0.0,0.0,0.0,0.0,0.0,0.0,0.0,0.0,0.0,0.0,0.0,2.5113,2.4864,2.4407,2.4283,2.3581,2.2221,2.2281,2.1586,2.0165,1.967,1.8804,1.763,1.6131,1.4457,0.0,0.0,0.0,0.8403,0.7188,0.5952,0.4811,0.3722,0.2623,0.14,0.0167,-0.19,-0.3999,-0.4019,-0.4723,-0.5764,-0.6845,-0.7545,-0.8031,-0.8778,-0.9103,-0.9312,-0.9988,-1.0304,-1.0569,-1.082,-1.1074,-1.1464,-1.2192,-1.2388,-1.253,-1.3117,-1.3213,-1.3112,-1.2866,-1.3213,-1.3467,-1.3165,-1.3314,-1.3467,-1.3319,-1.3319,-1.3276,-1.3147,-1.3118,-1.308,-1.2983,-1.2929,-1.2881,-1.2881,-1.2881,-1.2832,-1.273,-1.2475,-1.2071,-1.1514,-1.1469,-1.1057,-1.0214,-0.9857,-0.9485,-0.9095,-0.9157,-0.9242,-0.9259,-0.9259,-0.9208,-0.0069,-0.0104,-0.023,-0.0195,-0.0336,-0.0397,-0.0084,0.0,0.0,0.0,0.0,0.0,0.0,0.0,0.0,0.0,0.0,0.0,0.0,0.0,0.0,0.0,0.0,0.0,0.0,0.0,0.0,0.0,0.0,0.0,0.0,2.5273,2.5091,2.4629,2.4446,2.3739,2.2461,2.2557,2.2026,2.0951,2.0756,1.9932,1.8528,1.7683,1.6008,0.0,0.0,0.0,1.0052,0.8947,0.7679,0.6293,0.5316,0.4062,0.2628,0.0834,-0.1506,-0.389,-0.425,-0.5056,-0.6029,-0.6303,-0.6902,-0.7658,-0.8359,-0.8784,-0.9152,-0.9658,-1.0138,-1.062,-1.1074,-1.1221,-1.1514,-1.2384,-1.2623,-1.2672,-1.2774,-1.3122,-1.3324,-1.2822,-1.317,-1.3467,-1.3271,-1.3266,-1.3218,-1.3175,-1.3127,-1.3069,-1.3122,-1.3104,-1.3032,-1.2978,-1.2832,-1.2779,-1.2779,-1.2779,-1.2681,-1.2524,-1.2278,-1.1877,-1.1322,-1.1669,-1.1401,-1.0368,-1.0287,-0.9891,-0.9282,-0.9662,-0.9673,-0.9484,-0.9484,-0.935,0.042,0.0508,0.0411,0.0321,0.014,0.006,0.0283,0.0,0.0,0.0,0.0,0.0,0.0,0.0,0.0,0.0,0.0,0.0,0.0,0.0,0.0,0.0,0.0,0.0,0.0,0.0,0.0,0.0,0.0,0.0,0.0,2.5292,2.5113,2.4702,2.4595,2.4264,2.3653,2.3218,2.2695,2.2062,2.1681,2.1038,2.0097,1.8392,1.7236,0.0,0.0,1.2201,1.1563,0.9393,0.801,0.7162,0.5531,0.433,0.3282,0.1672,0.0335,-0.1005,-0.3011,-0.3846,-0.4283,-0.5867,-0.6206,-0.6265,-0.7937,-0.8458,-0.86,-0.9399,-1.0039,-1.0522,-1.062,-1.0972,-1.1322,-1.1514,-1.1805,-1.2201,-1.2554,-1.2701,-1.2706,-1.2564,-1.2939,-1.3127,-1.2715,-1.2589,-1.2677,-1.3065,-1.2657,-1.2505,-1.2871,-1.2925,-1.2779,-1.2278,-1.2229,-1.2224,-1.2224,-1.2126,-1.2175,-1.248,-1.2475,-1.2076,-1.1322,-1.0889,-1.0521,-1.0265,-1.0236,-1.0057,-0.9727,-0.9777,-0.9673,-0.9484,-0.9484,-0.935,0.0466,0.0638,0.0814,0.1309,0.1049,0.0707,0.078,0.0,0.0,0.0,0.0,0.0,0.0,0.0,0.0,0.0,0.0,0.0,0.0,0.0,0.0,0.0,0.0,0.0,0.0,0.0,0.0,0.0,0.0,0.0,0.0,0.0,2.5136,2.4771,2.4685,2.4519,2.4229,2.3723,2.3168,2.2556,2.198,2.1452,2.0942,1.9416,1.8289,1.7384,0.0,1.3875,1.2396,1.1044,0.9581,0.8106,0.6827,0.519,0.3377,0.1339,0.0336,-0.0279,-0.2009,-0.307,-0.3846,-0.5164,-0.5769,-0.6206,-0.7182,-0.7931,-0.856,-0.9037,-0.9614,-1.0245,-1.0765,-1.0655,-1.0592,-1.1392,-1.1451,-1.1501,-1.194,-1.2281,-1.2486,-1.2442,-1.2876,-1.3127,-1.2876,-1.2554,-1.2344,-1.252,-1.2323,-1.222,-1.2426,-1.273,-1.2832,-1.2578,-1.2274,-1.2076,-1.2076,-1.1706,-1.1701,-1.2328,-1.2071,-1.1678,-1.1322,-1.0383,-0.9896,-0.9969,-0.9767,-0.9623,-0.9562,-0.9731,-0.9673,-0.9484,-0.9484,-0.9417,0.0565,0.0852,0.1282,0.215,0.0,0.1355,0.1634,0.0,0.0,0.0,0.0,0.0,0.0,0.0,0.0,0.0,0.0,0.0,0.0,0.0,0.0,0.0,0.0,0.0,0.0,0.0,0.0,0.0,0.0,0.0,0.0,0.0,2.5169,2.4879,2.4764,2.4635,2.4512,2.4058,2.3535,2.2972,2.2298,2.1832,2.1424,2.0343,1.9163,1.7938,1.7029,1.5304,1.317,1.2391,1.0898,0.8995,0.7906,0.5889,0.3373,0.1506,0.0503,-0.0112,-0.1062,-0.2346,-0.3687,-0.4401,-0.5164,-0.5977,-0.6477,-0.7337,-0.8187,-0.856,-0.9086,-0.9766,-1.0858,-1.0596,-1.0269,-1.1174,-1.1183,-1.104,-1.1179,-1.1575,-1.1972,-1.2428,-1.2725,-1.289,-1.3027,-1.2363,-1.1859,-1.2076,-1.1873,-1.1769,-1.1868,-1.2269,-1.2421,-1.226,-1.1909,-1.166,-1.1714,-1.1229,-1.1225,-1.1909,-1.146,-1.1108,-1.1108,-1.0127,-0.9764,-0.9973,-0.9616,-0.9456,-0.9579,-0.9734,-0.9673,-0.9484,-0.9484,-0.9484,0.0987,0.147,0.1956,0.246,0.0,0.0,0.3154,0.0,0.0,0.0,0.0,0.0,0.0,0.0,0.0,0.0,0.0,0.0,0.0,0.0,0.0,0.0,0.0,0.0,0.0,0.0,0.0,0.0,0.0,0.0,0.0,0.0,0.0,2.5082,2.4832,2.467,2.4589,2.4125,2.3744,2.3446,2.3085,2.2495,2.1655,2.0871,1.9936,1.8821,1.7261,1.5668,1.3989,1.2667,1.1178,0.9603,0.8069,0.5901,0.3557,0.3408,0.1902,-0.0,-0.0112,-0.1677,-0.3592,-0.3687,-0.4012,-0.4615,-0.5977,-0.6571,-0.694,-0.7859,-0.8402,-0.8995,-1.0253,-1.0952,-1.1137,-1.0348,-1.0834,-1.1271,-1.0344,-1.015,-1.0706,-1.252,-1.2358,-1.2112,-1.2779,-1.1615,-1.0909,-1.1923,-1.1213,-1.0702,-1.1204,-1.1305,-1.1095,-1.0474,-1.0368,-1.0372,-1.0517,-1.0716,-1.0864,-1.0918,-1.0771,-1.0568,-1.047,-1.0368,-1.0422,-1.0551,-1.0284,-1.0148,-1.0157,-0.9913,-0.9673,-0.9484,-0.9484,-0.9484,0.0799,0.1415,0.2081,0.2542,0.0,0.0,0.0,0.0,0.0,0.0,0.0,0.0,0.0,0.0,0.0,0.0,0.0,0.0,0.0,0.0,0.0,0.0,0.0,0.0,0.0,0.0,0.0,0.0,0.0,0.0,0.0,0.0,0.0,2.5166,2.4856,2.4713,2.4725,2.4302,2.3959,2.3692,2.3268,2.2704,2.2061,2.1311,2.0545,1.9728,1.8493,1.7261,1.5936,1.4319,1.2834,1.1347,0.8564,0.6512,0.4988,0.395,0.3016,0.2017,0.0503,-0.0615,-0.1624,-0.3126,-0.368,-0.401,-0.5109,-0.5823,-0.6367,-0.6999,-0.7753,-0.8564,-0.935,-0.9769,-0.9988,-0.9995,-1.0182,-1.0419,-1.0698,-1.0241,-0.998,-1.0685,-1.1145,-1.1451,-1.1501,-1.151,-1.1364,-1.1061,-1.0905,-1.0799,-1.0893,-1.1049,-1.1099,-1.0838,-1.0673,-1.0316,-0.9714,-0.9766,-0.971,-0.9566,-1.0111,-1.0368,-1.0075,-0.9969,-0.9852,-0.9716,-0.943,-0.942,-0.9762,-0.9685,-0.9548,-0.9484,-0.9484,-0.9484,0.0935,0.156,0.2267,0.0,0.0,0.0,0.0,0.0,0.0,0.0,0.0,0.0,0.0,0.0,0.0,0.0,0.0,0.0,0.0,0.0,0.0,0.0,0.0,0.0,0.0,0.0,0.0,0.0,0.0,0.0,0.0,0.0,0.0,0.0,2.4856,2.4695,2.4775,2.4408,2.4067,2.3774,2.3522,2.3065,2.2451,2.1698,2.1006,2.0369,1.9361,1.8281,1.7083,1.5389,1.3611,1.1639,0.8822,0.7052,0.5971,0.4602,0.385,0.3309,0.1285,0.0336,-0.028,-0.1953,-0.296,-0.369,-0.4291,-0.4842,-0.5389,-0.6029,-0.6894,-0.7709,-0.8028,-0.8834,-0.9587,-0.984,-0.9725,-0.9817,-1.0537,-1.0285,-0.9825,-0.9614,-1.0178,-1.0639,-1.0375,-1.0893,-1.1209,-1.0858,-1.0651,-1.049,-1.0379,-1.0537,-1.0639,-1.0592,-1.0324,-0.9862,-0.9162,-0.9057,-0.9008,-0.8804,-0.9462,-0.9817,-0.9573,-0.9417,-0.9196,-0.8893,-0.8884,-0.9078,-0.9352,-0.9442,-0.9484,-0.9484,-0.9484,-0.9414,0.1488,0.2041,0.0,0.0,0.0,0.0,0.0,0.0,0.0,0.0,0.0,0.0,0.0,0.0,0.0,0.0,0.0,0.0,0.0,0.0,0.0,0.0,0.0,0.0,0.0,0.0,0.0,0.0,0.0,0.0,0.0,0.0,0.0,0.0,2.4809,2.4629,2.4697,2.4434,2.4096,2.3692,2.3896,2.3611,2.2876,2.1995,2.1283,2.0654,1.9649,1.8461,1.7118,1.5603,1.3091,1.006,0.8649,0.7419,0.6281,0.5429,0.4457,0.3416,0.2237,0.1006,0.0,0.0,-0.1625,-0.3595,-0.3576,-0.357,-0.3846,-0.4948,-0.5875,-0.6423,-0.6228,-0.8296,-1.0304,-0.9718,-0.9614,-0.9614,-0.9614,-1.0091,-1.0304,-0.9721,-0.9614,-0.9614,-0.9614,-0.9614,-1.0075,-1.1469,-1.049,-0.9614,-0.9614,-0.9614,-0.9514,-0.9211,-0.8959,-0.8808,-0.8808,-0.8808,-0.8808,-0.8808,-0.8808,-0.8808,-0.8808,-0.8808,-0.8593,-0.8221,-0.8929,-0.9223,-0.9132,-0.9349,-0.9484,-0.9484,-0.9484,-0.9151,0.1457,0.0,0.0,0.0,0.0,0.0,0.0,0.0,0.0,0.0,0.0,0.0,0.0,0.0,0.0,0.0,0.0,0.0,0.0,0.0,0.0,0.0,0.0,0.0,0.0,0.0,0.0,0.0,0.0,0.0,0.0,0.0,0.0,0.0,2.4809,2.4629,2.4697,2.4434,2.4144,2.3846,2.3946,2.3611,2.2876,2.1995,2.1437,2.1053,1.9919,1.9118,1.8401,1.5966,1.333,1.0787,0.9485,0.832,0.7205,0.6468,0.5048,0.3564,0.3172,0.1728,0.0,0.0,-0.0504,-0.1232,-0.2069,-0.2902,-0.3681,-0.4012,-0.4727,-0.55,-0.6062,-0.6815,-0.7821,-0.9246,-0.9614,-0.9614,-0.9614,-0.9721,-0.9829,-0.9614,-0.9614,-0.9614,-0.9614,-0.9614,-0.9718,-1.0178,-1.0241,-0.9943,-0.9166,-0.9364,-0.9413,-0.8959,-0.8484,-0.8168,-0.8168,-0.854,-0.8593,-0.8221,-0.854,-0.8808,-0.8808,-0.8808,-0.8646,-0.8321,-0.8627,-0.8956,-0.9361,-0.9442,-0.9484,-0.9484,-0.9484,-0.9151,0.1961,0.0,0.0,0.0,0.0,0.0,0.0,0.0,0.0,0.0,0.0,0.0,0.0,0.0,0.0,0.0,0.0,0.0,0.0,0.0,0.0,0.0,0.0,0.0,0.0,0.0,0.0,0.0,0.0,0.0,0.0,0.0,0.0,0.0,2.4794,2.4632,2.47,2.4329,2.4037,2.3867,2.3816,2.3441,2.2756,2.1978,2.1475,2.1156,1.9984,1.8984,1.8067,1.5838,1.3554,1.136,1.0375,0.9114,0.7791,0.7374,0.6018,0.4385,0.3778,0.267,0.1283,0.0335,0.0,-0.0112,-0.084,-0.1619,-0.2396,-0.335,-0.3964,-0.4517,-0.5016,-0.5679,-0.6549,-0.7925,-0.8925,-0.9614,-0.9614,-0.8876,-0.8504,-0.9402,-0.9614,-0.9614,-0.9614,-0.9614,-0.9614,-0.9614,-0.9936,-0.9888,-0.9211,-0.9211,-0.9159,-0.8857,-0.8275,-0.7521,-0.6645,-0.7726,-0.8275,-0.7901,-0.8221,-0.8434,-0.8434,-0.8646,-0.8593,-0.8215,-0.8403,-0.8679,-0.9014,-0.9215,-0.9154,-0.8896,-0.902,-0.8557,0.0,0.0,0.0,0.0,0.0,0.0,0.0,0.0,0.0,0.0,0.0,0.0,0.0,0.0,0.0,0.0,0.0,0.0,0.0,0.0,0.0,0.0,0.0,0.0,0.0,0.0,0.0,0.0,0.0,0.0,0.0,0.0,0.0,2.5089,2.4778,2.4629,2.4682,2.4173,2.3876,0.0,2.3588,2.3165,2.2547,2.1961,2.1445,2.0943,1.9874,1.8426,1.6801,1.5497,1.3845,1.2004,1.1263,0.9847,0.8258,0.8202,0.7258,0.5714,0.4383,0.3776,0.3278,0.1061,0.0168,0.0,0.0,0.0,-0.0447,-0.2628,-0.3416,-0.3584,-0.3584,-0.4796,-0.6012,-0.6178,-0.7765,-0.935,-0.9562,-0.7818,-0.6815,-0.8876,-0.9242,-0.9295,-0.9558,-0.9614,-0.9614,-0.9614,-0.9614,-0.9614,-0.9614,-0.9159,-0.8857,-0.8808,-0.8112,-0.6807,-0.4682,-0.6591,-0.7901,-0.7901,-0.7901,-0.7901,-0.7901,-0.8434,-0.8487,-0.7901,-0.8213,-0.8302,-0.8065,-0.8612,-0.8501,-0.7919,-0.8164,-0.7635,0.0,0.0,0.0,0.0,0.0,0.0,0.0,0.0,0.0,0.0,0.0,0.0,0.0,0.0,0.0,0.0,0.0,0.0,0.0,0.0,0.0,0.0,0.0,0.0,0.0,0.0,0.0,0.0,0.0,0.0,0.0,0.0,0.0,2.5025,2.4799,2.4639,2.4545,2.4173,2.3876,0.0,2.3544,2.3045,2.2192,2.1864,2.1193,2.0292,1.9544,1.8707,1.773,1.6303,1.4722,1.3145,1.2146,1.0762,0.9287,0.9169,0.8059,0.6635,0.63,0.5144,0.377,0.3218,0.1668,0.0,0.0,0.0,-0.0112,-0.0616,-0.2126,-0.3584,-0.3584,-0.386,-0.4522,-0.59,-0.6549,-0.7396,-0.9194,-0.7818,-0.6337,-0.6815,-0.6539,-0.6953,-0.919,-0.9614,-0.9614,-0.9614,-0.9614,-0.9614,-0.9614,-0.9514,-0.9263,-0.8857,-0.7028,-0.551,-0.4574,-0.6591,-0.7901,-0.7901,-0.7901,-0.7901,-0.7901,-0.8008,-0.8008,-0.7901,-0.7774,-0.7298,-0.6398,-0.7167,-0.7454,-0.7379,-0.6835,-0.651,0.0,0.0,0.0,0.0,0.0,0.0,0.0,0.0,0.0,0.0,0.0,0.0,0.0,0.0,0.0,0.0,0.0,0.0,0.0,0.0,0.0,0.0,0.0,0.0,0.0,0.0,0.0,0.0,0.0,0.0,0.0,2.5122,2.5088,2.505,2.4851,2.4651,2.4448,2.4069,2.3753,2.3558,2.328,2.2729,2.1899,2.1419,2.083,2.0127,1.9559,1.8781,1.7857,1.6918,1.5381,1.3611,1.3155,1.1868,1.021,0.9854,0.9009,0.796,0.7171,0.6187,0.5196,0.4265,0.3049,0.1946,0.212,0.196,0.1459,0.0336,-0.0896,-0.1902,-0.1902,-0.2741,-0.3805,-0.4743,-0.557,-0.6552,-0.7714,-0.7025,-0.6121,-0.5848,-0.5519,-0.5891,-0.7658,-0.7759,-0.7649,-0.7922,-0.7978,-0.7978,-0.7978,-0.7706,-0.7548,-0.7568,-0.622,-0.5187,-0.4908,-0.5723,-0.6261,-0.6261,-0.6261,-0.6261,-0.6261,-0.5989,-0.6209,-0.7093,-0.7343,-0.7001,-0.589,-0.6296,-0.6282,-0.5926,-0.5798,-0.5401,0.0,0.0,0.0,0.0,0.0,0.0,0.0,0.0,0.0,0.0,0.0,0.0,0.0,0.0,0.0,0.0,0.0,0.0,0.0,0.0,0.0,0.0,0.0,0.0,0.0,0.0,0.0,0.0,0.0,0.0,2.4848,2.4886,2.4965,2.5103,2.4942,2.4702,2.4396,2.3945,2.3667,2.3495,2.3001,2.2429,2.1782,2.1158,2.062,2.0174,1.9646,1.8855,1.7905,1.7424,1.5985,1.4098,1.4133,1.2954,1.1116,1.0564,0.995,0.9221,0.7803,0.712,0.6632,0.4982,0.4325,0.4113,0.4425,0.416,0.3318,0.1233,0.0336,0.0,0.0,-0.1792,-0.3474,-0.2965,-0.3898,-0.5109,-0.562,-0.5736,-0.5681,-0.5354,-0.5242,-0.524,-0.5399,-0.5348,-0.5464,-0.5957,-0.6066,-0.6066,-0.6066,-0.5683,-0.5626,-0.6121,-0.5738,-0.5407,-0.5299,-0.4908,-0.4574,-0.4517,-0.4408,-0.4353,-0.4353,-0.3859,-0.4304,-0.5859,-0.6608,-0.6541,-0.5625,-0.5645,-0.5103,-0.4079,-0.4554,-0.4154,0.0,0.0,0.0,0.0,0.0,0.0,0.0,0.0,0.0,0.0,0.0,0.0,0.0,0.0,0.0,0.0,0.0,0.0,0.0,0.0,0.0,0.0,0.0,0.0,0.0,0.0,0.0,0.0,0.0,0.0,2.402,2.4058,2.4379,2.5075,2.5069,2.4828,2.4312,2.4011,2.3747,2.3495,2.2902,2.2463,2.2136,2.1751,2.1055,2.0174,1.9646,1.9213,1.8838,1.7793,1.6715,1.5624,1.5083,1.3658,1.1864,1.1913,1.0851,0.9377,0.9166,0.8072,0.6758,0.6539,0.5498,0.4458,0.4465,0.4467,0.419,0.3356,0.1623,0.0,0.0,-0.1796,-0.2925,-0.0336,0.0112,-0.0781,-0.3408,-0.397,-0.4193,-0.5132,-0.4908,-0.4128,-0.2631,-0.4019,-0.5354,-0.5409,-0.5407,-0.5407,-0.5407,-0.5793,-0.6121,-0.6175,-0.6123,-0.5848,-0.5354,-0.5244,-0.502,-0.4519,-0.4024,-0.3694,-0.3694,-0.364,-0.3929,-0.4516,-0.4695,-0.4629,-0.4499,-0.4502,-0.3694,-0.2151,-0.2488,-0.2483,0.0,0.0,0.0,0.0,0.0,0.0,0.0,0.0,0.0,0.0,0.0,0.0,0.0,0.0,0.0,0.0,0.0,0.0,0.0,0.0,0.0,0.0,0.0,0.0,0.0,0.0,0.0,0.0,0.0,2.2334,2.3179,2.3255,2.365,2.4454,2.4415,2.4341,2.4311,2.4117,2.3626,2.2883,2.2588,2.224,2.192,2.1819,2.1197,2.0219,1.9859,1.9339,1.8728,1.8305,1.7545,1.6619,1.5861,1.4744,1.347,1.2439,1.1602,1.0847,0.9931,0.911,0.8383,0.767,0.6974,0.6426,0.6426,0.55,0.4353,0.3749,0.2853,0.2014,0.2014,0.1229,0.0503,0.0841,0.0897,0.056,-0.0783,-0.1903,-0.2633,-0.2793,-0.3959,-0.4184,-0.1737,-0.2126,-0.2846,-0.2846,-0.2846,-0.3458,-0.5075,-0.4965,-0.4743,-0.4743,-0.4743,-0.5289,-0.6652,-0.6763,-0.566,-0.313,-0.2407,-0.1959,-0.1623,-0.123,-0.1175,-0.1403,-0.1362,-0.1951,-0.3093,-0.1879,-0.114,-0.0805,-0.047,-0.0268,0.0,0.0,0.0,0.0,0.0,0.0,0.0,0.0,0.0,0.0,0.0,0.0,0.0,0.0,0.0,0.0,0.0,0.0,0.0,0.0,0.0,0.0,0.0,0.0,0.0,0.0,0.0,0.0,0.0,2.1517,2.2357,2.2464,2.286,2.3639,2.352,2.3623,2.3986,2.393,2.3419,2.244,2.2398,2.2163,2.1789,2.1789,2.1346,2.0501,2.0093,1.942,1.8627,1.8697,1.8152,1.7185,1.6541,1.578,1.4858,1.3285,1.2536,1.2132,1.0881,0.9927,0.9173,0.8206,0.7901,0.7901,0.7901,0.6699,0.5281,0.4844,0.457,0.4406,0.3968,0.3803,0.3466,0.2124,0.179,0.1734,0.1401,-0.028,-0.1628,-0.101,-0.2681,-0.3458,-0.1289,-0.0897,-0.0897,-0.0897,-0.0785,-0.151,-0.3903,-0.3858,-0.364,-0.3803,-0.397,-0.4903,-0.7031,-0.6972,-0.5261,-0.157,-0.0897,-0.0449,-0.0,0.0561,0.1083,0.1471,0.1882,0.0922,-0.1345,0.0873,0.1342,0.0268,0.1007,0.141,0.0,0.0,0.0,0.0,0.0,0.0,0.0,0.0,0.0,0.0,0.0,0.0,0.0,0.0,0.0,0.0,0.0,0.0,0.0,0.0,0.0,0.0,0.0,0.0,0.0,0.0,0.0,0.0,0.0,2.0784,2.1515,2.1623,2.1999,2.2743,2.2581,2.2682,2.3154,2.3268,2.3091,2.2591,2.2598,2.2426,2.2059,2.1899,2.1568,2.1101,2.0249,1.9514,1.886,1.8829,1.8231,1.7382,1.7136,1.6487,1.5572,1.4812,1.3752,1.2614,1.2206,1.0273,0.8005,0.7901,0.7901,0.7901,0.7901,0.7791,0.7735,0.7681,0.73,0.6537,0.4899,0.4463,0.4406,0.4349,0.4294,0.4018,0.2856,0.028,-0.1628,-0.101,-0.1009,-0.1065,-0.0953,-0.0897,-0.0897,-0.0897,-0.0393,-0.0336,-0.1009,-0.2575,-0.3803,-0.4406,-0.4908,-0.5297,-0.5409,-0.4467,-0.2738,-0.0224,-0.0056,-0.0056,-0.0,0.0561,0.1603,0.3059,0.4453,0.3796,0.0941,0.3088,0.3088,0.1075,0.1745,0.1945,0.0,0.0,0.0,0.0,0.0,0.0,0.0,0.0,0.0,0.0,0.0,0.0,0.0,0.0,0.0,0.0,0.0,0.0,0.0,0.0,0.0,0.0,0.0,0.0,0.0,0.0,0.0,0.0,0.0,0.0,2.0778,2.0821,2.1149,2.1843,2.1741,2.1858,2.2194,2.2323,2.2231,2.1893,2.2204,2.2192,2.192,2.184,2.1593,2.1237,2.0624,1.9856,1.9109,1.9011,1.8731,1.8231,1.7335,1.6854,1.6541,1.5163,1.4277,1.37,1.3236,1.2395,1.1684,1.2289,1.1423,1.0079,1.0079,0.9044,0.8212,0.9666,0.8883,0.7464,0.6864,0.6699,0.6804,0.7176,0.6098,0.491,0.4467,0.2624,0.1175,0.1344,0.0168,-0.0897,-0.0897,-0.0561,-0.0336,-0.0336,-0.0112,-0.0224,-0.0841,-0.1457,-0.2407,-0.3802,-0.5073,-0.6647,-0.8495,-0.4472,-0.1344,-0.0056,0.0336,0.0953,0.168,0.1961,0.2442,0.3152,0.509,0.5352,0.3885,0.3488,0.3619,0.4276,0.4209,0.4142,0.0,0.0,0.0,0.0,0.0,0.0,0.0,0.0,0.0,0.0,0.0,0.0,0.0,0.0,0.0,0.0,0.0,0.0,0.0,0.0,0.0,0.0,0.0,0.0,0.0,0.0,0.0,0.0,0.0,0.0,2.0342,2.0376,2.0545,2.085,2.1045,2.1152,2.1231,2.1529,2.1641,2.1589,2.1883,2.2012,2.2032,2.184,2.1653,2.1501,2.091,2.0261,1.9573,1.9339,1.9161,1.8914,1.7673,1.73,1.7294,1.5746,1.5124,1.496,1.4316,1.4077,1.4077,1.4118,1.2967,1.1578,1.1578,1.0486,0.9607,1.0905,1.0233,0.9096,0.9246,0.9295,0.9249,0.8906,0.7771,0.6743,0.6743,0.4611,0.2747,0.297,0.1567,0.0392,0.0559,0.0951,0.1287,0.1508,0.0839,0.0168,-0.0224,-0.0449,-0.1121,-0.2519,-0.4791,-0.8426,-1.3978,-0.3967,0.2208,0.1286,0.179,0.246,0.3245,0.3301,0.3392,0.3555,0.5223,0.6152,0.628,0.468,0.4479,0.5542,0.5408,0.5342,0.0,0.0,0.0,0.0,0.0,0.0,0.0,0.0,0.0,0.0,0.0,0.0,0.0,0.0,0.0,0.0,0.0,0.0,0.0,0.0,0.0,0.0,0.0,0.0,0.0,0.0,0.0,0.0,0.0,2.041,2.0217,2.0313,2.0211,1.9823,2.044,2.0612,2.0263,2.0867,2.1363,2.1766,2.1655,2.1919,2.2479,2.1874,2.1739,2.1961,2.115,2.0654,2.0376,1.9767,1.9522,1.9406,1.8252,1.7794,1.7666,1.6655,1.6293,1.6182,1.5379,1.5108,1.4777,1.2837,1.217,1.217,1.2126,1.2076,1.1977,1.1519,1.1372,1.1423,1.1977,1.2076,1.156,0.942,0.9316,0.9662,0.961,0.6051,0.3078,0.3583,0.3247,0.3025,0.3637,0.3749,0.3968,0.4517,0.2568,0.1009,0.1065,0.056,-0.0,-0.0616,-0.3775,-0.9986,-2.0366,-0.2242,0.8047,0.4073,0.4351,0.4625,0.4627,0.4645,0.4585,0.4422,0.5096,0.6282,0.7919,0.6926,0.58,0.4609,0.514,0.5606,0.0929,0.0,0.0,0.0,0.0,0.0,0.0,0.0,0.0,0.0,0.0,0.0,0.0,0.0,0.0,0.0,0.0,0.0,0.0,0.0,0.0,0.0,0.0,0.0,0.0,0.0,0.0,0.0,2.042,2.0401,2.0347,2.0202,2.0039,1.9877,1.9913,1.9812,1.9588,1.9983,2.0433,2.0935,2.1232,2.1667,2.2198,2.199,2.1882,2.184,2.1409,2.1063,2.0697,2.0108,1.9762,1.9566,1.8731,1.8068,1.7509,1.6522,1.6194,1.61,1.5379,1.5108,1.5017,1.4444,1.4258,1.4019,1.2554,1.2076,1.2358,1.3674,1.3016,1.1923,1.2076,1.2076,1.2022,1.1814,1.1859,1.1547,0.9969,0.858,0.7405,0.631,0.6312,0.6529,0.6696,0.7071,0.7444,0.7608,0.5261,0.3952,0.5202,0.5253,0.5082,0.4912,0.3994,0.3341,0.3167,0.8594,1.1366,0.983,0.8773,0.8013,0.761,0.7915,0.8103,0.8032,0.7323,0.6872,0.6811,0.6408,0.64,0.6915,0.7386,0.7654,0.0,0.0,0.0,0.0,0.0,0.0,0.0,0.7673,0.0,0.0,0.0,0.0,0.0,0.0,0.0,0.0,0.0,0.0,0.0,0.0,0.0,0.0,0.0,0.0,0.0,0.0,0.0,2.0409,2.0408,2.0381,2.0317,2.014,1.9973,1.9821,1.9729,1.9564,1.9341,1.9535,1.9855,2.0318,2.0952,2.1469,2.1888,2.2211,2.2245,2.2121,2.1794,2.1515,2.1268,2.0504,2.0023,1.9667,1.8724,1.814,1.7693,1.682,1.6318,1.605,1.5697,1.5379,1.5108,1.5108,1.5108,1.4875,1.3689,1.3357,1.3404,1.3732,1.3589,1.3357,1.3357,1.3494,1.35,1.3012,1.2881,1.2618,1.1521,1.1266,1.0805,0.9169,0.9086,0.9096,0.8378,0.8543,0.8808,0.8808,0.7543,0.6993,0.8028,0.8137,0.8137,0.8137,0.7937,0.9176,1.2618,1.344,1.343,1.2475,1.1103,0.9829,0.8857,0.9519,0.9584,0.8831,0.8241,0.7659,0.7071,0.6673,0.7062,0.8112,0.8382,0.9506,0.0,0.0,0.0,0.0,0.0,0.0,0.6167,0.7392,0.0,0.0,0.0,0.0,0.0,0.0,0.0,0.0,0.0,0.0,0.0,0.0,0.0,0.0,0.0,0.0,0.0,1.9557,2.0084,2.0034,2.0157,2.0227,2.0202,2.0125,1.9971,1.9726,1.9757,1.9655,1.94,1.937,1.9529,1.9905,2.0666,2.1207,2.1597,2.234,2.2617,2.2509,2.2141,2.1903,2.1697,2.0837,2.0235,1.9752,1.8633,1.8173,1.8073,1.738,1.668,1.6082,1.6188,1.5786,1.5153,1.5153,1.5108,1.5108,1.5153,1.5153,1.4777,1.2929,1.3784,1.5198,1.5198,1.5334,1.5102,1.3578,1.3248,1.3339,1.3573,1.371,1.3367,1.1999,1.1514,1.0909,0.9424,0.9218,0.9267,0.9267,0.9669,0.9865,0.9614,0.9714,0.9769,0.9769,0.9368,1.0135,1.2676,1.4134,1.4414,1.3205,1.2166,1.0854,0.9319,1.021,0.9981,0.8284,0.8268,0.812,0.7854,0.7524,0.7787,0.8517,0.8705,1.1173,0.0,0.0,0.0,0.0,0.0,0.0,0.0,0.5071,0.0,0.0,0.0,0.0,0.0,0.0,0.0,0.0,0.0,0.0,0.0,0.0,0.0,0.0,0.0,0.0,0.0,1.8179,1.8303,1.8285,1.8896,1.9542,2.0164,2.0098,1.9951,1.9797,1.9735,1.9624,1.9409,1.9125,1.9299,1.9896,1.9844,2.041,2.1438,2.166,2.19,2.2104,2.1978,2.1507,2.0845,2.0614,2.0462,2.0273,1.9581,1.8936,1.8369,1.7894,1.7244,1.6546,1.6479,1.6088,1.5608,1.539,1.534,1.534,1.5424,1.5424,1.5283,1.468,1.5051,1.5653,1.5653,1.4593,1.3758,1.496,1.5534,1.5383,1.3936,1.4222,1.4731,1.4438,1.3064,1.1823,1.1514,1.181,1.2112,1.2112,1.2166,1.1601,0.9817,1.0391,1.0964,1.0964,1.0858,1.1364,1.2779,1.3525,1.4134,1.4645,1.3695,1.2842,1.2112,1.1901,1.1451,1.0655,0.8105,0.6745,0.6745,0.8242,0.8835,0.8517,1.0228,1.2569,0.0,0.0,0.0,0.1385,0.0,0.0,0.0,0.0,0.0,0.0,0.0,0.0,0.0,0.0,0.0,0.0,0.0,0.0,0.0,0.0,0.0,0.0,0.0,0.0,0.0,1.7526,1.7801,1.7797,1.8171,1.8555,1.8889,1.922,1.9311,1.9113,1.9517,1.9673,1.9504,1.9311,1.9321,1.9551,1.9619,1.9922,2.0433,2.1194,2.1601,2.171,2.1794,2.1574,2.1102,2.0681,2.047,2.0376,1.9551,1.9072,1.8793,1.8245,1.772,1.7229,1.6993,1.6484,1.5932,1.5794,1.5629,1.5513,1.5552,1.5603,1.5608,1.5474,1.5608,1.5792,1.5792,1.5102,1.4634,1.5863,1.6349,1.6287,1.5543,1.5782,1.6026,1.5558,1.4623,1.3956,1.3956,1.3377,1.2881,1.2881,1.2881,1.252,1.1397,1.1945,1.2447,1.2447,1.2914,1.3389,1.3941,1.4222,1.464,1.5379,1.4966,1.403,1.2573,1.1977,1.1314,1.0494,0.9137,0.8298,0.7982,1.0328,1.1337,1.1013,1.2683,1.4822,0.0,0.0,0.0,0.0,0.0,0.2497,0.0,0.0,0.0,0.0,0.0,0.0,0.0,0.0,0.0,0.0,0.0,0.0,0.0,0.0,0.0,0.0,0.0,0.0,0.0,1.6584,1.7188,1.7543,1.7392,1.7382,1.7608,1.8209,1.8523,1.8441,1.9163,1.9553,1.9574,1.9504,1.9377,1.9184,1.9443,1.9497,1.9412,2.0571,2.1164,2.1291,2.1504,2.159,2.1505,2.0845,2.0478,2.0239,1.9427,1.9169,1.9169,1.8637,1.8187,1.7874,1.7639,1.705,1.6367,1.633,1.6008,1.568,1.573,1.578,1.5842,1.5792,1.5792,1.5697,1.5334,1.5603,1.605,1.6392,1.6558,1.6735,1.7115,1.7073,1.6729,1.5963,1.5519,1.5373,1.5748,1.4176,1.2929,1.3017,1.2978,1.2929,1.3017,1.3392,1.3752,1.4113,1.4542,1.4875,1.5062,1.5108,1.5244,1.5653,1.5659,1.4571,1.2224,1.1364,1.0545,0.9614,1.0021,1.0156,1.0023,1.2385,1.3506,1.3506,1.4815,1.6585,0.0,0.0,0.0,0.0,0.0692,0.0,0.0,0.0,0.0,0.0,0.0,0.0,0.0,0.0,0.0,0.0,0.0,0.0,0.0,0.0,0.0,0.0,0.0,0.0,0.0,0.0,1.501,1.6618,1.5908,1.6071,1.7613,1.7661,1.7938,1.8561,1.8619,1.8927,1.9509,1.9446,1.9311,1.9115,1.8851,1.8941,1.9316,1.9301,1.9866,2.088,2.0908,2.0993,2.1055,2.0967,2.0597,2.0025,1.9919,1.9682,1.9369,1.9295,1.8838,1.8266,1.8415,1.7974,1.7297,1.7137,1.6552,1.5994,1.61,1.6113,1.6031,1.5842,1.5792,1.5418,1.3668,1.4801,1.6436,1.6479,1.682,1.7157,1.7199,1.6565,1.5919,1.5836,1.4408,1.3763,1.5513,1.4176,1.3017,1.3478,1.3157,1.3065,1.3483,1.3568,1.4247,1.5976,1.4709,1.4129,1.5011,1.5108,1.5108,1.5204,1.5198,1.4253,1.2175,1.0588,0.9718,0.9614,0.9192,0.9947,1.1824,1.2971,1.3506,1.3506,1.4815,1.614,0.0,0.0,0.0,0.0,0.0,0.0,0.0,0.0,0.4795,0.0,0.0,0.0,0.0,0.0,0.0,0.0,0.0,0.0,0.0,0.0,0.0,0.0,0.0,0.0,0.0,0.0,0.0,0.0,0.0,1.4558,1.5445,1.6222,1.6781,1.7139,1.7959,1.8525,1.8803,1.912,1.9212,1.9099,1.8762,1.8636,1.8723,1.8867,1.9444,2.0291,2.0522,2.0839,2.1166,2.095,2.0646,2.0262,2.02,2.001,1.9775,1.9631,1.9398,1.9155,1.9162,1.8657,1.7921,1.7249,1.6782,1.6478,1.6269,1.62,1.6113,1.5887,1.5792,1.5418,1.3758,1.4071,1.4977,1.554,1.646,1.7323,1.7855,1.6801,1.5792,1.5792,1.5361,1.5248,1.6082,1.4577,1.3387,1.3568,1.343,1.3387,1.3568,1.3615,1.4474,1.6674,1.5433,1.4645,1.5057,1.5108,1.5108,1.5108,1.4547,1.3452,1.1723,1.0336,0.9462,0.9162,0.8906,0.9729,1.1628,1.2889,1.3536,1.3669,1.4625,1.5675,-0.386,0.0,0.0,0.0,0.0,0.0,0.0,0.0,0.0,0.0,0.0,0.0,0.0,0.0,0.0,0.0,0.0,0.0,0.0,0.0,0.0,0.0,0.0,0.0,0.0,0.0,0.0,0.0,0.0,0.0,1.3836,1.4817,1.5593,1.6111,1.7345,1.8092,1.8302,1.8921,1.9187,1.9101,1.8798,1.8575,1.841,1.8594,1.9079,1.9747,2.0094,2.0507,2.0977,2.0879,2.0712,2.0494,2.0467,2.0392,2.0273,2.0003,1.9952,1.9929,1.9851,1.9236,1.8327,1.7483,1.7118,1.6896,1.6436,1.6275,1.6231,1.605,1.6007,1.5635,1.403,1.38,1.4222,1.4926,1.6201,1.7447,1.8307,1.7468,1.6546,1.6546,1.6509,1.6515,1.6515,1.5338,1.4381,1.4381,1.3931,1.3615,1.3615,1.3615,1.4514,1.6928,1.6287,1.5674,1.5674,1.5322,1.4966,1.4691,1.3988,1.303,1.1773,1.0943,1.0226,0.9725,0.9729,1.0293,1.1427,1.2724,1.3371,1.3295,1.4341,1.5444,0.0,0.0,0.0,-0.3222,0.0,0.0,0.0,0.0,0.8476,0.0,0.0,0.0,0.0,0.0,0.0,0.0,0.0,0.0,0.0,0.0,0.0,0.0,0.0,0.0,0.0,0.0,0.0,0.0,0.0,0.0,1.3714,1.3786,1.4522,1.6155,1.6868,1.7575,1.8293,1.8959,1.923,1.9096,1.8896,1.8752,1.8672,1.8304,1.856,1.9328,1.947,1.9799,2.0262,2.0797,2.0788,2.052,2.0695,2.0794,2.0753,2.0553,2.0444,2.0368,2.0376,1.9643,1.8615,1.8208,1.7659,1.7109,1.6644,1.6479,1.6479,1.6479,1.6479,1.602,1.4118,1.4316,1.5062,1.5108,1.6201,1.7447,1.8307,1.8432,1.8393,1.8393,1.7393,1.6515,1.6515,1.6429,1.6429,1.6429,1.4801,1.3615,1.3615,1.3615,1.4514,1.6928,1.7157,1.715,1.715,1.5894,1.4686,1.371,1.3615,1.3387,1.2876,1.2827,1.2524,1.2022,1.1972,1.1873,1.1678,1.2649,1.2804,1.2315,1.3988,1.557,0.0,0.0,-0.14,-0.1635,0.0,0.0,0.0,0.0,0.0,0.0,0.0,0.0,0.0,0.0,0.0,0.0,0.0,0.0,0.0,0.0,0.0,0.0,0.0,0.0,0.0,0.0,0.0,0.0,0.0,0.0,0.0,1.3273,1.4063,1.517,1.6425,1.7178,1.7362,1.8566,1.9144,1.9096,1.9026,1.8851,1.8551,1.8425,1.8682,1.9235,1.9147,1.9703,2.0651,2.0621,2.0786,2.1015,2.086,2.095,2.1166,2.0819,2.0687,2.0654,2.052,2.0174,1.9694,1.8997,1.863,1.8226,1.6879,1.6515,1.6515,1.6515,1.6515,1.6423,1.6083,1.6219,1.6497,1.6497,1.7297,1.8142,1.8439,1.8517,1.8595,1.8851,1.8546,1.8212,1.8212,1.7242,1.6515,1.6515,1.5932,1.5522,1.5522,1.5776,1.6306,1.7109,1.6899,1.6735,1.6735,1.6293,1.5894,1.5522,1.522,1.4408,1.2978,1.4134,1.4588,1.4066,1.3415,1.3074,1.3107,1.3514,1.3652,1.3457,1.4394,1.5289,-0.2235,0.0032,0.0,0.1607,0.4321,0.0,0.7471,0.0,0.0,0.0,0.0,0.0,0.0,0.0,0.0,0.0,0.0,0.0,0.0,0.0,0.0,0.0,0.0,0.0,0.0,0.0,0.8539,0.9377,0.0,0.0,0.0,0.0,1.3429,1.4279,1.6056,1.6971,1.6899,1.8361,1.9104,1.9102,1.9051,1.8904,1.8661,1.8538,1.8642,1.8936,1.8799,1.9211,2.0032,2.0201,2.0491,2.0836,2.0927,2.1143,2.1355,2.1055,2.0998,2.1063,2.0778,2.0663,2.0455,1.9493,1.9139,1.8898,1.7767,1.7401,1.7332,1.6892,1.6735,1.682,1.7115,1.774,1.8198,1.776,1.8109,1.8517,1.8517,1.8517,1.8627,1.9026,1.9101,1.9101,1.9101,1.8173,1.7201,1.6595,1.6515,1.6558,1.6735,1.6863,1.7031,1.7199,1.6772,1.6515,1.6515,1.6515,1.6515,1.6515,1.605,1.5238,1.3988,1.5142,1.5468,1.4823,1.417,1.3789,1.3642,1.3993,1.4138,1.4099,1.4987,1.5611]}]]